[[{"header":{"parameterUnit":"m.s-1","parameterCategory":1,"la1":31.0,"la2":29.5877,"lo1":-88.7671,"lo2":-86.6584,"dy":0.0162,"dx":0.0185,"nx":115,"ny":88,"refTime":"2026-02-20T12:00:00:Z","depth":0,"parameterNumber":2,"parameterNumberName":"U-component_of_WINDS"},"data":[0.0,0.0,0.0,0.0,0.0,0.0,0.0,0.0,0.0,0.0,0.0,0.0,0.0,0.0,0.0,0.0,0.0,0.0,0.0,0.0,0.0,0.0,0.0,0.0,0.0,0.0,0.0,0.0,0.0,0.0,0.0,0.0,0.0,0.0,0.0,0.0,0.0,0.0,0.0,0.0,0.0,0.0,0.0,0.0,0.0,0.0,0.0,0.0,0.0,0.0,0.0,0.0,0.0,0.0,0.0,0.0,0.0,0.0,0.0,0.0,0.0,0.0,0.0,0.0,0.0,0.0,0.0,0.0,0.0,0.0,0.0,0.0,0.0,0.0,0.0,0.0,0.0,0.0,0.0,0.0,0.0,0.0,0.0,0.0,0.0,0.0,0.0,0.0,0.0,0.0,0.0,0.0,0.0,0.0,0.0,0.0,0.0,0.0,0.0,0.0,0.0,0.0,0.0,0.0,0.0,0.0,0.0,0.0,0.0,0.0,0.0,0.0,0.0,0.0,0.0,0.0,0.0,0.0,0.0,0.0,0.0,0.0,0.0,0.0,0.0,0.0,0.0,0.0,0.0,0.0,0.0,0.0,0.0,0.0,0.0,0.0,0.0,0.0,0.0,0.0,0.0,0.0,0.0,0.0,0.0,0.0,0.0,0.0,0.0,0.0,0.0,0.0,0.0,0.0,0.0,0.0,0.0,0.0,0.0,0.0,0.0,0.0,0.0,0.0,0.0,0.0,0.0,0.0,0.0,0.0,0.0,0.0,0.0,0.0,0.0,0.0,0.0,0.0,0.0,0.0,0.0,0.0,0.0,0.0,0.0,0.0,0.0,0.0,0.0,0.0,0.0,0.0,0.0,0.0,0.0,0.0,0.0,0.0,0.0,0.0,0.0,0.0,0.0,0.0,0.0,0.0,0.0,0.0,0.0,0.0,0.0,0.0,0.0,0.0,0.0,0.0,0.0,0.0,0.0,0.0,0.0,0.0,0.0,0.0,0.0,0.0,0.0,0.0,0.0,0.0,0.0,0.0,0.0,0.0,0.0,0.0,0.0,0.0,0.0,0.0,0.0,0.0,0.0,0.0,0.0,0.0,0.0,0.0,0.0,0.0,0.0,0.0,0.0,0.0,0.0,0.0,0.0,0.0,0.0,0.0,0.0,0.0,0.0,0.0,0.0,0.0,0.0,0.0,0.0,0.0,0.0,0.0,0.0,0.0,0.0,0.0,0.0,0.0,0.0,0.0,0.0,0.0,0.0,0.0,0.0,0.0,0.0,0.0,0.0,0.0,0.0,0.0,0.0,0.0,0.0,0.0,0.0,0.0,0.0,0.0,0.0,0.0,0.0,0.0,0.0,0.0,0.0,0.0,0.0,0.0,0.0,0.0,0.0,0.0,0.0,0.0,0.0,0.0,0.0,0.0,0.0,0.0,0.0,0.0,0.0,0.0,0.0,0.0,0.0,0.0,0.0,0.0,0.0,0.0,0.0,0.0,0.0,0.0,0.0,0.0,0.0,0.0,0.0,0.0,0.0,0.0,0.0,0.0,0.0,0.0,0.0,0.0,0.0,0.0,0.0,0.0,0.0,0.0,0.0,0.0,0.0,0.0,0.0,0.0,0.0,0.0,0.0,0.0,0.0,0.0,0.0,0.0,0.0,0.0,0.0,0.0,0.0,0.0,0.0,0.0,0.0,0.0,0.0,0.0,0.0,0.0,0.0,0.0,0.0,0.0,0.0,0.0,0.0,0.0,0.0,0.0,0.0,0.0,0.0,0.0,0.0,0.0,0.0,0.0,0.0,0.0,0.0,0.0,0.0,0.0,0.0,0.0,0.0,0.0,0.0,0.0,0.0,0.0,0.0,0.0,0.0,0.0,0.0,0.0,0.0,0.0,0.0,0.0,0.0,0.0,0.0,0.0,0.0,0.0,0.0,0.0,0.0,0.0,0.0,0.0,0.0,0.0,0.0,0.0,0.0,0.0,0.0,0.0,0.0,0.0,0.0,0.0,0.0,0.0,0.0,0.0,0.0,0.0,0.0,0.0,0.0,0.0,0.0,0.0,0.0,0.0,0.0,0.0,0.0,0.0,0.0,0.0,0.0,0.0,0.0,0.0,0.0,0.0,0.0,0.0,0.0,0.0,0.0,0.0,0.0,0.0,0.0,0.0,0.0,0.0,0.0,0.0,0.0,0.0,0.0,0.0,0.0,0.0,0.0,0.0,0.0,0.0,0.0,0.0,0.0,0.0,0.0,0.0,0.0,0.0,0.0,0.0,0.0,0.0,0.0,0.0,0.0,0.0,0.0,0.0,0.0,0.0,0.0,0.0,0.0,0.0,0.0,0.0,0.0,0.0,0.0,0.0,0.0,0.0,0.0,0.0,0.0,0.0,0.0,0.0,0.0,0.0,0.0,0.0,0.0,0.0,0.0,0.0,0.0,0.0,0.0,0.0,0.0,0.0,0.0,0.0,0.0,0.0,0.0,0.0,0.0,0.0,0.0,0.0,0.0,0.0,0.0,0.0,0.0,0.0,0.0,0.0,0.0,0.0,0.0,0.0,0.0,0.0,0.0,0.0,0.0,0.0,0.0,0.0,0.0,0.0,0.0,0.0,0.0,0.0,0.0,0.0,0.0,0.0,0.0,0.0,0.0,0.0,0.0,0.0,0.0,0.0,0.0,0.0,0.0,0.0,0.0,0.0,0.0,0.0,0.0,0.0,0.0,0.0,0.0,0.0,0.0,0.0,0.0,0.0,0.0,0.0,0.0,0.0,0.0,0.0,0.0,0.0,0.0,0.0,0.0,0.0,0.0,0.0,0.0,0.0,0.0,0.0,0.0,0.0,0.0,0.0,0.0,0.0,0.0,0.0,0.0,0.0,0.0,0.0,0.0,0.0,0.0,0.0,0.0,0.0,0.0,0.0,0.0,0.0,0.0,0.0,0.0,0.0,0.0,0.0,0.0,0.0,0.0,0.0,0.0,0.0,0.0,0.0,0.0,0.0,0.0,0.0,0.0,0.0,0.0,0.0,0.0,0.0,0.0,0.0,0.0,0.0,0.0,0.0,0.0,0.0,0.0,0.0,0.0,0.0,0.0,0.0,0.0,0.0,0.0,0.0,0.0,0.0,0.0,0.0,0.0,0.0,0.0,0.0,0.0,0.0,0.0,0.0,0.0,0.0,0.0,0.0,0.0,0.0,0.0,0.0,0.0,0.0,0.0,0.0,0.0,0.0,0.0,0.0,0.0,0.0,0.0,0.0,0.0,0.0,0.0,0.0,0.0,0.0,0.0,0.0,0.0,0.0,0.0,0.0,0.0,0.0,0.0,0.0,0.0,0.0,0.0,0.0,0.0,0.0,0.0,0.0,0.0,0.0,0.0,0.0,0.0,0.0,0.0,0.0,0.0,0.0,0.0,0.0,0.0,0.0,0.0,0.0,0.0,0.0,0.0,0.0,0.0,0.0,0.0,0.0,0.0,0.0,0.0,0.0,0.0,0.0,0.0,0.0,0.0,0.0,0.0,0.0,0.0,0.0,0.0,0.0,0.0,0.0,0.0,0.0,0.0,0.0,0.0,0.0,0.0,0.0,0.0,0.0,0.0,0.0,0.0,0.0,0.0,0.0,0.0,0.0,0.0,0.0,0.0,0.0,0.0,0.0,0.0,0.0,0.0,0.0,0.0,0.0,0.0,0.0,0.0,0.0,0.0,0.0,0.0,0.0,0.0,0.0,0.0,0.0,0.0,0.0,0.0,0.0,0.0,0.0,0.0,0.0,0.0,0.0,0.0,0.0,0.0,0.0,0.0,0.0,0.0,0.0,0.0,0.0,0.0,0.0,0.0,0.0,0.0,0.0,0.0,0.0,0.0,0.0,0.0,0.0,0.0,0.0,0.0,0.0,0.0,0.0,0.0,0.0,0.0,0.0,0.0,0.0,0.0,0.0,0.0,0.0,0.0,0.0,0.0,0.0,0.0,0.0,0.0,0.0,0.0,0.0,0.0,0.0,0.0,0.0,0.0,0.0,0.0,0.0,0.0,0.0,0.0,0.0,0.0,0.0,0.0,0.0,0.0,0.0,0.0,0.0,0.0,0.0,0.0,0.0,0.0,0.0,0.0,0.0,0.0,0.0,0.0,0.0,0.0,0.0,0.0,0.0,0.0,0.0,0.0,0.0,0.0,0.0,0.0,0.0,0.0,0.0,0.0,0.0,0.0,0.0,0.0,0.0,0.0,0.0,0.0,0.0,0.0,0.0,0.0,0.0,0.0,0.0,0.0,0.0,0.0,0.0,-2.7982,0.0,0.0,0.0,0.0,0.0,0.0,0.0,0.0,0.0,0.0,0.0,0.0,0.0,0.0,0.0,0.0,0.0,0.0,0.0,0.0,0.0,0.0,0.0,0.0,0.0,0.0,0.0,0.0,0.0,0.0,0.0,0.0,0.0,0.0,0.0,0.0,0.0,0.0,0.0,0.0,0.0,0.0,0.0,0.0,0.0,0.0,0.0,0.0,0.0,0.0,0.0,0.0,0.0,0.0,0.0,0.0,0.0,0.0,0.0,0.0,0.0,0.0,0.0,0.0,0.0,0.0,0.0,0.0,0.0,0.0,0.0,0.0,0.0,0.0,0.0,0.0,0.0,0.0,0.0,0.0,0.0,0.0,0.0,0.0,0.0,0.0,0.0,0.0,0.0,0.0,0.0,0.0,0.0,0.0,0.0,0.0,0.0,0.0,0.0,0.0,0.0,0.0,0.0,0.0,0.0,0.0,0.0,0.0,0.0,0.0,-2.686,-2.7199,-2.7661,-2.7794,-2.7592,0.0,0.0,0.0,0.0,0.0,0.0,0.0,0.0,0.0,0.0,0.0,0.0,0.0,0.0,0.0,0.0,0.0,0.0,0.0,0.0,0.0,0.0,0.0,0.0,0.0,0.0,0.0,0.0,0.0,0.0,0.0,0.0,0.0,0.0,0.0,0.0,0.0,0.0,0.0,0.0,0.0,0.0,0.0,0.0,0.0,0.0,0.0,0.0,0.0,0.0,0.0,0.0,0.0,0.0,0.0,0.0,0.0,0.0,0.0,0.0,0.0,0.0,0.0,0.0,0.0,0.0,0.0,0.0,0.0,0.0,0.0,0.0,0.0,0.0,0.0,0.0,0.0,0.0,0.0,0.0,0.0,0.0,0.0,0.0,0.0,0.0,0.0,0.0,0.0,0.0,0.0,0.0,0.0,0.0,0.0,0.0,0.0,0.0,0.0,0.0,0.0,0.0,0.0,0.0,0.0,0.0,0.0,0.0,0.0,0.0,0.0,0.0,-2.8145,-2.829,-2.7873,0.0,0.0,0.0,0.0,0.0,0.0,0.0,0.0,0.0,0.0,0.0,0.0,0.0,0.0,0.0,0.0,0.0,0.0,0.0,0.0,0.0,0.0,0.0,0.0,0.0,0.0,0.0,0.0,0.0,0.0,0.0,0.0,0.0,0.0,0.0,0.0,0.0,0.0,0.0,0.0,0.0,0.0,0.0,0.0,0.0,0.0,0.0,0.0,0.0,0.0,0.0,0.0,0.0,0.0,0.0,0.0,0.0,0.0,0.0,0.0,0.0,0.0,0.0,0.0,0.0,0.0,0.0,0.0,0.0,0.0,0.0,0.0,0.0,0.0,0.0,0.0,0.0,0.0,0.0,0.0,0.0,0.0,0.0,0.0,0.0,0.0,0.0,0.0,0.0,0.0,0.0,0.0,0.0,0.0,0.0,0.0,0.0,0.0,0.0,0.0,0.0,0.0,0.0,0.0,0.0,0.0,0.0,0.0,0.0,0.0,-2.7689,-2.9719,-3.0125,0.0,-2.947,0.0,0.0,0.0,0.0,0.0,0.0,0.0,0.0,0.0,0.0,0.0,0.0,0.0,0.0,0.0,0.0,0.0,0.0,0.0,0.0,0.0,0.0,0.0,0.0,0.0,0.0,0.0,0.0,0.0,0.0,0.0,0.0,0.0,0.0,0.0,0.0,0.0,0.0,0.0,0.0,0.0,0.0,0.0,0.0,0.0,0.0,0.0,0.0,0.0,0.0,0.0,0.0,0.0,0.0,0.0,0.0,0.0,0.0,0.0,0.0,0.0,0.0,0.0,0.0,0.0,0.0,0.0,0.0,0.0,0.0,0.0,0.0,0.0,0.0,0.0,0.0,0.0,0.0,0.0,0.0,0.0,0.0,0.0,0.0,0.0,0.0,0.0,0.0,0.0,0.0,0.0,0.0,0.0,0.0,0.0,0.0,0.0,0.0,0.0,0.0,0.0,0.0,0.0,0.0,0.0,0.0,0.0,0.0,0.0,0.0,-2.8988,-2.9903,-3.0242,-3.0134,0.0,0.0,0.0,0.0,0.0,0.0,0.0,0.0,0.0,0.0,0.0,0.0,0.0,0.0,0.0,0.0,0.0,0.0,0.0,0.0,0.0,0.0,0.0,0.0,0.0,0.0,0.0,0.0,0.0,0.0,0.0,0.0,0.0,0.0,0.0,0.0,0.0,0.0,0.0,0.0,0.0,0.0,0.0,0.0,0.0,0.0,0.0,0.0,0.0,0.0,0.0,0.0,0.0,0.0,0.0,0.0,0.0,0.0,0.0,0.0,0.0,0.0,0.0,0.0,0.0,0.0,0.0,0.0,0.0,0.0,0.0,0.0,0.0,0.0,0.0,0.0,0.0,0.0,0.0,0.0,0.0,0.0,0.0,0.0,0.0,0.0,0.0,0.0,0.0,0.0,0.0,0.0,0.0,0.0,0.0,0.0,0.0,0.0,0.0,0.0,0.0,0.0,0.0,0.0,0.0,0.0,0.0,0.0,0.0,0.0,-2.9003,-3.0115,-3.081,-3.1091,-3.0485,-2.8934,0.0,0.0,0.0,0.0,0.0,0.0,0.0,0.0,0.0,0.0,0.0,0.0,0.0,0.0,0.0,0.0,0.0,0.0,0.0,0.0,0.0,0.0,0.0,0.0,0.0,0.0,0.0,0.0,0.0,0.0,0.0,0.0,0.0,0.0,0.0,0.0,0.0,0.0,0.0,0.0,0.0,0.0,0.0,0.0,0.0,0.0,0.0,0.0,0.0,0.0,0.0,0.0,0.0,0.0,0.0,0.0,0.0,0.0,0.0,0.0,0.0,0.0,0.0,0.0,0.0,0.0,0.0,0.0,0.0,0.0,0.0,0.0,0.0,0.0,0.0,0.0,0.0,0.0,0.0,0.0,0.0,0.0,0.0,0.0,0.0,0.0,0.0,0.0,0.0,0.0,0.0,0.0,0.0,0.0,0.0,0.0,0.0,0.0,0.0,0.0,0.0,0.0,0.0,0.0,0.0,0.0,0.0,0.0,0.0,-3.0491,-3.0967,-3.3316,-3.3422,-3.151,0.0,0.0,0.0,0.0,0.0,0.0,0.0,0.0,0.0,0.0,0.0,0.0,0.0,0.0,0.0,0.0,0.0,0.0,0.0,0.0,0.0,0.0,0.0,0.0,0.0,0.0,0.0,0.0,0.0,0.0,0.0,0.0,0.0,0.0,0.0,0.0,0.0,0.0,0.0,0.0,0.0,0.0,0.0,0.0,0.0,0.0,0.0,0.0,0.0,0.0,0.0,0.0,0.0,0.0,0.0,0.0,0.0,0.0,0.0,0.0,0.0,0.0,0.0,0.0,0.0,0.0,0.0,0.0,0.0,0.0,0.0,0.0,0.0,0.0,0.0,0.0,0.0,0.0,0.0,0.0,0.0,0.0,0.0,0.0,0.0,0.0,0.0,0.0,0.0,0.0,0.0,0.0,0.0,0.0,0.0,0.0,0.0,0.0,0.0,0.0,0.0,0.0,0.0,0.0,0.0,0.0,0.0,0.0,0.0,-2.6879,-2.8238,-3.107,-3.5182,-3.2169,-3.0059,0.0,0.0,0.0,0.0,0.0,0.0,0.0,0.0,0.0,0.0,0.0,0.0,0.0,0.0,0.0,0.0,0.0,0.0,0.0,0.0,0.0,0.0,0.0,0.0,0.0,0.0,0.0,0.0,0.0,0.0,0.0,0.0,0.0,0.0,0.0,0.0,0.0,0.0,0.0,0.0,0.0,0.0,0.0,0.0,0.0,0.0,0.0,0.0,0.0,0.0,0.0,0.0,0.0,0.0,0.0,0.0,0.0,0.0,0.0,0.0,0.0,0.0,0.0,0.0,0.0,0.0,0.0,0.0,0.0,0.0,0.0,0.0,0.0,0.0,0.0,0.0,0.0,0.0,0.0,0.0,0.0,0.0,0.0,0.0,0.0,0.0,0.0,0.0,0.0,0.0,0.0,0.0,0.0,0.0,0.0,0.0,0.0,0.0,0.0,0.0,0.0,0.0,0.0,0.0,0.0,0.0,0.0,0.0,0.0,-2.6409,0.0,-3.2056,0.0,-3.1488,-2.9094,0.0,0.0,0.0,0.0,0.0,0.0,0.0,0.0,0.0,0.0,0.0,0.0,0.0,0.0,0.0,0.0,0.0,0.0,0.0,0.0,0.0,0.0,0.0,0.0,0.0,0.0,0.0,0.0,0.0,0.0,0.0,0.0,0.0,0.0,0.0,0.0,0.0,0.0,0.0,0.0,0.0,0.0,0.0,0.0,0.0,0.0,0.0,0.0,0.0,0.0,0.0,0.0,0.0,0.0,0.0,0.0,0.0,0.0,0.0,0.0,0.0,0.0,0.0,0.0,0.0,0.0,0.0,0.0,0.0,0.0,0.0,0.0,0.0,0.0,0.0,0.0,0.0,0.0,0.0,0.0,0.0,0.0,0.0,0.0,0.0,0.0,0.0,0.0,0.0,0.0,0.0,0.0,0.0,0.0,0.0,0.0,0.0,0.0,0.0,0.0,0.0,0.0,0.0,0.0,0.0,0.0,0.0,0.0,-2.6078,-3.1275,-3.3313,-3.3734,-3.2713,-3.1622,-2.8697,0.0,0.0,0.0,0.0,0.0,0.0,0.0,0.0,0.0,0.0,0.0,0.0,0.0,0.0,0.0,0.0,0.0,0.0,0.0,0.0,0.0,0.0,0.0,0.0,0.0,0.0,0.0,0.0,0.0,0.0,0.0,0.0,0.0,0.0,0.0,0.0,0.0,0.0,0.0,0.0,0.0,0.0,0.0,0.0,0.0,0.0,0.0,0.0,0.0,0.0,0.0,0.0,0.0,0.0,0.0,0.0,0.0,0.0,0.0,0.0,0.0,0.0,0.0,0.0,0.0,0.0,0.0,0.0,0.0,0.0,0.0,0.0,0.0,0.0,0.0,0.0,0.0,0.0,0.0,0.0,0.0,0.0,0.0,0.0,0.0,0.0,0.0,0.0,0.0,0.0,0.0,0.0,0.0,0.0,0.0,0.0,0.0,0.0,0.0,0.0,0.0,0.0,0.0,0.0,0.0,0.0,0.0,0.0,0.0,-2.7504,-3.0165,-3.2443,-3.4009,-2.9782,-2.7903,0.0,0.0,0.0,0.0,0.0,0.0,0.0,0.0,0.0,0.0,0.0,0.0,0.0,0.0,0.0,0.0,0.0,0.0,0.0,0.0,0.0,0.0,0.0,0.0,0.0,0.0,0.0,0.0,0.0,0.0,0.0,0.0,0.0,0.0,0.0,0.0,0.0,0.0,0.0,0.0,0.0,0.0,0.0,0.0,0.0,0.0,0.0,0.0,0.0,0.0,0.0,0.0,0.0,0.0,0.0,0.0,0.0,0.0,0.0,0.0,0.0,0.0,0.0,0.0,0.0,0.0,0.0,0.0,0.0,0.0,0.0,0.0,0.0,0.0,0.0,0.0,0.0,0.0,0.0,0.0,0.0,0.0,0.0,0.0,0.0,0.0,0.0,0.0,0.0,0.0,0.0,0.0,0.0,0.0,0.0,0.0,0.0,0.0,0.0,0.0,0.0,0.0,0.0,0.0,0.0,0.0,0.0,0.0,0.0,-2.8842,-3.1672,-3.38,-3.4972,-3.063,-2.8631,-2.9283,0.0,0.0,0.0,0.0,0.0,0.0,0.0,0.0,0.0,0.0,0.0,0.0,0.0,0.0,0.0,0.0,0.0,0.0,0.0,0.0,0.0,0.0,0.0,0.0,0.0,0.0,0.0,0.0,0.0,0.0,0.0,0.0,0.0,0.0,0.0,0.0,0.0,0.0,0.0,0.0,0.0,0.0,0.0,0.0,0.0,0.0,0.0,0.0,0.0,0.0,0.0,0.0,0.0,0.0,0.0,0.0,0.0,0.0,0.0,0.0,0.0,0.0,0.0,0.0,0.0,0.0,0.0,0.0,0.0,0.0,0.0,0.0,0.0,0.0,0.0,0.0,0.0,0.0,0.0,0.0,0.0,0.0,0.0,0.0,0.0,0.0,0.0,0.0,0.0,0.0,0.0,0.0,0.0,0.0,0.0,0.0,0.0,0.0,0.0,0.0,0.0,0.0,0.0,0.0,0.0,0.0,0.0,0.0,-3.4137,-3.7143,-3.7667,-3.5549,-3.371,-3.0659,0.0,0.0,0.0,0.0,0.0,0.0,0.0,0.0,0.0,0.0,0.0,0.0,0.0,0.0,0.0,0.0,0.0,0.0,0.0,0.0,0.0,0.0,0.0,0.0,0.0,0.0,0.0,0.0,0.0,0.0,0.0,0.0,0.0,0.0,0.0,0.0,0.0,0.0,0.0,0.0,0.0,0.0,0.0,0.0,0.0,0.0,0.0,0.0,0.0,0.0,0.0,0.0,0.0,0.0,0.0,0.0,0.0,0.0,0.0,0.0,0.0,0.0,0.0,0.0,0.0,0.0,0.0,0.0,0.0,0.0,0.0,0.0,0.0,0.0,0.0,0.0,0.0,0.0,0.0,0.0,0.0,0.0,0.0,0.0,0.0,0.0,0.0,0.0,0.0,0.0,0.0,0.0,0.0,0.0,0.0,0.0,0.0,0.0,0.0,0.0,0.0,0.0,0.0,0.0,0.0,0.0,0.0,0.0,0.0,-3.7343,-4.0874,-4.1952,-4.0349,-3.5473,-3.2255,0.0,0.0,0.0,0.0,0.0,0.0,0.0,0.0,0.0,0.0,0.0,0.0,0.0,0.0,0.0,0.0,0.0,0.0,0.0,0.0,0.0,0.0,0.0,0.0,0.0,0.0,0.0,0.0,0.0,0.0,0.0,0.0,0.0,0.0,0.0,0.0,0.0,0.0,0.0,0.0,0.0,0.0,0.0,0.0,0.0,0.0,0.0,0.0,0.0,0.0,0.0,0.0,0.0,0.0,0.0,0.0,0.0,0.0,0.0,0.0,0.0,0.0,0.0,0.0,0.0,0.0,0.0,0.0,0.0,0.0,0.0,0.0,0.0,0.0,0.0,0.0,0.0,0.0,0.0,0.0,0.0,0.0,0.0,0.0,0.0,0.0,0.0,0.0,0.0,0.0,0.0,0.0,0.0,0.0,0.0,0.0,0.0,0.0,0.0,0.0,0.0,0.0,0.0,0.0,0.0,0.0,0.0,0.0,-3.474,-4.0036,-4.3415,-4.5057,-4.4801,-3.9554,-3.5436,0.0,0.0,0.0,0.0,0.0,0.0,0.0,0.0,0.0,0.0,0.0,0.0,0.0,0.0,0.0,0.0,0.0,0.0,0.0,0.0,0.0,0.0,0.0,0.0,0.0,0.0,0.0,0.0,0.0,0.0,0.0,0.0,0.0,0.0,0.0,0.0,0.0,0.0,0.0,0.0,0.0,0.0,0.0,0.0,0.0,0.0,0.0,0.0,0.0,0.0,0.0,0.0,0.0,0.0,0.0,0.0,0.0,0.0,0.0,0.0,0.0,0.0,0.0,0.0,0.0,0.0,0.0,0.0,0.0,0.0,0.0,0.0,0.0,0.0,0.0,0.0,0.0,0.0,0.0,0.0,0.0,0.0,0.0,0.0,0.0,0.0,0.0,0.0,0.0,0.0,0.0,0.0,0.0,0.0,0.0,0.0,0.0,0.0,0.0,0.0,0.0,0.0,0.0,0.0,0.0,0.0,0.0,0.0,-3.6429,-4.2098,-4.5098,-4.7173,-4.8247,-4.4223,-3.918,0.0,0.0,0.0,0.0,0.0,0.0,0.0,0.0,0.0,0.0,0.0,0.0,0.0,0.0,0.0,0.0,0.0,0.0,0.0,0.0,0.0,0.0,0.0,0.0,0.0,0.0,0.0,0.0,0.0,0.0,0.0,0.0,0.0,0.0,0.0,0.0,0.0,0.0,0.0,0.0,0.0,0.0,0.0,0.0,0.0,0.0,0.0,0.0,0.0,0.0,0.0,0.0,0.0,0.0,0.0,0.0,0.0,0.0,0.0,0.0,0.0,0.0,0.0,0.0,0.0,0.0,0.0,0.0,0.0,0.0,0.0,0.0,0.0,0.0,0.0,0.0,0.0,0.0,0.0,0.0,0.0,0.0,0.0,0.0,0.0,0.0,0.0,0.0,0.0,0.0,0.0,0.0,0.0,0.0,0.0,0.0,0.0,0.0,0.0,0.0,0.0,0.0,0.0,0.0,0.0,0.0,0.0,0.0,-3.768,-4.2857,-4.5891,-4.8034,-4.9277,-4.4414,-3.9536,0.0,0.0,0.0,0.0,0.0,0.0,0.0,0.0,0.0,0.0,0.0,0.0,0.0,0.0,0.0,0.0,0.0,0.0,0.0,0.0,0.0,0.0,0.0,0.0,0.0,0.0,0.0,0.0,0.0,0.0,0.0,0.0,0.0,0.0,0.0,0.0,0.0,0.0,0.0,0.0,0.0,0.0,0.0,0.0,0.0,0.0,0.0,0.0,-2.1688,0.0,0.0,0.0,0.0,0.0,0.0,0.0,0.0,0.0,0.0,0.0,0.0,0.0,0.0,0.0,0.0,0.0,0.0,0.0,0.0,0.0,0.0,0.0,0.0,0.0,0.0,0.0,0.0,0.0,0.0,0.0,0.0,0.0,0.0,0.0,0.0,0.0,0.0,0.0,0.0,0.0,0.0,0.0,0.0,0.0,0.0,0.0,0.0,0.0,0.0,0.0,0.0,0.0,0.0,0.0,0.0,0.0,0.0,0.0,-3.9407,-4.409,-4.6788,-4.8594,-4.9386,-4.5754,-4.1342,0.0,0.0,0.0,0.0,0.0,0.0,0.0,0.0,0.0,0.0,0.0,0.0,0.0,0.0,0.0,0.0,0.0,0.0,0.0,0.0,0.0,0.0,0.0,0.0,0.0,0.0,0.0,0.0,0.0,0.0,0.0,0.0,0.0,0.0,0.0,0.0,0.0,0.0,0.0,0.0,0.0,0.0,0.0,0.0,0.0,0.0,0.0,0.0,0.0,0.0,0.0,0.0,0.0,0.0,0.0,0.0,0.0,0.0,0.0,0.0,0.0,0.0,0.0,0.0,0.0,0.0,0.0,0.0,0.0,0.0,0.0,0.0,0.0,0.0,0.0,0.0,0.0,0.0,0.0,0.0,0.0,0.0,0.0,0.0,0.0,0.0,0.0,0.0,0.0,0.0,0.0,0.0,0.0,0.0,0.0,0.0,0.0,0.0,0.0,0.0,0.0,0.0,0.0,0.0,0.0,0.0,0.0,-3.6287,-4.0718,-4.5217,-4.7361,-4.8729,-4.9352,-4.7057,-4.316,-3.7721,0.0,0.0,0.0,0.0,0.0,0.0,0.0,0.0,0.0,0.0,0.0,0.0,0.0,0.0,0.0,0.0,0.0,0.0,0.0,0.0,0.0,0.0,0.0,0.0,0.0,0.0,0.0,0.0,0.0,0.0,0.0,0.0,0.0,0.0,0.0,0.0,0.0,0.0,-2.1735,-2.3139,0.0,0.0,0.0,0.0,0.0,0.0,0.0,0.0,-2.2629,0.0,0.0,0.0,0.0,0.0,0.0,0.0,0.0,0.0,0.0,0.0,0.0,0.0,0.0,0.0,0.0,0.0,0.0,0.0,0.0,0.0,0.0,0.0,0.0,0.0,0.0,0.0,0.0,0.0,0.0,0.0,0.0,0.0,0.0,0.0,0.0,0.0,0.0,0.0,0.0,0.0,0.0,0.0,0.0,0.0,0.0,0.0,0.0,0.0,0.0,0.0,0.0,0.0,0.0,0.0,0.0,-3.578,-3.6619,-3.9666,-4.5149,-4.6819,-4.7894,-4.8433,-4.6382,-4.2803,-3.7721,0.0,0.0,0.0,0.0,0.0,0.0,0.0,0.0,0.0,0.0,0.0,0.0,0.0,0.0,0.0,0.0,0.0,0.0,0.0,0.0,0.0,0.0,0.0,0.0,0.0,0.0,0.0,0.0,0.0,0.0,0.0,0.0,0.0,0.0,0.0,0.0,0.0,0.0,0.0,-2.6167,-2.7114,0.0,0.0,0.0,0.0,0.0,0.0,0.0,0.0,-2.2612,0.0,0.0,0.0,0.0,0.0,0.0,0.0,0.0,0.0,0.0,0.0,0.0,0.0,0.0,0.0,0.0,0.0,0.0,0.0,0.0,0.0,0.0,0.0,0.0,0.0,0.0,0.0,0.0,0.0,0.0,0.0,0.0,0.0,0.0,0.0,0.0,0.0,0.0,0.0,0.0,0.0,0.0,0.0,0.0,0.0,0.0,0.0,0.0,0.0,0.0,0.0,0.0,0.0,0.0,0.0,-3.4888,-3.7991,-4.1417,-4.5264,-4.6376,-4.7194,-4.7725,-4.4364,-4.0938,0.0,0.0,0.0,0.0,0.0,0.0,0.0,0.0,0.0,0.0,0.0,0.0,0.0,0.0,0.0,0.0,0.0,0.0,0.0,0.0,0.0,0.0,0.0,0.0,0.0,0.0,0.0,0.0,0.0,0.0,0.0,0.0,0.0,0.0,0.0,0.0,0.0,0.0,0.0,0.0,-2.6793,-2.752,-2.8315,0.0,0.0,0.0,0.0,0.0,0.0,-2.3763,-2.2951,0.0,0.0,0.0,0.0,0.0,0.0,0.0,0.0,0.0,0.0,0.0,0.0,0.0,0.0,0.0,0.0,0.0,0.0,0.0,0.0,0.0,0.0,0.0,0.0,0.0,0.0,0.0,0.0,0.0,0.0,0.0,0.0,0.0,0.0,0.0,0.0,0.0,0.0,0.0,0.0,0.0,0.0,0.0,0.0,0.0,0.0,0.0,0.0,0.0,0.0,0.0,0.0,0.0,0.0,0.0,-3.3478,-3.8779,-4.2805,-4.5381,-4.607,-4.6639,-4.7057,-4.301,-3.9578,0.0,0.0,0.0,0.0,0.0,0.0,0.0,0.0,0.0,0.0,0.0,0.0,0.0,0.0,0.0,0.0,0.0,0.0,0.0,0.0,0.0,0.0,0.0,0.0,0.0,0.0,0.0,0.0,0.0,0.0,0.0,0.0,0.0,0.0,0.0,0.0,0.0,0.0,0.0,0.0,0.0,-2.8519,-2.9128,-2.7672,0.0,0.0,0.0,0.0,-2.5709,-2.5489,0.0,0.0,0.0,0.0,0.0,0.0,0.0,0.0,0.0,0.0,0.0,0.0,0.0,0.0,0.0,0.0,0.0,0.0,0.0,0.0,0.0,0.0,0.0,0.0,0.0,0.0,0.0,0.0,0.0,0.0,0.0,0.0,0.0,0.0,0.0,0.0,0.0,0.0,0.0,0.0,0.0,0.0,0.0,0.0,0.0,0.0,0.0,0.0,0.0,0.0,0.0,0.0,0.0,0.0,0.0,0.0,-3.3359,-3.7215,-4.1238,-4.526,-4.607,-4.6372,-4.6293,-4.414,-4.0586,0.0,0.0,0.0,0.0,0.0,0.0,0.0,0.0,0.0,0.0,0.0,0.0,0.0,0.0,0.0,0.0,0.0,0.0,0.0,0.0,0.0,0.0,0.0,0.0,0.0,0.0,0.0,0.0,0.0,0.0,0.0,0.0,0.0,0.0,0.0,0.0,0.0,0.0,0.0,0.0,0.0,-3.2713,-3.0311,-2.9734,-2.933,0.0,0.0,-2.884,-3.0228,-3.0905,0.0,0.0,0.0,0.0,0.0,0.0,0.0,0.0,0.0,0.0,0.0,0.0,0.0,0.0,0.0,0.0,0.0,0.0,0.0,0.0,0.0,0.0,0.0,0.0,0.0,0.0,0.0,0.0,0.0,0.0,0.0,0.0,0.0,0.0,0.0,0.0,0.0,0.0,0.0,0.0,0.0,0.0,0.0,0.0,0.0,0.0,0.0,0.0,0.0,0.0,0.0,0.0,0.0,0.0,0.0,-3.0615,-3.3457,-3.8286,-4.2167,-4.4878,-4.5258,-4.5308,-4.5158,-4.1714,-3.8324,0.0,0.0,0.0,0.0,0.0,0.0,0.0,0.0,0.0,0.0,0.0,0.0,0.0,0.0,0.0,0.0,0.0,0.0,0.0,0.0,0.0,0.0,0.0,0.0,0.0,0.0,0.0,0.0,0.0,0.0,0.0,0.0,0.0,0.0,0.0,0.0,0.0,0.0,0.0,0.0,0.0,0.0,-3.1393,-3.1343,0.0,0.0,0.0,-3.0446,-3.1106,0.0,0.0,0.0,0.0,0.0,0.0,0.0,0.0,0.0,0.0,0.0,0.0,0.0,0.0,0.0,0.0,0.0,0.0,0.0,0.0,0.0,0.0,0.0,0.0,0.0,0.0,0.0,0.0,0.0,0.0,0.0,0.0,0.0,0.0,0.0,0.0,0.0,0.0,0.0,0.0,0.0,0.0,0.0,0.0,0.0,0.0,0.0,0.0,0.0,0.0,0.0,0.0,0.0,0.0,0.0,0.0,0.0,-3.3474,-3.9276,-4.3058,-4.453,-4.4412,-4.4231,-4.4039,-4.0098,0.0,0.0,0.0,0.0,0.0,0.0,0.0,0.0,0.0,0.0,0.0,0.0,0.0,0.0,0.0,0.0,0.0,0.0,0.0,0.0,0.0,0.0,0.0,0.0,0.0,0.0,0.0,-1.5291,0.0,0.0,0.0,0.0,0.0,0.0,0.0,0.0,0.0,0.0,0.0,0.0,0.0,0.0,-3.1258,-3.2175,-3.2784,-3.3,0.0,0.0,-3.229,-3.2307,-3.278,-3.2002,0.0,0.0,0.0,0.0,0.0,0.0,0.0,0.0,0.0,0.0,0.0,0.0,0.0,0.0,0.0,0.0,0.0,0.0,0.0,0.0,0.0,0.0,0.0,0.0,0.0,0.0,0.0,0.0,0.0,0.0,0.0,0.0,0.0,0.0,0.0,0.0,0.0,0.0,0.0,0.0,0.0,0.0,0.0,0.0,0.0,0.0,0.0,0.0,0.0,0.0,0.0,0.0,0.0,0.0,0.0,-3.3508,-3.9276,-4.3014,-4.4513,-4.3876,-4.342,-4.3254,-4.1092,-3.7473,0.0,0.0,0.0,0.0,0.0,0.0,0.0,0.0,0.0,0.0,0.0,0.0,0.0,0.0,0.0,0.0,0.0,0.0,0.0,0.0,0.0,0.0,0.0,0.0,0.0,0.0,0.0,0.0,0.0,0.0,0.0,0.0,0.0,0.0,0.0,0.0,0.0,0.0,0.0,0.0,0.0,-3.2966,-3.2395,-3.4066,-3.5622,0.0,0.0,-3.5295,-3.5295,-3.706,-3.6315,-2.9958,0.0,0.0,0.0,0.0,0.0,0.0,0.0,0.0,0.0,0.0,0.0,0.0,0.0,0.0,0.0,0.0,0.0,0.0,0.0,0.0,0.0,0.0,0.0,0.0,0.0,0.0,0.0,0.0,0.0,0.0,0.0,0.0,0.0,0.0,0.0,0.0,0.0,0.0,0.0,0.0,0.0,0.0,0.0,0.0,0.0,0.0,0.0,0.0,0.0,0.0,0.0,0.0,0.0,-3.0514,-3.273,-3.8582,-4.2134,-4.3142,-4.3318,-4.2935,-4.1972,-4.0315,-3.7257,0.0,0.0,0.0,0.0,0.0,0.0,0.0,0.0,0.0,0.0,0.0,0.0,0.0,0.0,0.0,0.0,0.0,0.0,0.0,0.0,0.0,0.0,0.0,0.0,0.0,0.0,0.0,0.0,-1.9705,-1.9807,-1.9608,0.0,0.0,0.0,0.0,0.0,0.0,0.0,0.0,0.0,0.0,-3.3102,-3.4184,-3.5876,0.0,0.0,-3.7212,-3.7172,-3.7618,-3.6857,-3.4878,-3.097,-2.8416,0.0,0.0,0.0,0.0,0.0,0.0,0.0,0.0,0.0,0.0,0.0,0.0,0.0,0.0,0.0,0.0,0.0,0.0,0.0,0.0,0.0,0.0,0.0,0.0,0.0,0.0,0.0,0.0,0.0,0.0,0.0,0.0,0.0,0.0,0.0,0.0,0.0,0.0,0.0,0.0,0.0,0.0,0.0,0.0,0.0,0.0,0.0,0.0,0.0,0.0,0.0,0.0,-3.0093,-3.2293,-3.7956,-4.1339,-4.2269,-4.2591,-4.2243,-4.1221,-3.9766,-3.7114,0.0,0.0,0.0,0.0,0.0,0.0,0.0,0.0,0.0,0.0,0.0,0.0,0.0,0.0,0.0,0.0,0.0,0.0,0.0,0.0,0.0,0.0,0.0,0.0,0.0,0.0,0.0,0.0,-2.1207,-2.0686,-1.949,0.0,0.0,0.0,0.0,0.0,0.0,0.0,0.0,0.0,0.0,-3.3698,-3.5673,-3.7077,-3.799,-3.8193,-3.7669,-3.7415,-3.7905,-3.6214,-3.3931,-3.1292,0.0,0.0,0.0,0.0,0.0,0.0,0.0,0.0,0.0,0.0,0.0,0.0,0.0,0.0,0.0,0.0,0.0,0.0,0.0,0.0,0.0,0.0,0.0,0.0,0.0,0.0,0.0,-2.3359,0.0,0.0,-2.2313,0.0,0.0,0.0,0.0,0.0,0.0,0.0,0.0,0.0,0.0,0.0,0.0,0.0,0.0,0.0,0.0,0.0,0.0,0.0,0.0,0.0,0.0,-3.0093,-3.2327,-3.7499,-4.0849,-4.2185,-4.161,-4.1271,-4.1153,-3.9766,-3.7212,-3.3461,0.0,0.0,0.0,0.0,0.0,0.0,0.0,0.0,0.0,0.0,0.0,0.0,0.0,0.0,0.0,0.0,0.0,0.0,0.0,0.0,0.0,0.0,0.0,0.0,0.0,0.0,-2.1207,-2.1207,-2.0361,0.0,0.0,0.0,0.0,0.0,0.0,0.0,0.0,0.0,0.0,-3.1647,-3.5018,-3.6558,-3.7432,-3.821,-3.8886,-3.7144,-3.574,-3.5842,-3.5656,-3.4332,0.0,0.0,0.0,0.0,0.0,0.0,0.0,0.0,0.0,0.0,0.0,0.0,0.0,0.0,0.0,0.0,0.0,0.0,0.0,0.0,0.0,0.0,0.0,0.0,0.0,0.0,0.0,-2.796,-2.6353,0.0,0.0,0.0,0.0,0.0,0.0,0.0,0.0,0.0,0.0,0.0,-3.3791,-3.4805,0.0,0.0,0.0,0.0,0.0,0.0,0.0,0.0,0.0,0.0,0.0,0.0,-3.0076,-3.2412,-3.7466,-4.0341,-4.084,-4.1068,-4.0967,-4.046,-3.9495,-3.7032,-3.278,0.0,0.0,0.0,0.0,0.0,0.0,0.0,0.0,0.0,0.0,0.0,0.0,0.0,0.0,0.0,0.0,0.0,0.0,0.0,0.0,0.0,0.0,0.0,0.0,0.0,-2.1938,0.0,0.0,0.0,0.0,0.0,0.0,0.0,0.0,0.0,0.0,0.0,-2.7165,-3.0362,-3.3355,-3.5808,-3.7313,-3.8582,-3.9469,0.0,0.0,0.0,0.0,0.0,0.0,0.0,0.0,0.0,0.0,0.0,0.0,0.0,0.0,-3.4022,-2.8926,-2.6881,-2.6161,-2.6851,0.0,0.0,0.0,0.0,0.0,0.0,0.0,0.0,0.0,0.0,0.0,0.0,0.0,0.0,-3.1664,0.0,-2.9971,0.0,0.0,0.0,0.0,0.0,0.0,0.0,0.0,-3.538,-3.7104,-3.7577,-3.8582,-3.7889,0.0,-3.5487,-3.2852,0.0,0.0,0.0,0.0,0.0,0.0,0.0,0.0,-3.0463,-3.2763,-3.7313,-3.9834,-4.0113,-4.0544,-4.0578,-4.0096,-3.9123,-3.6857,-3.319,-3.0228,-2.7605,0.0,0.0,0.0,0.0,0.0,0.0,0.0,0.0,0.0,0.0,0.0,0.0,0.0,0.0,0.0,0.0,0.0,0.0,0.0,0.0,0.0,0.0,0.0,-2.2868,0.0,0.0,0.0,0.0,0.0,0.0,0.0,0.0,0.0,-2.5235,-2.7486,-3.0125,-3.3051,-3.5385,-3.7161,-3.8142,0.0,0.0,0.0,0.0,0.0,0.0,0.0,-3.6184,-3.6469,-3.5598,-3.4847,-3.5027,-3.7087,-3.8472,-3.7626,0.0,0.0,-3.3456,-3.1319,-3.0592,-3.1301,-3.2115,-3.2838,-3.3319,-3.5136,-3.6625,0.0,0.0,0.0,0.0,0.0,0.0,0.0,0.0,-3.5182,-3.5182,0.0,-3.4201,0.0,0.0,0.0,0.0,0.0,-3.3508,0.0,0.0,-4.0806,-4.2581,-4.1339,-4.1305,-4.0916,-4.0265,-4.0815,-3.887,-3.4506,-2.9583,0.0,0.0,0.0,0.0,0.0,0.0,-3.1309,-3.3575,-3.7195,-3.9377,-4.0079,-4.0113,-4.0113,-4.0062,-3.8717,-3.6891,-3.4658,-3.3106,-3.0651,-2.7029,-2.5371,0.0,0.0,0.0,0.0,0.0,0.0,0.0,0.0,0.0,0.0,0.0,0.0,0.0,0.0,0.0,0.0,0.0,0.0,0.0,0.0,-2.4068,0.0,0.0,0.0,0.0,0.0,0.0,0.0,0.0,0.0,0.0,-2.7165,-3.07,-3.3998,-3.5447,0.0,0.0,0.0,0.0,-3.9306,-3.9842,-3.8721,-3.8073,-3.8647,-3.8675,-3.8393,-3.7718,0.0,0.0,-3.9481,-4.1646,-4.2746,-4.0543,-4.2014,-4.2918,-4.0709,-3.8216,-3.6884,-3.7359,-3.7168,-3.7038,-3.7186,-3.8719,-3.9996,-4.3266,0.0,0.0,0.0,0.0,-3.87,-4.0138,-4.2726,-4.1407,-4.0062,-3.8744,-3.7804,0.0,0.0,0.0,0.0,0.0,0.0,-3.6755,-3.8877,-4.0916,-4.2455,-4.3633,-4.3633,-4.3217,-4.2446,-4.2151,-4.0764,-3.8497,-3.6468,-3.2171,-2.5896,0.0,0.0,0.0,0.0,-3.4083,-3.5859,-3.8437,-3.9893,-4.0096,-4.0113,-4.0113,-4.0096,-3.9199,-3.7872,-3.6203,-3.4697,-3.2666,-3.0006,-2.7435,0.0,0.0,0.0,0.0,0.0,0.0,0.0,0.0,0.0,0.0,0.0,0.0,0.0,0.0,0.0,0.0,0.0,0.0,0.0,-2.3255,-2.4068,-2.4118,0.0,0.0,0.0,0.0,0.0,0.0,0.0,0.0,0.0,-3.2154,-3.3355,-3.4945,0.0,0.0,-3.8988,-3.8988,-4.0295,-4.135,-4.1481,-4.1827,0.0,-4.232,-4.1723,-4.1503,-4.2413,-4.3615,-4.4308,-4.3999,-4.4656,-4.4984,-4.425,-4.4745,-4.482,-4.3632,-4.1495,-4.007,-4.0355,-4.0794,-4.1509,-4.2526,-4.3653,-4.4456,-4.7665,-4.3086,-4.1307,-4.1491,-4.2929,-4.2506,-4.3758,-4.6092,-4.5145,-4.4164,-4.3122,-4.2117,-3.9884,-3.684,-3.5402,0.0,0.0,0.0,-3.9123,-4.1441,-4.2202,-4.325,-4.4547,-4.4598,-4.4333,-4.3859,-4.342,-4.2574,-4.1398,-4.0967,-3.7347,-3.0939,0.0,0.0,-3.0156,-3.3288,-3.5707,-3.7269,-3.9131,-4.0113,-4.0113,-4.0113,-4.0113,-4.0096,-3.969,-3.8894,-3.7709,-3.6502,-3.4962,-3.3,-3.0091,-2.7655,0.0,0.0,0.0,0.0,0.0,0.0,0.0,0.0,0.0,0.0,0.0,-1.8096,-1.5395,0.0,0.0,0.0,-2.1732,-2.3746,-2.4643,-2.5913,0.0,0.0,0.0,0.0,0.0,0.0,0.0,-2.9854,-3.2429,-3.4737,-3.6412,-3.6918,-3.7604,-3.9029,-4.0065,-4.0705,-4.0705,0.0,-4.3073,-4.3323,-4.393,-4.4455,-4.4649,-4.4145,-4.4066,-4.5021,-4.5296,-4.5571,-4.5847,-4.5902,-4.5902,-4.5902,-4.5902,-4.5645,-4.4856,-4.3497,-4.2463,-4.2384,-4.3009,-4.3858,-4.4759,-4.5481,-4.6109,-5.0864,-4.9821,-4.6482,-4.5466,-4.6041,-4.6058,-4.6464,-4.7107,-4.7022,-4.7378,-4.7838,-4.6447,-4.4621,-4.2439,-3.9131,0.0,-4.0671,-4.1322,-4.2371,-4.369,-4.4367,-4.4699,-4.4682,-4.4632,-4.4598,-4.4598,-4.4598,-4.4215,-4.3494,-4.3436,-4.1322,-3.7286,-3.574,-3.4539,-3.3689,-3.5092,-3.658,-3.8075,-3.9419,-4.0113,-4.0113,-4.0113,-4.0113,-4.0113,-4.0045,-3.9673,-3.892,-3.8193,-3.7144,-3.56,-3.2831,-3.0328,-2.8196,0.0,0.0,0.0,0.0,0.0,0.0,0.0,0.0,0.0,0.0,0.0,0.0,0.0,0.0,0.0,-2.4708,0.0,-2.6894,-2.8808,0.0,0.0,0.0,-2.8976,-2.8521,-3.0946,-3.2951,-3.3727,0.0,0.0,-3.9907,-4.0844,-4.1352,-4.1427,-4.2538,-4.3353,-4.3294,-4.3774,-4.4446,-4.4798,-4.5066,-4.5337,-4.5681,-4.5718,-4.57,-4.5773,-4.5278,-4.5149,-4.5736,-4.5902,-4.5902,-4.5902,-4.5902,-4.5645,-4.4838,-4.4599,-4.4452,-4.3587,-4.4114,-4.4706,-4.4865,-4.536,-4.5837,-5.2165,-5.0861,-4.9994,-4.9407,-4.9052,-4.9052,-4.9475,-5.0067,-4.8968,-4.8578,-4.8646,-4.7192,-4.6227,-4.5669,-4.4807,-4.4705,-4.5213,-4.5365,-4.5652,-4.5957,-4.5602,-4.5432,-4.5415,-4.4869,-4.4598,-4.4598,-4.4598,-4.4513,-4.431,-4.3707,-4.2591,-4.1001,-4.0054,-3.8108,-3.5261,-3.7161,-3.865,-3.9563,-3.9926,-4.0113,-4.0113,-4.0113,-4.0113,-4.0096,-3.9571,-3.8903,-3.8193,-3.7432,-3.6603,-3.56,-3.3322,-3.1802,-3.119,-2.664,0.0,0.0,0.0,0.0,0.0,0.0,0.0,0.0,0.0,-2.2461,-1.7901,0.0,-2.3257,0.0,-2.6042,-2.8183,-2.8436,-2.923,0.0,0.0,-3.1092,-3.1694,-3.415,-3.5054,-3.6004,-3.7357,-3.9355,-4.1116,-4.2224,-4.3451,-4.4084,-4.3506,-4.3733,-4.3782,-4.3235,-4.4146,-4.4723,-4.4413,-4.5088,-4.5736,-4.5865,-4.5902,-4.5883,-4.5902,-4.5718,-4.5681,-4.5865,-4.5902,-4.5902,-4.5902,-4.5902,-4.5571,-4.4819,-4.4709,-4.4397,-4.3787,-4.4561,-4.5609,-4.5855,-4.6231,-4.6567,-5.2978,-5.2232,-5.2232,-5.1995,-5.1539,-5.0879,-5.0828,-5.1133,-5.0338,-4.9796,-4.939,-4.7936,-4.7107,-4.6786,-4.6786,-4.6786,-4.6786,-4.6786,-4.6786,-4.6769,-4.6363,-4.6007,-4.5686,-4.5263,-4.4919,-4.4615,-4.4598,-4.4598,-4.4581,-4.4147,-4.3369,-4.233,-4.188,-4.0324,-3.7787,-3.8836,-3.969,-4.0096,-4.0113,-4.0113,-4.0113,-4.0113,-3.996,-3.9622,-3.9233,-3.8481,-3.7449,-3.6671,-3.591,-3.5115,-3.3326,-3.2158,-3.1769,-2.8434,-2.6048,0.0,0.0,0.0,0.0,0.0,0.0,0.0,0.0,0.0,0.0,0.0,-2.5152,-2.5862,-2.851,-3.05,-3.1272,-3.2233,-3.3311,-3.454,-3.4654,-3.5552,-3.7797,-3.8621,-3.96,-4.1038,-4.222,-4.3191,-4.3909,-4.4718,-4.5136,-4.4934,-4.4924,-4.4697,-4.4133,-4.4791,-4.527,-4.4926,-4.5425,-4.5902,-4.5902,-4.559,-4.5369,-4.5333,-4.5057,-4.4819,-4.4837,-4.4819,-4.4837,-4.4837,-4.4819,-4.469,-4.4268,-4.4176,-4.3993,-4.3802,-4.4296,-4.5049,-4.545,-4.5952,-4.6317,-5.3518,-5.3518,-5.3518,-5.3518,-5.3382,-5.208,-5.1472,-5.1472,-5.1403,-5.0879,-5.0016,-4.8748,-4.7784,-4.709,-4.7073,-4.7073,-4.7073,-4.7073,-4.7073,-4.7073,-4.6989,-4.6583,-4.5991,-4.5788,-4.5365,-4.475,-4.4666,-4.4598,-4.4598,-4.4485,-4.3758,-4.2472,-4.232,-4.1619,-4.0299,-4.0248,-4.0197,-4.0113,-4.0113,-4.0113,-4.0113,-4.0113,-3.974,-3.9039,-3.8802,-3.8058,-3.6688,-3.5893,-3.5143,-3.4527,-3.3275,-3.2293,-3.1613,-3.004,-2.8214,0.0,-2.5269,0.0,0.0,0.0,0.0,0.0,0.0,0.0,0.0,-2.7046,-2.8213,-2.9467,-3.1642,-3.3464,-3.4646,-3.6207,-3.7149,-3.7247,-3.8441,-3.9518,-4.0158,-4.1371,-4.2643,-4.3827,-4.4077,-4.44,-4.4965,-4.514,-4.5395,-4.5571,-4.5572,-4.5277,-4.4933,-4.5238,-4.559,-4.5645,-4.559,-4.5388,-4.5388,-4.4947,-4.4562,-4.4488,-4.4066,-4.3497,-4.3571,-4.3552,-4.3534,-4.3534,-4.3625,-4.3552,-4.3479,-4.3516,-4.3497,-4.3496,-4.3825,-4.4221,-4.4642,-4.5154,-4.5522,-5.3518,-5.3518,-5.3518,-5.3518,-5.3484,-5.3196,-5.3078,-5.3027,-5.2384,-5.1336,-5.0084,-4.9796,-4.9272,-4.8595,-4.8595,-4.8578,-4.8578,-4.8578,-4.8578,-4.8562,-4.797,-4.7648,-4.7398,-4.6261,-4.5635,-4.5466,-4.4874,-4.4598,-4.4581,-4.3944,-4.3504,-4.32,-4.2591,-4.1863,-4.1035,0.0,0.0,0.0,-4.0113,-4.0113,-4.0113,-4.0113,-3.9757,-3.8988,-3.7845,0.0,-3.5876,-3.5115,-3.4641,-3.4489,-3.4218,0.0,0.0,0.0,0.0,0.0,0.0,0.0,0.0,0.0,0.0,0.0,-3.1007,-2.9822,-2.8604,-3.1207,-3.2899,-3.2682,-3.4941,-3.6637,-3.7183,-3.8334,-3.9617,-4.0868,-4.0895,-4.1001,-4.1605,-4.196,-4.2274,-4.2526,-4.3401,-4.4255,-4.4915,-4.5453,-4.548,-4.4931,-4.4929,-4.4618,-4.3906,-4.4454,-4.4672,-4.4103,-4.4084,-4.3993,-4.3956,-4.3864,-4.3809,-4.3698,-4.3643,-4.3479,-4.3479,-4.3479,-4.3479,-4.3479,-4.3479,-4.3479,-4.3479,-4.3479,-4.3479,-4.3479,-4.3756,-4.4117,-4.4514,-4.4919,-4.5263,-5.3518,0.0,-5.3518,-5.3518,0.0,-5.3518,-5.3518,-5.3467,-5.3078,-5.2249,-5.1166,-5.0794,-5.0236,-4.9526,-4.9543,-4.934,-4.9018,-4.9018,-4.9018,-4.8984,-4.8612,-4.8257,-4.7872,-4.7128,-4.6599,-4.621,-4.5483,-4.5145,-4.5094,-4.4367,-4.3792,-4.342,-4.3031,-4.2472,-4.1745,-4.139,-4.0832,-4.0113,-4.0113,-4.0113,-4.0113,-4.0113,-3.9757,-3.9005,-3.7922,0.0,0.0,0.0,0.0,0.0,0.0,0.0,0.0,0.0,0.0,-3.1735,-3.1326,-3.1275,-3.1644,-3.2374,-3.3495,-3.4945,-3.5746,-3.5052,-3.2459,-3.4675,-3.618,-3.6197,-3.8074,-3.9467,-3.9966,-4.0544,-4.1403,-4.2462,-4.21,-4.1997,-4.2548,-4.2687,-4.2814,-4.3156,-4.3695,-4.4095,-4.4062,-4.4286,-4.4103,-4.3417,-4.3254,-4.3278,-4.3196,-4.3669,-4.3901,-4.3552,-4.3479,-4.3479,-4.3479,-4.3479,-4.3479,-4.3479,-4.3479,-4.3479,-4.3479,-4.3479,-4.3479,-4.3479,-4.3479,-4.3479,-4.3479,-4.3479,-4.3479,-4.3496,-4.3629,-4.3865,-4.4252,-4.4732,-4.5129,-5.3518,-5.3518,-5.3518,-5.3518,-5.3518,-5.3518,-5.3518,-5.3518,0.0,0.0,0.0,-5.1674,-5.0997,-5.0304,-5.0287,-4.9881,-4.9204,-4.9187,-4.9137,-4.9018,-4.9018,-4.868,-4.8091,-4.7956,-4.7597,-4.6972,-4.6244,-4.5838,-4.5686,-4.5077,-4.4384,-4.369,-4.3639,-4.325,-4.2489,-4.1762,-4.1102,-4.0519,-4.0231,-4.0113,-4.0113,-4.0113,-3.9757,-3.9005,-3.8294,-3.7246,-3.5853,-3.5233,-3.4624,-3.4049,-3.4134,-3.4134,-3.4032,-3.4692,-3.5047,-3.4945,-3.5723,-3.6242,-3.6394,-3.7127,-3.7591,-3.7591,-3.9266,-3.9225,-3.6749,-3.7889,-3.8937,-3.9554,-4.0815,-4.1733,-4.2108,-4.2372,-4.2634,-4.3003,-4.2611,-4.2482,-4.2846,-4.2928,-4.2944,-4.3418,-4.3397,-4.3368,-4.2732,-4.2912,-4.2774,-4.2239,-4.2374,-4.2257,-4.2677,-4.3233,-4.3552,-4.3497,-4.3479,-4.3479,-4.3479,-4.3479,-4.3479,-4.3479,-4.3479,-4.3479,-4.3479,-4.3479,-4.3479,-4.3479,-4.3479,-4.3479,-4.3479,-4.3479,-4.3479,-4.3479,-4.3496,-4.358,-4.3881,-4.4423,-4.49,-5.3518,-5.3518,-5.3518,-5.3518,-5.3518,-5.3518,-5.3518,-5.3518,-5.3518,-5.3044,-5.23,-5.2198,-5.1758,-5.1033,-5.1065,-5.0642,-4.9949,-4.9932,-4.961,-4.9018,-4.9018,-4.8951,-4.8815,-4.8176,-4.7838,-4.7686,-4.7005,-4.6329,-4.5754,-4.5602,-4.5162,-4.4502,-4.4429,-4.4028,-4.3267,-4.2523,-4.211,-4.1948,-4.0739,-4.0113,-4.0113,-4.0113,-3.9757,-3.9022,-3.8311,-3.7516,-3.6694,-3.6524,-3.644,-3.6338,-3.6941,-3.6992,-3.6406,-3.7009,-3.7144,-3.6626,-3.7753,-3.8785,-3.9394,-4.0155,-4.0595,-4.0595,-4.0882,-4.0832,-4.0493,-4.1187,-4.1711,-4.1847,-4.2557,-4.2855,-4.2419,-4.2831,-4.299,-4.2521,-4.2366,-4.2102,-4.1707,-4.1571,-4.1444,-4.1074,-4.1067,-4.1459,-4.1557,-4.2249,-4.2847,-4.282,-4.3031,-4.3448,-4.3155,-4.3226,-4.3464,-4.3479,-4.3479,-4.3479,-4.3444,-4.3479,-4.3479,-4.3479,-4.3479,-4.3479,-4.3479,-4.3479,-4.3479,-4.3479,-4.3479,-4.3479,-4.3479,-4.3479,-4.3479,-4.3479,-4.3479,-4.3512,-4.3614,-4.394,-4.4387,-5.3518,-5.3518,-5.3518,-5.3518,-5.3518,-5.3518,-5.3518,-5.3518,-5.3518,-5.3298,-5.2976,-5.2959,-5.252,-5.1843,-5.1792,-5.1386,-5.071,-5.071,-5.0304,-4.9627,-4.9593,-4.9373,-4.8984,-4.8615,-4.8494,-4.846,-4.775,-4.7225,-4.6853,-4.6109,-4.5534,-4.5162,-4.4818,-4.4429,-4.4028,-4.3284,-4.2895,-4.2878,-4.183,-4.1111,-4.0696,-4.0696,-4.0341,-3.9605,-3.887,-3.8345,-3.8014,-3.7584,-3.7398,-3.7381,-3.8108,-3.8345,-3.8041,-3.9056,-3.9546,-3.9242,-4.0189,-4.0747,-4.0679,-4.1001,-4.139,-4.1762,-4.1796,-4.1982,-4.2388,-4.232,-4.2455,-4.2861,-4.3234,-4.3115,-4.2405,-4.298,-4.3267,-4.2946,-4.2557,-4.232,-4.2303,-4.1627,-4.1238,-4.128,-4.1495,-4.1663,-4.1663,-4.2204,-4.2565,-4.2607,-4.3173,-4.3629,-4.4,-4.4193,-4.3864,-4.2875,-4.2865,-4.3032,-4.3087,-4.3339,-4.3462,-4.3479,-4.3479,-4.3479,-4.3479,-4.3479,-4.3479,-4.3479,-4.3479,-4.3479,-4.3479,-4.3479,-4.3479,-4.3479,-4.3479,-4.3479,-4.3531,-4.3775,-4.4247,-5.4008,-5.4008,-5.4008,-5.4008,-5.3991,-5.3822,-5.3754,-5.3721,-5.3568,-5.3518,-5.3518,-5.3518,-5.3162,-5.2604,-5.257,-5.2164,-5.1522,-5.1454,-5.1048,-5.0388,-5.0168,-4.9779,-4.9255,-4.9086,-4.9018,-4.8951,-4.8426,-4.8088,-4.78,-4.6722,-4.6024,-4.5669,-4.4959,-4.4598,-4.4598,-4.3978,-4.369,-4.3639,-4.3098,-4.2371,-4.1491,-4.1457,-4.117,-4.062,-3.9884,-3.9478,-3.9445,-3.8785,-3.8396,-3.8413,-3.8937,-3.9242,-3.9309,-4.0476,-4.1204,-4.1271,-4.1897,-4.2134,-4.1762,-4.1711,-4.1948,-4.2489,-4.254,-4.2777,-4.3257,-4.2912,-4.2861,-4.3538,-4.369,-4.3403,-4.2794,-4.3047,-4.3406,-4.3355,-4.2864,-4.2746,-4.3136,-4.2449,-4.1921,-4.23,-4.2428,-4.2473,-4.2383,-4.2581,-4.2996,-4.3391,-4.3644,-4.4302,-4.4993,-4.5108,-4.427,-4.3105,-4.2817,-4.3101,-4.2974,-4.3214,-4.3462,-4.3479,-4.3479,-4.3479,-4.3479,-4.3479,-4.3479,-4.3479,-4.3479,-4.3479,-4.3479,-4.3479,-4.3479,-4.3479,-4.3479,-4.3479,-4.3496,-4.366,-4.4102,-5.548,-5.5513,-5.5428,-5.5478,-5.5378,-5.4769,-5.4499,-5.4397,-5.3805,-5.3518,-5.3551,-5.3518,-5.3467,-5.3399,-5.3382,-5.2926,-5.2232,-5.2215,-5.1809,-5.1082,-5.0405,-5.0067,-4.9932,-4.9323,-4.9018,-4.9018,-4.8917,-4.8528,-4.7986,-4.772,-4.7022,-4.5754,-4.4942,-4.4632,-4.4598,-4.453,-4.4479,-4.4496,-4.4445,-4.3673,-4.2286,-4.2185,-4.2151,-4.2083,-4.1373,-4.1001,-4.0933,-4.0273,-3.991,-3.9893,-3.9994,-4.0028,-4.0113,-4.0798,-4.1238,-4.1288,-4.1931,-4.2523,-4.3115,-4.3189,-4.3166,-4.3284,-4.3206,-4.3284,-4.342,-4.3352,-4.3623,-4.4287,-4.4462,-4.4012,-4.342,-4.3379,-4.3471,-4.3523,-4.3366,-4.3227,-4.3457,-4.3693,-4.3512,-4.2385,-4.2997,-4.3003,-4.2719,-4.3425,-4.4597,-4.5567,-4.5651,-4.5693,-4.5619,-4.5494,-4.5209,-4.4335,-4.4305,-4.4145,-4.365,-4.3427,-4.3479,-4.3479,-4.3479,-4.3479,-4.3479,-4.3479,-4.3479,-4.3479,-4.3479,-4.3479,-4.3479,-4.3479,-4.3479,-4.3479,-4.3479,-4.3479,-4.3496,-4.3529,-4.3868,-5.5681,-5.5681,-5.5681,-5.5681,-5.5631,-5.5378,-5.526,-5.5175,-5.4465,-5.4143,-5.4093,-5.3687,-5.3518,-5.3518,-5.3518,-5.3315,-5.301,-5.3027,-5.2587,-5.1877,-5.1522,-5.1166,-5.071,-4.9999,-4.9644,-4.9576,-4.9221,-4.8818,-4.8545,-4.8139,-4.7348,-4.638,-4.5618,-4.5246,-4.5213,-4.4807,-4.4598,-4.4598,-4.4598,-4.4293,-4.3701,-4.32,-4.2743,-4.232,-4.1999,-4.1847,-4.183,-4.1542,-4.1416,-4.1433,-4.1796,-4.2049,-4.2049,-4.2777,-4.32,-4.3183,-4.3031,-4.3098,-4.3386,-4.3014,-4.2743,-4.276,-4.276,-4.2929,-4.3352,-4.3746,-4.4301,-4.4883,-4.4405,-4.3736,-4.3468,-4.3743,-4.4128,-4.4406,-4.4478,-4.4653,-4.5104,-4.4952,-4.4618,-4.4242,-4.444,-4.4346,-4.3939,-4.4473,-4.5583,-4.6605,-4.671,-4.6491,-4.6876,-4.6755,-4.6388,-4.6049,-4.6044,-4.5388,-4.4181,-4.3595,-4.3536,-4.3497,-4.3479,-4.3479,-4.3497,-4.3479,-4.3479,-4.3479,-4.3479,-4.3479,-4.3479,-4.3479,-4.3479,-4.3479,-4.3479,-4.3479,-4.3479,-4.3479,-4.3662,-5.6325,-5.6308,-5.6308,-5.6325,-5.6292,-5.6105,-5.6021,-5.5902,-5.5226,-5.4888,-5.482,-5.4126,-5.3805,-5.3771,-5.3602,-5.3518,-5.3518,-5.3518,-5.3196,-5.2621,-5.2418,-5.2012,-5.1471,-5.076,-5.0287,-5.0033,-4.9576,-4.9204,-4.8951,-4.8244,-4.7601,-4.7056,-4.6363,-4.6007,-4.5957,-4.5432,-4.5077,-4.4908,-4.4891,-4.479,-4.4564,-4.4045,-4.347,-4.2963,-4.2736,-4.2608,-4.2574,-4.2388,-4.2303,-4.2303,-4.2828,-4.3115,-4.3132,-4.3656,-4.3972,-4.3938,-4.3436,-4.32,-4.3386,-4.3066,-4.2898,-4.2942,-4.3182,-4.3588,-4.398,-4.4578,-4.5165,-4.5593,-4.4829,-4.4294,-4.4237,-4.4631,-4.5185,-4.5765,-4.5878,-4.6122,-4.6545,-4.6271,-4.6046,-4.5828,-4.5626,-4.5597,-4.5276,-4.5647,-4.6483,-4.7345,-4.7259,-4.7154,-4.8015,-4.7881,-4.7561,-4.7441,-4.7241,-4.6358,-4.4795,-4.4437,-4.4141,-4.3846,-4.3864,-4.3809,-4.3589,-4.3497,-4.3479,-4.3479,-4.3479,-4.3479,-4.3479,-4.3479,-4.3479,-4.3479,-4.3479,-4.3479,-4.3479,-4.3479,-4.3479,-5.7797,-5.7763,-5.7763,-5.7712,-5.7712,-5.7036,-5.6765,-5.6714,-5.5987,-5.5683,-5.5581,-5.4871,-5.4549,-5.4448,-5.3839,-5.3534,-5.3518,-5.3518,-5.3467,-5.3315,-5.2672,-5.23,-5.2198,-5.1505,-5.0811,-5.0304,-5.0033,-4.9644,-4.9001,-4.8277,-4.7872,-4.7834,-4.7107,-4.6752,-4.6735,-4.6616,-4.6329,-4.572,-4.5652,-4.5331,-4.4767,-4.4615,-4.453,-4.4395,-4.3758,-4.3358,-4.3301,-4.2675,-4.2337,-4.232,-4.2455,-4.2439,-4.2422,-4.2489,-4.2591,-4.254,-4.2472,-4.2753,-4.3444,-4.3975,-4.4328,-4.4582,-4.5335,-4.5905,-4.5355,-4.5863,-4.6253,-4.6342,-4.6271,-4.6189,-4.6165,-4.6147,-4.6522,-4.7133,-4.7255,-4.7291,-4.7345,-4.7686,-4.7521,-4.6664,-4.6312,-4.6264,-4.627,-4.6892,-4.7428,-4.7995,-4.8172,-4.8191,-4.8191,-4.8248,-4.8175,-4.8029,-4.7571,-4.6819,-4.6012,-4.5462,-4.5205,-4.4929,-4.4599,-4.447,-4.3883,-4.3479,-4.3552,-4.3571,-4.3681,-4.3681,-4.3552,-4.3479,-4.3479,-4.3479,-4.3479,-4.3479,-4.3479,-4.3479,-4.3479,-5.7881,-5.7881,-5.7881,-5.7881,-5.7848,-5.7611,-5.7492,-5.7425,-5.6731,-5.641,-5.6275,-5.5632,-5.504,-5.4583,-5.4313,-5.394,-5.3534,-5.3518,-5.3518,-5.3484,-5.3196,-5.3061,-5.2993,-5.2283,-5.1792,-5.142,-5.0541,-4.9712,-4.9069,-4.8731,-4.8612,-4.8494,-4.7885,-4.7513,-4.7445,-4.7022,-4.665,-4.643,-4.6397,-4.6244,-4.594,-4.5534,-4.5297,-4.5263,-4.4553,-4.4181,-4.4164,-4.3893,-4.3785,-4.3768,-4.3785,-4.3785,-4.3768,-4.3785,-4.3785,-4.3785,-4.3785,-4.4062,-4.4662,-4.4984,-4.5284,-4.573,-4.6119,-4.6342,-4.6257,-4.6641,-4.7044,-4.7088,-4.7409,-4.7596,-4.7533,-4.7281,-4.7281,-4.7838,-4.7975,-4.7955,-4.8015,-4.8153,-4.7957,-4.7194,-4.671,-4.6548,-4.6955,-4.7277,-4.7653,-4.8172,-4.8324,-4.8324,-4.8324,-4.8324,-4.8324,-4.8288,-4.8067,-4.7792,-4.7553,-4.6434,-4.5773,-4.5626,-4.5443,-4.5388,-4.5021,-4.4837,-4.4911,-4.4745,-4.458,-4.4213,-4.4176,-4.3773,-4.3718,-4.3479,-4.3479,-4.3479,-4.3479,-4.3479,-4.3479,-5.7881,-5.7881,-5.7881,-5.7881,-5.7881,-5.7881,-5.7881,-5.7831,-5.7374,-5.7154,-5.7019,-5.6393,-5.5767,-5.531,-5.5074,-5.4549,-5.3856,-5.3636,-5.3518,-5.3518,-5.3518,-5.3518,-5.3416,-5.2942,-5.2536,-5.2147,-5.1065,-5.0084,-4.9424,-4.9357,-4.9238,-4.8968,-4.8494,-4.8244,-4.8142,-4.775,-4.7411,-4.7225,-4.7158,-4.7056,-4.6786,-4.6312,-4.6041,-4.5974,-4.5551,-4.5055,-4.4649,-4.4598,-4.4598,-4.4598,-4.4598,-4.4598,-4.4598,-4.4598,-4.4692,-4.4869,-4.4862,-4.5169,-4.5707,-4.5965,-4.6192,-4.6389,-4.6801,-4.6959,-4.6819,-4.732,-4.7635,-4.7777,-4.8015,-4.8324,-4.823,-4.7917,-4.7877,-4.8229,-4.8324,-4.8324,-4.8324,-4.8305,-4.8015,-4.7491,-4.7237,-4.7216,-4.7345,-4.7572,-4.7877,-4.8267,-4.8324,-4.8324,-4.8324,-4.8324,-4.8324,-4.8324,-4.8306,-4.8233,-4.8086,-4.7352,-4.6654,-4.6452,-4.6287,-4.6269,-4.6104,-4.6049,-4.5993,-4.5865,-4.5553,-4.5112,-4.4672,-4.4232,-4.3901,-4.3644,-4.3479,-4.3479,-4.3479,-4.3479,-4.3608,-5.7881,-5.7881,-5.7881,-5.7881,-5.7881,-5.7881,-5.7881,-5.7865,-5.7831,-5.7763,-5.7645,-5.7103,-5.6731,-5.6562,-5.597,-5.531,-5.4583,-5.394,-5.3585,-5.3518,-5.3518,-5.3518,-5.3501,-5.3416,-5.2976,-5.23,-5.1572,-5.0828,-5.0135,-5.0084,-4.9763,-4.9154,-4.9069,-4.8968,-4.8968,-4.8798,-4.8545,-4.8071,-4.7889,-4.7597,-4.6921,-4.6853,-4.6802,-4.6786,-4.6684,-4.6024,-4.4784,-4.4733,-4.4801,-4.4767,-4.4699,-4.4632,-4.4699,-4.4632,-4.4869,-4.5406,-4.5494,-4.5783,-4.6436,-4.7022,-4.7075,-4.7155,-4.772,-4.817,-4.7916,-4.817,-4.8485,-4.8522,-4.8524,-4.8471,-4.8526,-4.8395,-4.8321,-4.8324,-4.8324,-4.8324,-4.8324,-4.8287,-4.8075,-4.7674,-4.7797,-4.7977,-4.7715,-4.7877,-4.821,-4.8267,-4.8324,-4.8324,-4.8324,-4.8324,-4.8324,-4.8324,-4.8324,-4.8324,-4.8324,-4.8233,-4.7736,-4.7314,-4.7168,-4.7058,-4.6728,-4.6581,-4.6654,-4.6544,-4.6269,-4.5828,-4.5186,-4.4764,-4.4525,-4.425,-4.3956,-4.3864,-4.4048,-4.4195,-4.3975,-5.7881,-5.7881,-5.7881,-5.7881,-5.7881,-5.7881,-5.7881,-5.7881,-5.7881,-5.7881,-5.7831,-5.7645,-5.7273,-5.685,-5.6545,-5.6072,-5.5327,-5.4583,-5.3991,-5.3619,-5.3518,-5.3518,-5.3518,-5.3518,-5.3078,-5.2401,-5.208,-5.1572,-5.098,-5.0879,-5.049,-4.9898,-4.9746,-4.9475,-4.9069,-4.9001,-4.8849,-4.8714,-4.8632,-4.8511,-4.8274,-4.7817,-4.7581,-4.7513,-4.7073,-4.6532,-4.6172,-4.6109,-4.6109,-4.6104,-4.5618,-4.5348,-4.528,-4.4886,-4.5152,-4.6038,-4.5771,-4.6312,-4.7683,-4.8105,-4.8619,-4.9222,-4.9797,-4.9915,-4.9793,-4.9819,-4.9976,-4.9976,-5.0031,-5.0031,-4.9939,-4.9481,-4.9003,-4.8379,-4.8324,-4.8324,-4.8324,-4.8324,-4.8229,-4.8094,-4.8191,-4.8191,-4.8094,-4.8267,-4.8287,-4.8324,-4.8324,-4.8324,-4.8324,-4.8324,-4.8324,-4.8324,-4.8324,-4.8324,-4.8324,-4.8324,-4.8067,-4.781,-4.7718,-4.7645,-4.7352,-4.7205,-4.726,-4.7205,-4.6929,-4.6471,-4.5828,-4.5443,-4.5259,-4.5168,-4.5094,-4.5094,-4.5131,-4.5002,-4.4745,-5.7881,-5.7881,-5.7881,-5.7881,-5.7881,-5.7881,-5.7881,-5.7881,-5.7881,-5.7881,-5.7881,-5.7881,-5.7645,-5.7273,-5.7205,-5.6799,-5.6105,-5.5598,-5.5023,-5.4279,-5.367,-5.3518,-5.3518,-5.3518,-5.3281,-5.2841,-5.2739,-5.235,-5.1624,-5.1589,-5.1234,-5.0608,-5.0507,-5.0135,-4.9475,-4.939,-4.9306,-4.9069,-4.9001,-4.9001,-4.8917,-4.8562,-4.8294,-4.824,-4.7868,-4.7631,-4.7614,-4.7614,-4.7344,-4.6853,-4.6329,-4.6109,-4.6058,-4.5715,-4.5908,-4.6685,-4.6986,-4.7442,-4.8821,-4.9282,-4.9734,-5.0631,-5.082,-5.0802,-5.0802,-5.082,-5.082,-5.082,-5.0765,-5.082,-5.071,-5.038,-4.9793,-4.9315,-4.8635,-4.8379,-4.8324,-4.8324,-4.8305,-4.8267,-4.8305,-4.8324,-4.8324,-4.8324,-4.8324,-4.8324,-4.8324,-4.8324,-4.8324,-4.8324,-4.8324,-4.8324,-4.8324,-4.8324,-4.8324,-4.8324,-4.8324,-4.8251,-4.8196,-4.8122,-4.7957,-4.7921,-4.7957,-4.7865,-4.7664,-4.7204,-4.6599,-4.6397,-4.6232,-4.6232,-4.6049,-4.5755,-4.5553,-4.5645,-4.5498,-5.7881,-5.7881,-5.7881,-5.7881,-5.7881,-5.7881,-5.7881,-5.7881,-5.7881,-5.7881,-5.7881,-5.7881,-5.7865,-5.7848,-5.7763,-5.7425,-5.6934,-5.6664,-5.6258,-5.5446,-5.4482,-5.3771,-5.3551,-5.3518,-5.345,-5.3416,-5.3399,-5.3061,-5.2418,-5.2367,-5.1995,-5.1352,-5.1251,-5.0913,-5.027,-5.0118,-4.9729,-4.9255,-4.9069,-4.9018,-4.9018,-4.8968,-4.8951,-4.8934,-4.8866,-4.8832,-4.8781,-4.8748,-4.8223,-4.709,-4.6887,-4.6853,-4.6853,-4.6819,-4.6965,-4.7672,-4.8398,-4.8959,-4.9699,-5.0393,-5.0888,-5.1149,-5.1206,-5.0949,-5.1169,-5.1279,-5.1261,-5.1224,-5.1169,-5.1114,-5.1114,-5.0912,-5.0802,-5.0582,-4.9517,-4.8783,-4.8526,-4.86,-4.8691,-4.8545,-4.8416,-4.8361,-4.8379,-4.8324,-4.8324,-4.8324,-4.8324,-4.8324,-4.8324,-4.8324,-4.8324,-4.8324,-4.8324,-4.8324,-4.8324,-4.8324,-4.8324,-4.8324,-4.8324,-4.8324,-4.8324,-4.8324,-4.8324,-4.8269,-4.8196,-4.7755,-4.7498,-4.7259,-4.7003,-4.6783,-4.6489,-4.6085,-4.6159,-4.6434,-4.6507,-5.7881,-5.7881,-5.7881,-5.7881,-5.7881,-5.7881,-5.7881,-5.7881,-5.7881,-5.7881,-5.7881,-5.7881,-5.7881,-5.7881,-5.7881,-5.7763,-5.7492,-5.7053,-5.6748,-5.641,-5.5598,-5.4482,-5.3704,-5.3518,-5.3518,-5.3518,-5.3501,-5.3399,-5.3196,-5.3129,-5.2756,-5.2046,-5.2012,-5.1657,-5.098,-5.0422,-5.0016,-4.9746,-4.9255,-4.9035,-4.9035,-4.9018,-4.9018,-4.9018,-4.9018,-4.9018,-4.9018,-4.9018,-4.8612,-4.775,-4.7614,-4.7601,-4.7581,-4.7175,-4.7396,-4.8374,-4.8757,-4.9363,-5.0461,-5.1277,-5.1919,-5.2527,-5.2399,-5.2582,-5.2582,-5.2543,-5.2564,-5.2561,-5.2582,-5.2506,-5.2435,-5.2013,-5.1499,-5.0857,-5.0417,-5.0105,-5.0031,-5.0141,-4.9939,-4.9389,-4.9262,-4.8985,-4.8636,-4.8471,-4.8471,-4.8471,-4.8489,-4.8489,-4.8655,-4.86,-4.8728,-4.8416,-4.8343,-4.8324,-4.8324,-4.8324,-4.8324,-4.8324,-4.8324,-4.8324,-4.8324,-4.8324,-4.8324,-4.8306,-4.8288,-4.7975,-4.803,-4.7994,-4.77,-4.7333,-4.7407,-4.7278,-4.7535,-4.7774,-4.7701,-5.7881,-5.7881,-5.7881,-5.7881,-5.7881,-5.7881,-5.7881,-5.7881,-5.7881,-5.7881,-5.7881,-5.7881,-5.7881,-5.7881,-5.7881,-5.7881,-5.7814,-5.7459,-5.7289,-5.7137,-5.6478,-5.5361,-5.4296,-5.3957,-5.3805,-5.3518,-5.3518,-5.3501,-5.3484,-5.3518,-5.323,-5.2892,-5.2807,-5.2401,-5.1691,-5.1285,-5.0828,-5.049,-4.9864,-4.9475,-4.9458,-4.9154,-4.9018,-4.9018,-4.9018,-4.9018,-4.9032,-4.9273,-4.9095,-4.8534,-4.8376,-4.8376,-4.8342,-4.7986,-4.8226,-4.9227,-4.9583,-5.0289,-5.1254,-5.2098,-5.269,-5.3075,-5.3185,-5.3185,-5.3148,-5.3185,-5.3185,-5.313,-5.3185,-5.3185,-5.3133,-5.2766,-5.2325,-5.1977,-5.1811,-5.1497,-5.093,-5.0747,-5.06,-5.0251,-5.0068,-4.9958,-4.9389,-4.9334,-4.9334,-4.9389,-4.9517,-4.9499,-4.9481,-4.9334,-4.9242,-4.9114,-4.8893,-4.893,-4.8802,-4.8728,-4.8636,-4.86,-4.8673,-4.86,-4.8526,-4.8489,-4.8324,-4.8324,-4.8324,-4.8324,-4.8324,-4.8324,-4.8159,-4.8012,-4.8288,-4.8324,-4.8324,-4.8383,-4.8383,-5.7881,-5.7881,-5.7881,-5.7881,-5.7881,-5.7881,-5.7881,-5.7881,-5.7881,-5.7881,-5.7881,-5.7881,-5.7881,-5.7881,-5.7881,-5.7881,-5.7881,-5.7797,-5.7814,-5.7611,-5.712,-5.619,-5.5057,-5.4566,-5.4211,-5.3771,-5.3585,-5.3518,-5.3518,-5.3518,-5.3518,-5.3382,-5.3416,-5.3112,-5.2486,-5.2266,-5.1928,-5.1302,-5.0591,-5.0236,-5.0135,-4.9779,-4.956,-4.9523,-4.9501,-4.926,-4.9263,-4.9521,-4.9629,-4.9015,-4.9046,-4.904,-4.9026,-4.8981,-4.9321,-4.9975,-5.0603,-5.1383,-5.2035,-5.2641,-5.3151,-5.3185,-5.3185,-5.3185,-5.3185,-5.3185,-5.3185,-5.3185,-5.3185,-5.3185,-5.3185,-5.3148,-5.3057,-5.2892,-5.3041,-5.2454,-5.1499,-5.1059,-5.1022,-5.093,-5.093,-5.0912,-5.082,-5.082,-5.0747,-5.0123,-5.0233,-5.0196,-5.0196,-5.016,-5.0215,-5.0325,-5.005,-4.9721,-4.9462,-4.9187,-4.9077,-4.9003,-4.915,-4.915,-4.9003,-4.8857,-4.8489,-4.8324,-4.8324,-4.8324,-4.8324,-4.8324,-4.8324,-4.8324,-4.8324,-4.8324,-4.8325,-4.8477,-4.8532,-5.7881,-5.7881,-5.7881,-5.7881,-5.7881,-5.7881,-5.7881,-5.7881,-5.7881,-5.7881,-5.7881,-5.7881,-5.7881,-5.7881,-5.7881,-5.7881,-5.7881,-5.7881,-5.7881,-5.7848,-5.778,-5.7188,-5.6173,-5.5294,-5.4549,-5.4228,-5.3737,-5.3534,-5.3518,-5.3518,-5.3518,-5.3518,-5.3501,-5.3433,-5.3196,-5.2621,-5.2266,-5.1961,-5.1352,-5.0997,-5.0963,-5.0777,-5.0608,-5.0589,-5.0672,-5.006,-4.9345,-4.9634,-4.9634,-4.9316,-4.956,-4.9865,-4.932,-4.9492,-4.985,-5.0307,-5.1223,-5.1928,-5.2201,-5.2769,-5.3185,-5.3185,-5.3185,-5.3185,-5.3185,-5.3185,-5.3185,-5.3185,-5.3185,-5.3185,-5.3185,-5.3185,-5.3185,-5.3185,-5.3185,-5.3078,-5.2766,-5.2637,-5.2307,-5.1922,-5.1738,-5.1536,-5.0967,-5.0986,-5.0949,-5.0857,-5.0875,-5.0857,-5.093,-5.1041,-5.1151,-5.1334,-5.0894,-5.0565,-5.0362,-5.005,-4.9774,-4.9646,-4.9719,-4.9774,-4.9627,-4.9297,-4.8967,-4.8618,-4.8324,-4.8324,-4.8324,-4.8324,-4.8324,-4.8324,-4.8324,-4.8363,-4.842,-4.8568,-4.8863,-5.7881,-5.7881,-5.7881,-5.7881,-5.7881,-5.7881,-5.7881,-5.7881,-5.7881,-5.7881,-5.7881,-5.7881,-5.7881,-5.7881,-5.7881,-5.7881,-5.7881,-5.7881,-5.7881,-5.7881,-5.7865,-5.7662,-5.7239,-5.6173,-5.5361,-5.4702,-5.4228,-5.389,-5.3602,-5.3518,-5.3518,-5.3518,-5.3518,-5.3501,-5.3501,-5.3044,-5.2926,-5.2723,-5.2131,-5.1725,-5.1708,-5.1386,-5.1234,-5.1344,-5.151,-5.1184,-5.0258,-5.1507,-5.1479,-5.1124,-5.15,-5.1245,-4.9813,-4.9821,-5.0269,-5.1068,-5.1551,-5.2294,-5.2621,-5.2937,-5.3185,-5.3185,-5.3185,-5.3185,-5.3185,-5.3185,-5.3185,-5.3185,-5.3185,-5.3185,-5.3185,-5.3185,-5.3185,-5.3185,-5.3185,-5.3185,-5.3185,-5.3185,-5.3075,-5.2656,-5.2564,-5.2399,-5.2087,-5.1738,-5.1848,-5.2068,-5.2105,-5.2087,-5.2179,-5.2252,-5.2179,-5.2123,-5.1665,-5.1353,-5.1261,-5.0986,-5.06,-5.0453,-5.0417,-5.0435,-5.038,-4.9958,-4.9499,-4.9169,-4.8857,-4.8361,-4.8324,-4.8324,-4.838,-4.8325,-4.8363,-4.842,-4.8587,-4.8853,-4.9227,-5.7881,-5.7881,-5.7881,-5.7881,-5.7881,-5.7881,-5.7881,-5.7881,-5.7881,-5.7881,-5.7881,-5.7881,-5.7881,-5.7881,-5.7881,-5.7881,-5.7881,-5.7881,-5.7881,-5.7881,-5.7881,-5.7831,-5.7594,-5.707,-5.6258,-5.5023,-5.4617,-5.4211,-5.3839,-5.3568,-5.3518,-5.3518,-5.3518,-5.3518,-5.3501,-5.3501,-5.3416,-5.3281,-5.2807,-5.2486,-5.2452,-5.1995,-5.1742,-5.1566,-5.2142,-5.2132,-5.1808,-5.2786,-5.3629,-5.2741,-5.3762,-5.2953,-5.1534,-5.0767,-5.1122,-5.2474,-5.2767,-5.309,-5.3324,-5.3421,-5.3405,-5.3259,-5.3185,-5.3185,-5.3185,-5.3185,-5.3185,-5.3185,-5.3185,-5.3185,-5.3185,-5.3185,-5.3185,-5.3185,-5.3185,-5.3185,-5.3185,-5.3185,-5.313,-5.313,-5.2983,-5.2818,-5.2892,-5.2782,-5.302,-5.3185,-5.3185,-5.3185,-5.3185,-5.3148,-5.2892,-5.2821,-5.238,-5.2215,-5.2123,-5.2013,-5.161,-5.1444,-5.1316,-5.1316,-5.1261,-5.0912,-5.0508,-4.9866,-4.9444,-4.9003,-4.875,-4.8882,-4.8826,-4.853,-4.8808,-4.9295,-4.9355,-4.9267,-4.9675,-5.7881,-5.7881,-5.7881,-5.7881,-5.7881,-5.7881,-5.7881,-5.7881,-5.7881,-5.7881,-5.7881,-5.7881,-5.7881,-5.7881,-5.7881,-5.7881,-5.7881,-5.7881,-5.7881,-5.7881,-5.7881,-5.7881,-5.7814,-5.7679,-5.7137,-5.6308,-5.5395,-5.4651,-5.4245,-5.3856,-5.3534,-5.3518,-5.3518,-5.3518,-5.3518,-5.3518,-5.3518,-5.3518,-5.3281,-5.3179,-5.3112,-5.2993,-5.2655,-5.2297,-5.2846,-5.2879,-5.2587,-5.306,-5.3486,-5.335,-5.3584,-5.3742,-5.3667,-5.369,-5.3814,-5.4032,-5.4433,-5.4484,-5.4268,-5.4197,-5.3849,-5.3405,-5.335,-5.3314,-5.3295,-5.3295,-5.3479,-5.3427,-5.339,-5.3277,-5.3203,-5.3387,-5.3261,-5.3222,-5.3259,-5.3222,-5.3203,-5.3185,-5.3185,-5.3185,-5.3185,-5.3185,-5.3185,-5.3185,-5.3185,-5.3185,-5.3185,-5.3185,-5.3185,-5.3185,-5.3112,-5.3093,-5.3078,-5.3023,-5.2983,-5.2892,-5.2708,-5.2561,-5.247,-5.2451,-5.2362,-5.205,-5.1573,-5.1004,-5.0437,-5.0016,-4.9802,-4.9677,-4.958,-4.9466,-4.9886,-5.0363,-5.0451,-5.0522,-5.0624,-5.7881,-5.7881,-5.7881,-5.7881,-5.7881,-5.7881,-5.7881,-5.7881,-5.7881,-5.7881,-5.7881,-5.7881,-5.7881,-5.7881,-5.7881,-5.7881,-5.7881,-5.7881,-5.7881,-5.7881,-5.7881,-5.7881,-5.7881,-5.7881,-5.7695,-5.7137,-5.6258,-5.5243,-5.46,-5.3856,-5.3568,-5.3518,-5.3518,-5.3518,-5.3518,-5.3518,-5.3518,-5.3518,-5.3518,-5.3518,-5.3518,-5.3518,-5.323,-5.3226,-5.3555,-5.3783,-5.3861,-5.4709,-5.5231,-5.5275,-5.5284,-5.5466,-5.562,-5.5699,-5.5552,-5.5278,-5.5473,-5.5482,-5.5097,-5.5005,-5.4821,-5.4564,-5.4418,-5.4454,-5.4436,-5.4509,-5.4344,-5.4399,-5.4399,-5.4252,-5.3922,-5.4161,-5.4032,-5.3463,-5.3537,-5.3592,-5.3335,-5.3222,-5.3222,-5.3222,-5.3185,-5.3185,-5.3185,-5.3185,-5.3185,-5.3185,-5.3185,-5.3185,-5.3185,-5.3185,-5.3185,-5.3185,-5.3206,-5.3185,-5.3185,-5.3185,-5.3185,-5.3185,-5.3185,-5.3185,-5.3112,-5.2674,-5.2527,-5.2252,-5.1685,-5.0934,-5.0805,-5.0672,-5.0546,-5.0534,-5.102,-5.1441,-5.1659,-5.1813,-5.1845,-5.7881,-5.7881,-5.7881,-5.7881,-5.7881,-5.7881,-5.7881,-5.7881,-5.7881,-5.7881,-5.7881,-5.7881,-5.7881,-5.7881,-5.7881,-5.7881,-5.7881,-5.7881,-5.7881,-5.7881,-5.7881,-5.7881,-5.7881,-5.7881,-5.7831,-5.7662,-5.6985,-5.6122,-5.5006,-5.4177,-5.3721,-5.3551,-5.3518,-5.3518,-5.3518,-5.3518,-5.3518,-5.3518,-5.3518,-5.3518,-5.3518,-5.3518,-5.3518,-5.3501,-5.4074,-5.4336,-5.4522,-5.5318,-5.6035,-5.6259,-5.6437,-5.6544,-5.6632,-5.6799,-5.6543,-5.6017,-5.5998,-5.6014,-5.5849,-5.5831,-5.5702,-5.5354,-5.5519,-5.5556,-5.55,-5.5335,-5.5464,-5.5614,-5.55,-5.5244,-5.4785,-5.517,-5.4895,-5.4344,-5.4271,-5.4381,-5.3812,-5.3515,-5.3387,-5.335,-5.324,-5.3222,-5.324,-5.3185,-5.3185,-5.3185,-5.3185,-5.3185,-5.3185,-5.3185,-5.3185,-5.3185,-5.3185,-5.3185,-5.3185,-5.3185,-5.3185,-5.3185,-5.3185,-5.3185,-5.3185,-5.3075,-5.2983,-5.2818,-5.2417,-5.1746,-5.1714,-5.1697,-5.1662,-5.1801,-5.2229,-5.2522,-5.2696,-5.2696,-5.2669,-5.7881,-5.7865,-5.7881,-5.7881,-5.7881,-5.7881,-5.7881,-5.7881,-5.7881,-5.7881,-5.7881,-5.7881,-5.7881,-5.7881,-5.7881,-5.7881,-5.7881,-5.7881,-5.7881,-5.7881,-5.7881,-5.7881,-5.7881,-5.7881,-5.7881,-5.7797,-5.7205,-5.6393,-5.5581,-5.4837,-5.4126,-5.3721,-5.3636,-5.3518,-5.3518,-5.3518,-5.3518,-5.3518,-5.3518,-5.3518,-5.3518,-5.3518,-5.3518,-5.3534,-5.3668,-5.4027,-5.4482,-5.5059,-5.5338,-5.5893,-5.5893,-5.5865,-5.5948,-5.6545,-5.6825,-5.6992,-5.7218,-5.7409,-5.6804,-5.6657,-5.6436,-5.6051,-5.5812,-5.5647,-5.5871,-5.5868,-5.5849,-5.5614,-5.5684,-5.5684,-5.5537,-5.5611,-5.5486,-5.5335,-5.5225,-5.5005,-5.4491,-5.4252,-5.4069,-5.3739,-5.372,-5.346,-5.3332,-5.3259,-5.3185,-5.3185,-5.3185,-5.3185,-5.3185,-5.3185,-5.3185,-5.3185,-5.3185,-5.3185,-5.3185,-5.3185,-5.3185,-5.3185,-5.3185,-5.3185,-5.3185,-5.3185,-5.3185,-5.2965,-5.2635,-5.2565,-5.2531,-5.2566,-5.2704,-5.3048,-5.3447,-5.3588,-5.3664,-5.3625,-5.3506,-5.69,-5.7306,-5.7712,-5.7881,-5.7881,-5.7881,-5.7881,-5.7881,-5.7881,-5.7881,-5.7881,-5.7881,-5.7881,-5.7881,-5.7881,-5.7881,-5.7881,-5.7881,-5.7881,-5.7881,-5.7881,-5.7881,-5.7881,-5.7881,-5.7881,-5.7797,-5.7543,-5.7087,-5.6325,-5.5598,-5.4837,-5.4211,-5.4059,-5.389,-5.3619,-5.3518,-5.3518,-5.3518,-5.3518,-5.3518,-5.3518,-5.3518,-5.3518,-5.3518,-5.3518,-5.3913,-5.4374,-5.462,-5.4969,-5.5535,-5.5706,-5.5706,-5.5893,-5.6394,-5.6894,-5.6946,-5.7552,-5.7772,-5.7538,-5.7464,-5.7189,-5.7079,-5.6895,-5.7024,-5.6973,-5.6877,-5.6877,-5.6969,-5.6969,-5.6748,-5.6492,-5.673,-5.6271,-5.6069,-5.6106,-5.5721,-5.5335,-5.517,-5.4913,-5.4528,-5.4161,-5.4014,-5.3794,-5.3628,-5.3463,-5.3185,-5.3185,-5.3185,-5.3185,-5.3185,-5.3185,-5.3185,-5.3185,-5.3185,-5.3185,-5.3185,-5.3185,-5.3185,-5.3185,-5.3185,-5.3185,-5.3185,-5.3185,-5.3185,-5.2983,-5.3016,-5.3182,-5.3442,-5.3575,-5.409,-5.4656,-5.4448,-5.4264,-5.4425,-5.4296,-5.5767,-5.6325,-5.7239,-5.7628,-5.7645,-5.778,-5.7881,-5.7881,-5.7881,-5.7881,-5.7881,-5.7881,-5.7881,-5.7881,-5.7881,-5.7881,-5.7881,-5.7881,-5.7881,-5.7881,-5.7881,-5.7881,-5.7881,-5.7881,-5.7881,-5.7881,-5.7814,-5.7526,-5.7103,-5.6511,-5.5852,-5.4905,-5.4566,-5.4313,-5.389,-5.3619,-5.3518,-5.3518,-5.3518,-5.3518,-5.3518,-5.3518,-5.3518,-5.3518,-5.3568,-5.375,-5.4249,-5.4296,-5.4637,-5.522,-5.535,-5.5408,-5.5752,-5.6421,-5.6843,-5.704,-5.7589,-5.796,-5.7886,-5.7868,-5.7978,-5.7978,-5.7978,-5.7758,-5.7831,-5.7978,-5.796,-5.7795,-5.7813,-5.7538,-5.7391,-5.7629,-5.7281,-5.6914,-5.6804,-5.6436,-5.6124,-5.5959,-5.5629,-5.5133,-5.4858,-5.4785,-5.4546,-5.4179,-5.3812,-5.3314,-5.3185,-5.3203,-5.3185,-5.3185,-5.3185,-5.3185,-5.3185,-5.3185,-5.3185,-5.3185,-5.3185,-5.3185,-5.3185,-5.3185,-5.3185,-5.3185,-5.3185,-5.3185,-5.3185,-5.3222,-5.3228,-5.3847,-5.4417,-5.4518,-5.4632,-5.4756,-5.4781,-5.4905,-5.4857,-5.4685,-5.4854,-5.6275,-5.685,-5.6917,-5.7611,-5.7848,-5.7797,-5.7848,-5.7881,-5.7881,-5.7881,-5.7881,-5.7881,-5.7881,-5.7881,-5.7881,-5.7881,-5.7881,-5.7881,-5.7881,-5.7881,-5.7881,-5.7881,-5.7881,-5.7881,-5.7881,-5.7848,-5.7763,-5.7492,-5.6697,-5.5767,-5.5294,-5.4786,-5.4262,-5.3788,-5.3534,-5.3518,-5.3518,-5.3518,-5.3518,-5.3518,-5.3518,-5.3518,-5.3518,-5.3534,-5.3584,-5.375,-5.4074,-5.4818,-5.5102,-5.5396,-5.5994,-5.665,-5.704,-5.7234,-5.7637,-5.7955,-5.7978,-5.7978,-5.7978,-5.7978,-5.7978,-5.7978,-5.7978,-5.7978,-5.7978,-5.7978,-5.7978,-5.7941,-5.785,-5.7905,-5.7721,-5.7629,-5.7391,-5.7189,-5.6932,-5.6785,-5.6418,-5.5794,-5.5556,-5.5537,-5.5335,-5.4987,-5.4528,-5.4069,-5.3515,-5.3515,-5.324,-5.3185,-5.3185,-5.3185,-5.3185,-5.3185,-5.3185,-5.3185,-5.3185,-5.3185,-5.3185,-5.3185,-5.3185,-5.3185,-5.3185,-5.3185,-5.3185,-5.323,-5.3274,-5.3643,-5.4014,-5.4355,-5.4563,-5.4655,-5.4621,-5.4591,-5.464,-5.3923,-5.4025,-5.5023,-5.5716,-5.619,-5.6917,-5.7222,-5.7306,-5.7679,-5.7881,-5.7881,-5.7881,-5.7881,-5.7881,-5.7881,-5.7881,-5.7881,-5.7881,-5.7881,-5.7881,-5.7881,-5.7881,-5.7881,-5.7881,-5.7881,-5.7881,-5.7881,-5.7881,-5.7865,-5.7881,-5.7695,-5.6934,-5.6207,-5.5361,-5.4718,-5.3991,-5.3636,-5.3534,-5.3518,-5.3518,-5.3518,-5.3518,-5.3518,-5.3518,-5.3518,-5.3518,-5.3584,-5.3994,-5.4296,-5.4757,-5.5483,-5.6012,-5.6438,-5.7141,-5.7449,-5.7498,-5.7844,-5.7955,-5.7978,-5.7978,-5.7978,-5.7978,-5.7978,-5.7978,-5.7978,-5.7978,-5.7978,-5.7978,-5.7978,-5.7978,-5.7978,-5.7978,-5.7923,-5.7978,-5.7905,-5.774,-5.7611,-5.7391,-5.7281,-5.6712,-5.6455,-5.6345,-5.6106,-5.5831,-5.5335,-5.484,-5.4289,-5.383,-5.3607,-5.335,-5.3387,-5.3295,-5.3277,-5.3203,-5.3185,-5.3185,-5.3185,-5.3185,-5.3185,-5.3185,-5.3185,-5.3185,-5.3185,-5.3185,-5.3185,-5.3206,-5.3272,-5.3339,-5.3603,-5.3961,-5.4274,-5.4503,-5.442,-5.4385,-5.4591,-5.3518,-5.3568,-5.4042,-5.4702,-5.5429,-5.6173,-5.6478,-5.6613,-5.7239,-5.7712,-5.7865,-5.7881,-5.7881,-5.7881,-5.7881,-5.7881,-5.7881,-5.7881,-5.7881,-5.7881,-5.7881,-5.7881,-5.7881,-5.7881,-5.7881,-5.7881,-5.7881,-5.7881,-5.7881,-5.7881,-5.7797,-5.7628,-5.7357,-5.6393,-5.5412,-5.4313,-5.3839,-5.3822,-5.3585,-5.3518,-5.3518,-5.3518,-5.3518,-5.3518,-5.3518,-5.3701,-5.3913,-5.4328,-5.4848,-5.5483,-5.6204,-5.6894,-5.7309,-5.7637,-5.7932,-5.7978,-5.7978,-5.7978,-5.7978,-5.7978,-5.7978,-5.7978,-5.7978,-5.7978,-5.7978,-5.7978,-5.7978,-5.7978,-5.7978,-5.7978,-5.7978,-5.7978,-5.7978,-5.7978,-5.7978,-5.7868,-5.7868,-5.7758,-5.7813,-5.7666,-5.7428,-5.7134,-5.7042,-5.6748,-5.6088,-5.5574,-5.5042,-5.4638,-5.4436,-5.4124,-5.3757,-5.3607,-5.3405,-5.3295,-5.3185,-5.3222,-5.324,-5.3185,-5.3185,-5.3185,-5.3185,-5.3185,-5.3185,-5.3185,-5.3185,-5.3185,-5.323,-5.3295,-5.3402,-5.3546,-5.3924,-5.4307,-5.4731,-5.4771,-5.5002,-5.3518,-5.3518,-5.3551,-5.3974,-5.4685,-5.5429,-5.575,-5.5835,-5.6494,-5.7137,-5.7611,-5.7679,-5.7746,-5.7746,-5.7695,-5.7763,-5.7881,-5.7881,-5.7881,-5.7881,-5.7881,-5.7881,-5.7881,-5.7881,-5.7881,-5.7881,-5.7881,-5.7881,-5.7881,-5.7881,-5.7881,-5.7881,-5.7679,-5.7289,-5.6613,-5.5277,-5.4617,-5.4482,-5.3923,-5.3687,-5.3636,-5.3602,-5.3501,-5.3701,-5.3701,-5.3946,-5.4513,-5.4896,-5.5512,-5.6358,-5.6773,-5.7327,-5.7792,-5.7886,-5.7978,-5.7978,-5.7978,-5.7978,-5.7978,-5.7978,-5.7978,-5.7978,-5.7978,-5.7978,-5.7978,-5.7978,-5.7978,-5.7978,-5.7978,-5.7978,-5.7978,-5.7978,-5.7978,-5.7978,-5.7978,-5.7978,-5.7978,-5.7978,-5.7978,-5.7978,-5.7978,-5.7923,-5.7905,-5.7685,-5.6932,-5.6326,-5.5776,-5.5427,-5.5188,-5.4876,-5.4436,-5.4308,-5.4106,-5.4014,-5.3922,-5.3463,-5.3316,-5.324,-5.3185,-5.3185,-5.3185,-5.3185,-5.3185,-5.3203,-5.3185,-5.3185,-5.3206,-5.3227,-5.3484,-5.3739,-5.3814,-5.417,-5.4697,-5.5147,-5.5331,-5.3518,-5.3518,-5.3518,-5.3653,-5.3974,-5.4651,-5.4972,-5.5108,-5.5716,-5.6224,-5.641,-5.6444,-5.6765,-5.7019,-5.7222,-5.7408,-5.7814,-5.7881,-5.7881,-5.7881,-5.7881,-5.7881,-5.7881,-5.7881,-5.7881,-5.7881,-5.7881,-5.7881,-5.7881,-5.7881,-5.7881,-5.7881,-5.7831,-5.7476,-5.6748,-5.5818,-5.5344,-5.5209,-5.4685,-5.4228,-5.416,-5.3839,-5.3767,-5.4203,-5.4249,-5.4606,-5.5291,-5.5685,-5.6331,-5.6964,-5.7277,-5.7703,-5.7973,-5.7978,-5.7978,-5.7978,-5.7978,-5.7978,-5.7978,-5.7978,-5.7978,-5.7978,-5.7978,-5.7978,-5.7978,-5.7978,-5.7978,-5.7978,-5.7978,-5.7978,-5.7978,-5.7978,-5.7978,-5.7978,-5.7978,-5.7978,-5.7978,-5.7978,-5.7978,-5.7978,-5.7978,-5.7978,-5.7978,-5.7978,-5.7409,-5.7116,-5.6638,-5.6069,-5.5739,-5.5519,-5.5188,-5.5188,-5.5078,-5.4932,-5.4711,-5.4252,-5.4014,-5.4032,-5.3628,-5.3185,-5.3185,-5.3405,-5.3295,-5.339,-5.3277,-5.3206,-5.3316,-5.3444,-5.3777,-5.3996,-5.4153,-5.4401,-5.4919,-5.5319,-5.5546,-5.3518,-5.3518,-5.3518,-5.3518,-5.3568,-5.4008,-5.4329,-5.4634,-5.5124,-5.5463,-5.5664,-5.575,-5.597,-5.6342,-5.6494,-5.6833,-5.7459,-5.7509,-5.7797,-5.7814,-5.7881,-5.7881,-5.7881,-5.7831,-5.7881,-5.7865,-5.7865,-5.7881,-5.7881,-5.7881,-5.7881,-5.7881,-5.7865,-5.7645,-5.7087,-5.6562,-5.6089,-5.5886,-5.5412,-5.4975,-5.4838,-5.4694,-5.4557,-5.4861,-5.5072,-5.532,-5.6022,-5.6589,-5.7015,-5.7327,-5.7679,-5.7978,-5.7978,-5.7978,-5.7978,-5.7978,-5.7978,-5.7978,-5.7978,-5.7978,-5.7978,-5.7978,-5.7978,-5.7978,-5.7978,-5.7978,-5.7978,-5.7978,-5.7978,-5.7978,-5.7978,-5.7978,-5.7978,-5.7978,-5.7978,-5.7978,-5.7978,-5.7978,-5.7978,-5.7978,-5.7978,-5.7978,-5.7978,-5.7978,-5.7813,-5.7666,-5.7519,-5.6914,-5.6363,-5.6161,-5.6014,-5.5978,-5.5798,-5.5522,-5.5299,-5.506,-5.4858,-5.4803,-5.4363,-5.383,-5.3904,-5.4216,-5.3885,-5.3537,-5.3424,-5.3401,-5.3522,-5.3739,-5.4251,-5.4514,-5.4621,-5.4905,-5.5256,-5.5477,-5.5673,-5.3518,-5.3518,-5.3518,-5.3518,-5.3518,-5.3568,-5.394,-5.4515,-5.4549,-5.4955,-5.5564,-5.5463,-5.553,-5.5649,-5.5647,-5.6105,-5.6647,-5.6765,-5.7087,-5.7459,-5.7425,-5.7543,-5.756,-5.756,-5.7408,-5.7594,-5.7628,-5.7408,-5.7763,-5.7881,-5.7881,-5.7881,-5.7881,-5.778,-5.7509,-5.7205,-5.685,-5.6647,-5.6175,-5.5877,-5.5886,-5.5611,-5.5623,-5.5824,-5.5932,-5.6204,-5.6703,-5.7065,-5.7401,-5.7703,-5.7978,-5.7978,-5.7978,-5.7978,-5.7978,-5.7978,-5.7978,-5.7978,-5.7978,-5.7978,-5.7978,-5.7978,-5.7978,-5.7978,-5.7978,-5.7978,-5.7978,-5.7978,-5.7978,-5.7978,-5.7978,-5.7978,-5.7978,-5.7978,-5.7978,-5.7978,-5.7978,-5.7978,-5.7978,-5.7978,-5.7978,-5.7978,-5.7978,-5.7978,-5.7978,-5.7905,-5.7776,-5.7703,-5.7226,-5.6987,-5.684,-5.6767,-5.6473,-5.5981,-5.5794,-5.5849,-5.5702,-5.5629,-5.5354,-5.495,-5.5042,-5.4913,-5.462,-5.4252,-5.3739,-5.3741,-5.4327,-5.4667,-5.495,-5.5192,-5.566,-5.5422,-5.5746,-5.5593,-5.5684,-5.3518,-5.3518,-5.3518,-5.3518,-5.3518,-5.3518,-5.3636,-5.3805,-5.3822,-5.3991,-5.4143,-5.4143,-5.4515,-5.4888,-5.4921,-5.5378,-5.5784,-5.6055,-5.6122,-5.6359,-5.6579,-5.6427,-5.641,-5.6478,-5.6393,-5.641,-5.6478,-5.6748,-5.7154,-5.7492,-5.778,-5.7881,-5.7753,-5.7821,-5.777,-5.7664,-5.755,-5.7382,-5.6824,-5.6952,-5.6829,-5.646,-5.6646,-5.6865,-5.6724,-5.7025,-5.7382,-5.757,-5.7821,-5.7909,-5.7978,-5.7978,-5.7978,-5.7978,-5.7978,-5.7978,-5.7978,-5.7978,-5.7978,-5.7978,-5.7978,-5.7978,-5.7978,-5.7978,-5.7978,-5.7978,-5.7978,-5.7978,-5.7978,-5.7978,-5.7978,-5.7978,-5.7978,-5.7978,-5.7978,-5.7978,-5.7978,-5.7978,-5.7978,-5.7978,-5.7978,-5.7978,-5.7978,-5.7978,-5.7978,-5.7978,-5.7978,-5.7978,-5.7923,-5.7629,-5.7483,-5.7373,-5.7281,-5.6804,-5.6822,-5.6877,-5.6638,-5.6418,-5.618,-5.5923,-5.5721,-5.5556,-5.5335,-5.5095,-5.4783,-5.5045,-5.5581,-5.5869,-5.6116,-5.6733,-5.7155,-5.6582,-5.6162,-5.6154,-5.6069,-5.3213,-5.3501,-5.3518,-5.3518,-5.3518,-5.3518,-5.3518,-5.3518,-5.3518,-5.3518,-5.3518,-5.3551,-5.3754,-5.4093,-5.4194,-5.4549,-5.5226,-5.5294,-5.5463,-5.5835,-5.5597,-5.5801,-5.575,-5.5631,-5.5818,-5.57,-5.5698,-5.6072,-5.6444,-5.6714,-5.6985,-5.697,-5.7235,-5.7464,-5.7397,-5.7381,-5.7621,-5.7741,-5.7859,-5.8037,-5.7824,-5.7497,-5.7833,-5.7756,-5.7502,-5.7667,-5.7909,-5.7978,-5.7978,-5.7978,-5.7978,-5.7978,-5.7978,-5.7978,-5.7978,-5.7978,-5.7978,-5.7978,-5.7978,-5.7978,-5.7978,-5.7978,-5.7978,-5.7978,-5.7978,-5.7978,-5.7978,-5.7978,-5.7978,-5.7978,-5.7978,-5.7978,-5.7978,-5.7978,-5.7978,-5.7978,-5.7978,-5.7978,-5.7978,-5.7978,-5.7978,-5.7978,-5.7978,-5.7978,-5.7978,-5.7978,-5.7978,-5.7978,-5.7978,-5.7886,-5.7795,-5.774,-5.7795,-5.7703,-5.7721,-5.7574,-5.7373,-5.7171,-5.7134,-5.684,-5.651,-5.625,-5.6073,-5.6032,-5.5983,-5.6332,-5.6772,-5.7122,-5.7472,-5.8004,-5.8226,-5.7708,-5.7308,-5.7192,-5.7088,-5.2739,-5.3382,-5.3467,-5.3518,-5.3518,-5.3518,-5.3518,-5.3518,-5.3518,-5.3518,-5.3518,-5.3518,-5.3534,-5.367,-5.3687,-5.3957,-5.438,-5.4532,-5.4752,-5.5497,-5.5191,-5.5157,-5.5243,-5.5445,-5.5141,-5.5378,-5.548,-5.526,-5.5564,-5.5919,-5.6089,-5.5751,-5.654,-5.6943,-5.7012,-5.7207,-5.7631,-5.8264,-5.8579,-5.8858,-5.8948,-5.8943,-5.8805,-5.8249,-5.8,-5.7978,-5.7978,-5.7978,-5.7978,-5.7978,-5.7978,-5.7978,-5.7978,-5.7978,-5.7978,-5.7978,-5.7978,-5.7978,-5.7978,-5.7978,-5.7978,-5.7978,-5.7978,-5.7978,-5.7978,-5.7978,-5.7978,-5.7978,-5.7978,-5.7978,-5.7978,-5.7978,-5.7978,-5.7978,-5.7978,-5.7978,-5.7978,-5.7978,-5.7978,-5.7978,-5.7978,-5.7978,-5.7978,-5.7978,-5.7978,-5.7978,-5.7978,-5.7978,-5.7978,-5.7978,-5.7978,-5.7978,-5.7978,-5.7978,-5.7941,-5.7831,-5.7886,-5.7831,-5.7758,-5.7703,-5.7299,-5.7048,-5.6873,-5.7019,-5.7226,-5.7507,-5.7867,-5.8262,-5.8578,-5.8825,-5.8935,-5.8681,-5.8473,-5.8396,-5.7992,-5.2418,-5.2655,-5.3264,-5.3518,-5.3518,-5.3518,-5.3518,-5.3518,-5.3518,-5.3518,-5.3518,-5.3518,-5.3518,-5.3518,-5.3518,-5.3704,-5.3771,-5.394,-5.3907,-5.4126,-5.4211,-5.4363,-5.4143,-5.4313,-5.4194,-5.4042,-5.411,-5.4465,-5.4837,-5.5277,-5.5684,-5.5755,-5.638,-5.6695,-5.6854,-5.7201,-5.7865,-5.8544,-5.8709,-5.8973,-5.906,-5.867,-5.8308,-5.8384,-5.8455,-5.8033,-5.7978,-5.7978,-5.7978,-5.7978,-5.7978,-5.7978,-5.7978,-5.7978,-5.7978,-5.7978,-5.7978,-5.7978,-5.7978,-5.7978,-5.7978,-5.7978,-5.7978,-5.7978,-5.7978,-5.7978,-5.7978,-5.7978,-5.7978,-5.7978,-5.7978,-5.7978,-5.7978,-5.7978,-5.7978,-5.7978,-5.7978,-5.7978,-5.7978,-5.7978,-5.7978,-5.7978,-5.7978,-5.7978,-5.7978,-5.7978,-5.7978,-5.7978,-5.7978,-5.7978,-5.7978,-5.7978,-5.7978,-5.7978,-5.7978,-5.7978,-5.7978,-5.7978,-5.7886,-5.7923,-5.7978,-5.7888,-5.7761,-5.823,-5.8559,-5.8735,-5.9016,-5.9474,-5.9764,-5.9775,-5.98,-5.9627,-5.9781,-5.98,-5.9146,-5.1522,-5.1894,-5.2638,-5.3179,-5.3467,-5.3518,-5.3518,-5.3518,-5.3518,-5.3518,-5.3518,-5.3518,-5.3518,-5.3518,-5.3518,-5.3518,-5.3518,-5.3518,-5.3619,-5.3551,-5.3518,-5.3585,-5.3518,-5.3534,-5.3619,-5.3518,-5.3534,-5.3839,-5.4262,-5.4397,-5.4737,-5.5294,-5.5969,-5.6571,-5.681,-5.7374,-5.7954,-5.8562,-5.844,-5.8459,-5.8729,-5.8583,-5.8366,-5.8592,-5.829,-5.7978,-5.7978,-5.7978,-5.7978,-5.7978,-5.7978,-5.7978,-5.7978,-5.7978,-5.7978,-5.7978,-5.7978,-5.7978,-5.7978,-5.7978,-5.7978,-5.7978,-5.7978,-5.7978,-5.7978,-5.7978,-5.7978,-5.7978,-5.7978,-5.7978,-5.7978,-5.7978,-5.7978,-5.7978,-5.7978,-5.7978,-5.7978,-5.7978,-5.7978,-5.7978,-5.7978,-5.7978,-5.7978,-5.7978,-5.7978,-5.7978,-5.7978,-5.7978,-5.7978,-5.7978,-5.7978,-5.7978,-5.7978,-5.7978,-5.7978,-5.7978,-5.7978,-5.7978,-5.7978,-5.8001,-5.8051,-5.8439,-5.8716,-5.899,-5.9331,-5.9768,-6.0099,-6.0297,-6.0424,-6.04,-6.0512,-6.0608,-6.08,-6.08,-6.0165,-5.0574,-5.1285,-5.2012,-5.2689,-5.3315,-5.3467,-5.3518,-5.3518,-5.3518,-5.3518,-5.3518,-5.3518,-5.3518,-5.3518,-5.3518,-5.3518,-5.3518,-5.3518,-5.3518,-5.3518,-5.3518,-5.3518,-5.3568,-5.3634,-5.375,-5.3783,-5.38,-5.375,-5.3919,-5.4122,-5.443,-5.4809,-5.5483,-5.624,-5.6739,-5.712,-5.7569,-5.7899,-5.7911,-5.768,-5.8074,-5.8616,-5.8469,-5.8194,-5.7978,-5.7978,-5.7978,-5.7978,-5.7978,-5.7978,-5.7978,-5.7978,-5.7978,-5.7978,-5.7978,-5.7978,-5.7978,-5.7978,-5.7978,-5.7978,-5.7978,-5.7978,-5.7978,-5.7978,-5.7978,-5.7978,-5.7978,-5.7978,-5.7978,-5.7978,-5.7978,-5.7978,-5.7978,-5.7978,-5.7978,-5.7978,-5.7978,-5.7978,-5.7978,-5.7978,-5.7978,-5.7978,-5.7978,-5.7978,-5.7978,-5.7978,-5.7978,-5.7978,-5.7978,-5.7978,-5.7978,-5.7978,-5.7978,-5.7978,-5.7978,-5.7978,-5.7978,-5.7978,-5.7978,-5.8024,-5.8172,-5.8654,-5.9103,-5.9475,-5.987,-6.0283,-6.0495,-6.0622,-6.0757,-6.08,-6.08,-6.08,-6.08,-6.08,-6.08,-5.0541,-5.1252,-5.2012,-5.2384,-5.2621,-5.3213,-5.3518,-5.3501,-5.3501,-5.3518,-5.3518,-5.3518,-5.3518,-5.3518,-5.3518,-5.3518,-5.3518,-5.3501,-5.3501,-5.3518,-5.3534,-5.3501,-5.375,-5.4232,-5.4374,-5.4405,-5.4374,-5.4374,-5.4374,-5.4437,-5.4774,-5.5495,-5.6232,-5.6721,-5.6938,-5.7327,-5.775,-5.7886,-5.7886,-5.7821,-5.7844,-5.8162,-5.8143,-5.8015,-5.7978,-5.7978,-5.7978,-5.7978,-5.7978,-5.7978,-5.7978,-5.7978,-5.7978,-5.7978,-5.7978,-5.7978,-5.7978,-5.7978,-5.7978,-5.7978,-5.7978,-5.7978,-5.7978,-5.7978,-5.7978,-5.7978,-5.7978,-5.7978,-5.7978,-5.7978,-5.7978,-5.7978,-5.7978,-5.7978,-5.7978,-5.7978,-5.7978,-5.7978,-5.7978,-5.7978,-5.7978,-5.7978,-5.7978,-5.7978,-5.7978,-5.7978,-5.7978,-5.7978,-5.7978,-5.7978,-5.7978,-5.7978,-5.7978,-5.7978,-5.7978,-5.7978,-5.7978,-5.7978,-5.8029,-5.8123,-5.8421,-5.8971,-5.9407,-5.9741,-6.0175,-6.061,-6.0781,-6.08,-6.08,-6.08,-6.08,-6.08,-6.08,-6.08,-6.08]},{"header":{"parameterUnit":"m.s-1","parameterCategory":1,"la1":31.0,"la2":29.5877,"lo1":-88.7671,"lo2":-86.6584,"dy":0.0162,"dx":0.0185,"nx":115,"ny":88,"refTime":"2026-02-20T12:00:00:Z","depth":0,"parameterNumber":3,"parameterNumberName":"V-component_of_WINDS"},"data":[0.0,0.0,0.0,0.0,0.0,0.0,0.0,0.0,0.0,0.0,0.0,0.0,0.0,0.0,0.0,0.0,0.0,0.0,0.0,0.0,0.0,0.0,0.0,0.0,0.0,0.0,0.0,0.0,0.0,0.0,0.0,0.0,0.0,0.0,0.0,0.0,0.0,0.0,0.0,0.0,0.0,0.0,0.0,0.0,0.0,0.0,0.0,0.0,0.0,0.0,0.0,0.0,0.0,0.0,0.0,0.0,0.0,0.0,0.0,0.0,0.0,0.0,0.0,0.0,0.0,0.0,0.0,0.0,0.0,0.0,0.0,0.0,0.0,0.0,0.0,0.0,0.0,0.0,0.0,0.0,0.0,0.0,0.0,0.0,0.0,0.0,0.0,0.0,0.0,0.0,0.0,0.0,0.0,0.0,0.0,0.0,0.0,0.0,0.0,0.0,0.0,0.0,0.0,0.0,0.0,0.0,0.0,0.0,0.0,0.0,0.0,0.0,0.0,0.0,0.0,0.0,0.0,0.0,0.0,0.0,0.0,0.0,0.0,0.0,0.0,0.0,0.0,0.0,0.0,0.0,0.0,0.0,0.0,0.0,0.0,0.0,0.0,0.0,0.0,0.0,0.0,0.0,0.0,0.0,0.0,0.0,0.0,0.0,0.0,0.0,0.0,0.0,0.0,0.0,0.0,0.0,0.0,0.0,0.0,0.0,0.0,0.0,0.0,0.0,0.0,0.0,0.0,0.0,0.0,0.0,0.0,0.0,0.0,0.0,0.0,0.0,0.0,0.0,0.0,0.0,0.0,0.0,0.0,0.0,0.0,0.0,0.0,0.0,0.0,0.0,0.0,0.0,0.0,0.0,0.0,0.0,0.0,0.0,0.0,0.0,0.0,0.0,0.0,0.0,0.0,0.0,0.0,0.0,0.0,0.0,0.0,0.0,0.0,0.0,0.0,0.0,0.0,0.0,0.0,0.0,0.0,0.0,0.0,0.0,0.0,0.0,0.0,0.0,0.0,0.0,0.0,0.0,0.0,0.0,0.0,0.0,0.0,0.0,0.0,0.0,0.0,0.0,0.0,0.0,0.0,0.0,0.0,0.0,0.0,0.0,0.0,0.0,0.0,0.0,0.0,0.0,0.0,0.0,0.0,0.0,0.0,0.0,0.0,0.0,0.0,0.0,0.0,0.0,0.0,0.0,0.0,0.0,0.0,0.0,0.0,0.0,0.0,0.0,0.0,0.0,0.0,0.0,0.0,0.0,0.0,0.0,0.0,0.0,0.0,0.0,0.0,0.0,0.0,0.0,0.0,0.0,0.0,0.0,0.0,0.0,0.0,0.0,0.0,0.0,0.0,0.0,0.0,0.0,0.0,0.0,0.0,0.0,0.0,0.0,0.0,0.0,0.0,0.0,0.0,0.0,0.0,0.0,0.0,0.0,0.0,0.0,0.0,0.0,0.0,0.0,0.0,0.0,0.0,0.0,0.0,0.0,0.0,0.0,0.0,0.0,0.0,0.0,0.0,0.0,0.0,0.0,0.0,0.0,0.0,0.0,0.0,0.0,0.0,0.0,0.0,0.0,0.0,0.0,0.0,0.0,0.0,0.0,0.0,0.0,0.0,0.0,0.0,0.0,0.0,0.0,0.0,0.0,0.0,0.0,0.0,0.0,0.0,0.0,0.0,0.0,0.0,0.0,0.0,0.0,0.0,0.0,0.0,0.0,0.0,0.0,0.0,0.0,0.0,0.0,0.0,0.0,0.0,0.0,0.0,0.0,0.0,0.0,0.0,0.0,0.0,0.0,0.0,0.0,0.0,0.0,0.0,0.0,0.0,0.0,0.0,0.0,0.0,0.0,0.0,0.0,0.0,0.0,0.0,0.0,0.0,0.0,0.0,0.0,0.0,0.0,0.0,0.0,0.0,0.0,0.0,0.0,0.0,0.0,0.0,0.0,0.0,0.0,0.0,0.0,0.0,0.0,0.0,0.0,0.0,0.0,0.0,0.0,0.0,0.0,0.0,0.0,0.0,0.0,0.0,0.0,0.0,0.0,0.0,0.0,0.0,0.0,0.0,0.0,0.0,0.0,0.0,0.0,0.0,0.0,0.0,0.0,0.0,0.0,0.0,0.0,0.0,0.0,0.0,0.0,0.0,0.0,0.0,0.0,0.0,0.0,0.0,0.0,0.0,0.0,0.0,0.0,0.0,0.0,0.0,0.0,0.0,0.0,0.0,0.0,0.0,0.0,0.0,0.0,0.0,0.0,0.0,0.0,0.0,0.0,0.0,0.0,0.0,0.0,0.0,0.0,0.0,0.0,0.0,0.0,0.0,0.0,0.0,0.0,0.0,0.0,0.0,0.0,0.0,0.0,0.0,0.0,0.0,0.0,0.0,0.0,0.0,0.0,0.0,0.0,0.0,0.0,0.0,0.0,0.0,0.0,0.0,0.0,0.0,0.0,0.0,0.0,0.0,0.0,0.0,0.0,0.0,0.0,0.0,0.0,0.0,0.0,0.0,0.0,0.0,0.0,0.0,0.0,0.0,0.0,0.0,0.0,0.0,0.0,0.0,0.0,0.0,0.0,0.0,0.0,0.0,0.0,0.0,0.0,0.0,0.0,0.0,0.0,0.0,0.0,0.0,0.0,0.0,0.0,0.0,0.0,0.0,0.0,0.0,0.0,0.0,0.0,0.0,0.0,0.0,0.0,0.0,0.0,0.0,0.0,0.0,0.0,0.0,0.0,0.0,0.0,0.0,0.0,0.0,0.0,0.0,0.0,0.0,0.0,0.0,0.0,0.0,0.0,0.0,0.0,0.0,0.0,0.0,0.0,0.0,0.0,0.0,0.0,0.0,0.0,0.0,0.0,0.0,0.0,0.0,0.0,0.0,0.0,0.0,0.0,0.0,0.0,0.0,0.0,0.0,0.0,0.0,0.0,0.0,0.0,0.0,0.0,0.0,0.0,0.0,0.0,0.0,0.0,0.0,0.0,0.0,0.0,0.0,0.0,0.0,0.0,0.0,0.0,0.0,0.0,0.0,0.0,0.0,0.0,0.0,0.0,0.0,0.0,0.0,0.0,0.0,0.0,0.0,0.0,0.0,0.0,0.0,0.0,0.0,0.0,0.0,0.0,0.0,0.0,0.0,0.0,0.0,0.0,0.0,0.0,0.0,0.0,0.0,0.0,0.0,0.0,0.0,0.0,0.0,0.0,0.0,0.0,0.0,0.0,0.0,0.0,0.0,0.0,0.0,0.0,0.0,0.0,0.0,0.0,0.0,0.0,0.0,0.0,0.0,0.0,0.0,0.0,0.0,0.0,0.0,0.0,0.0,0.0,0.0,0.0,0.0,0.0,0.0,0.0,0.0,0.0,0.0,0.0,0.0,0.0,0.0,0.0,0.0,0.0,0.0,0.0,0.0,0.0,0.0,0.0,0.0,0.0,0.0,0.0,0.0,0.0,0.0,0.0,0.0,0.0,0.0,0.0,0.0,0.0,0.0,0.0,0.0,0.0,0.0,0.0,0.0,0.0,0.0,0.0,0.0,0.0,0.0,0.0,0.0,0.0,0.0,0.0,0.0,0.0,0.0,0.0,0.0,0.0,0.0,0.0,0.0,0.0,0.0,0.0,0.0,0.0,0.0,0.0,0.0,0.0,0.0,0.0,0.0,0.0,0.0,0.0,0.0,0.0,0.0,0.0,0.0,0.0,0.0,0.0,0.0,0.0,0.0,0.0,0.0,0.0,0.0,0.0,0.0,0.0,0.0,0.0,0.0,0.0,0.0,0.0,0.0,0.0,0.0,0.0,0.0,0.0,0.0,0.0,0.0,0.0,0.0,0.0,0.0,0.0,0.0,0.0,0.0,0.0,0.0,0.0,0.0,0.0,0.0,0.0,0.0,0.0,0.0,0.0,0.0,0.0,0.0,0.0,0.0,0.0,0.0,0.0,0.0,0.0,0.0,0.0,0.0,0.0,0.0,0.0,0.0,0.0,0.0,0.0,0.0,0.0,0.0,0.0,0.0,0.0,0.0,0.0,0.0,0.0,0.0,0.0,0.0,0.0,0.0,0.0,0.0,0.0,0.0,0.0,0.0,0.0,0.0,0.0,0.0,0.0,0.0,0.0,0.0,0.0,0.0,0.0,0.0,0.0,0.0,0.0,0.0,0.0,0.0,0.0,0.0,0.0,0.0,0.0,0.0,0.0,0.0,0.0,0.0,0.0,0.0,0.0,0.0,0.0,0.0,0.0,0.0,0.0,0.0,0.0,0.0,0.0,0.0,0.0,-1.2826,0.0,0.0,0.0,0.0,0.0,0.0,0.0,0.0,0.0,0.0,0.0,0.0,0.0,0.0,0.0,0.0,0.0,0.0,0.0,0.0,0.0,0.0,0.0,0.0,0.0,0.0,0.0,0.0,0.0,0.0,0.0,0.0,0.0,0.0,0.0,0.0,0.0,0.0,0.0,0.0,0.0,0.0,0.0,0.0,0.0,0.0,0.0,0.0,0.0,0.0,0.0,0.0,0.0,0.0,0.0,0.0,0.0,0.0,0.0,0.0,0.0,0.0,0.0,0.0,0.0,0.0,0.0,0.0,0.0,0.0,0.0,0.0,0.0,0.0,0.0,0.0,0.0,0.0,0.0,0.0,0.0,0.0,0.0,0.0,0.0,0.0,0.0,0.0,0.0,0.0,0.0,0.0,0.0,0.0,0.0,0.0,0.0,0.0,0.0,0.0,0.0,0.0,0.0,0.0,0.0,0.0,0.0,0.0,0.0,0.0,-1.5508,-1.5703,-1.3942,-1.3183,-1.3644,0.0,0.0,0.0,0.0,0.0,0.0,0.0,0.0,0.0,0.0,0.0,0.0,0.0,0.0,0.0,0.0,0.0,0.0,0.0,0.0,0.0,0.0,0.0,0.0,0.0,0.0,0.0,0.0,0.0,0.0,0.0,0.0,0.0,0.0,0.0,0.0,0.0,0.0,0.0,0.0,0.0,0.0,0.0,0.0,0.0,0.0,0.0,0.0,0.0,0.0,0.0,0.0,0.0,0.0,0.0,0.0,0.0,0.0,0.0,0.0,0.0,0.0,0.0,0.0,0.0,0.0,0.0,0.0,0.0,0.0,0.0,0.0,0.0,0.0,0.0,0.0,0.0,0.0,0.0,0.0,0.0,0.0,0.0,0.0,0.0,0.0,0.0,0.0,0.0,0.0,0.0,0.0,0.0,0.0,0.0,0.0,0.0,0.0,0.0,0.0,0.0,0.0,0.0,0.0,0.0,0.0,0.0,0.0,0.0,0.0,0.0,0.0,-1.4457,-1.3951,-1.4471,0.0,0.0,0.0,0.0,0.0,0.0,0.0,0.0,0.0,0.0,0.0,0.0,0.0,0.0,0.0,0.0,0.0,0.0,0.0,0.0,0.0,0.0,0.0,0.0,0.0,0.0,0.0,0.0,0.0,0.0,0.0,0.0,0.0,0.0,0.0,0.0,0.0,0.0,0.0,0.0,0.0,0.0,0.0,0.0,0.0,0.0,0.0,0.0,0.0,0.0,0.0,0.0,0.0,0.0,0.0,0.0,0.0,0.0,0.0,0.0,0.0,0.0,0.0,0.0,0.0,0.0,0.0,0.0,0.0,0.0,0.0,0.0,0.0,0.0,0.0,0.0,0.0,0.0,0.0,0.0,0.0,0.0,0.0,0.0,0.0,0.0,0.0,0.0,0.0,0.0,0.0,0.0,0.0,0.0,0.0,0.0,0.0,0.0,0.0,0.0,0.0,0.0,0.0,0.0,0.0,0.0,0.0,0.0,0.0,0.0,-1.5986,-1.7158,-1.6271,0.0,-1.5423,0.0,0.0,0.0,0.0,0.0,0.0,0.0,0.0,0.0,0.0,0.0,0.0,0.0,0.0,0.0,0.0,0.0,0.0,0.0,0.0,0.0,0.0,0.0,0.0,0.0,0.0,0.0,0.0,0.0,0.0,0.0,0.0,0.0,0.0,0.0,0.0,0.0,0.0,0.0,0.0,0.0,0.0,0.0,0.0,0.0,0.0,0.0,0.0,0.0,0.0,0.0,0.0,0.0,0.0,0.0,0.0,0.0,0.0,0.0,0.0,0.0,0.0,0.0,0.0,0.0,0.0,0.0,0.0,0.0,0.0,0.0,0.0,0.0,0.0,0.0,0.0,0.0,0.0,0.0,0.0,0.0,0.0,0.0,0.0,0.0,0.0,0.0,0.0,0.0,0.0,0.0,0.0,0.0,0.0,0.0,0.0,0.0,0.0,0.0,0.0,0.0,0.0,0.0,0.0,0.0,0.0,0.0,0.0,0.0,0.0,-1.5373,-1.59,-1.5202,-1.5024,0.0,0.0,0.0,0.0,0.0,0.0,0.0,0.0,0.0,0.0,0.0,0.0,0.0,0.0,0.0,0.0,0.0,0.0,0.0,0.0,0.0,0.0,0.0,0.0,0.0,0.0,0.0,0.0,0.0,0.0,0.0,0.0,0.0,0.0,0.0,0.0,0.0,0.0,0.0,0.0,0.0,0.0,0.0,0.0,0.0,0.0,0.0,0.0,0.0,0.0,0.0,0.0,0.0,0.0,0.0,0.0,0.0,0.0,0.0,0.0,0.0,0.0,0.0,0.0,0.0,0.0,0.0,0.0,0.0,0.0,0.0,0.0,0.0,0.0,0.0,0.0,0.0,0.0,0.0,0.0,0.0,0.0,0.0,0.0,0.0,0.0,0.0,0.0,0.0,0.0,0.0,0.0,0.0,0.0,0.0,0.0,0.0,0.0,0.0,0.0,0.0,0.0,0.0,0.0,0.0,0.0,0.0,0.0,0.0,0.0,-1.5219,-1.4974,-1.5111,-1.4663,-1.4663,-1.5183,0.0,0.0,0.0,0.0,0.0,0.0,0.0,0.0,0.0,0.0,0.0,0.0,0.0,0.0,0.0,0.0,0.0,0.0,0.0,0.0,0.0,0.0,0.0,0.0,0.0,0.0,0.0,0.0,0.0,0.0,0.0,0.0,0.0,0.0,0.0,0.0,0.0,0.0,0.0,0.0,0.0,0.0,0.0,0.0,0.0,0.0,0.0,0.0,0.0,0.0,0.0,0.0,0.0,0.0,0.0,0.0,0.0,0.0,0.0,0.0,0.0,0.0,0.0,0.0,0.0,0.0,0.0,0.0,0.0,0.0,0.0,0.0,0.0,0.0,0.0,0.0,0.0,0.0,0.0,0.0,0.0,0.0,0.0,0.0,0.0,0.0,0.0,0.0,0.0,0.0,0.0,0.0,0.0,0.0,0.0,0.0,0.0,0.0,0.0,0.0,0.0,0.0,0.0,0.0,0.0,0.0,0.0,0.0,0.0,-1.6042,-1.5146,-1.5713,-1.5718,-1.5326,0.0,0.0,0.0,0.0,0.0,0.0,0.0,0.0,0.0,0.0,0.0,0.0,0.0,0.0,0.0,0.0,0.0,0.0,0.0,0.0,0.0,0.0,0.0,0.0,0.0,0.0,0.0,0.0,0.0,0.0,0.0,0.0,0.0,0.0,0.0,0.0,0.0,0.0,0.0,0.0,0.0,0.0,0.0,0.0,0.0,0.0,0.0,0.0,0.0,0.0,0.0,0.0,0.0,0.0,0.0,0.0,0.0,0.0,0.0,0.0,0.0,0.0,0.0,0.0,0.0,0.0,0.0,0.0,0.0,0.0,0.0,0.0,0.0,0.0,0.0,0.0,0.0,0.0,0.0,0.0,0.0,0.0,0.0,0.0,0.0,0.0,0.0,0.0,0.0,0.0,0.0,0.0,0.0,0.0,0.0,0.0,0.0,0.0,0.0,0.0,0.0,0.0,0.0,0.0,0.0,0.0,0.0,0.0,0.0,-1.4594,-1.3431,-1.3671,-1.5481,-1.3987,-1.3778,0.0,0.0,0.0,0.0,0.0,0.0,0.0,0.0,0.0,0.0,0.0,0.0,0.0,0.0,0.0,0.0,0.0,0.0,0.0,0.0,0.0,0.0,0.0,0.0,0.0,0.0,0.0,0.0,0.0,0.0,0.0,0.0,0.0,0.0,0.0,0.0,0.0,0.0,0.0,0.0,0.0,0.0,0.0,0.0,0.0,0.0,0.0,0.0,0.0,0.0,0.0,0.0,0.0,0.0,0.0,0.0,0.0,0.0,0.0,0.0,0.0,0.0,0.0,0.0,0.0,0.0,0.0,0.0,0.0,0.0,0.0,0.0,0.0,0.0,0.0,0.0,0.0,0.0,0.0,0.0,0.0,0.0,0.0,0.0,0.0,0.0,0.0,0.0,0.0,0.0,0.0,0.0,0.0,0.0,0.0,0.0,0.0,0.0,0.0,0.0,0.0,0.0,0.0,0.0,0.0,0.0,0.0,0.0,0.0,-1.2952,0.0,-1.3607,0.0,-1.3244,-1.3068,0.0,0.0,0.0,0.0,0.0,0.0,0.0,0.0,0.0,0.0,0.0,0.0,0.0,0.0,0.0,0.0,0.0,0.0,0.0,0.0,0.0,0.0,0.0,0.0,0.0,0.0,0.0,0.0,0.0,0.0,0.0,0.0,0.0,0.0,0.0,0.0,0.0,0.0,0.0,0.0,0.0,0.0,0.0,0.0,0.0,0.0,0.0,0.0,0.0,0.0,0.0,0.0,0.0,0.0,0.0,0.0,0.0,0.0,0.0,0.0,0.0,0.0,0.0,0.0,0.0,0.0,0.0,0.0,0.0,0.0,0.0,0.0,0.0,0.0,0.0,0.0,0.0,0.0,0.0,0.0,0.0,0.0,0.0,0.0,0.0,0.0,0.0,0.0,0.0,0.0,0.0,0.0,0.0,0.0,0.0,0.0,0.0,0.0,0.0,0.0,0.0,0.0,0.0,0.0,0.0,0.0,0.0,0.0,-1.3648,-1.3884,-1.549,-1.4843,-1.2109,-1.3627,-1.342,0.0,0.0,0.0,0.0,0.0,0.0,0.0,0.0,0.0,0.0,0.0,0.0,0.0,0.0,0.0,0.0,0.0,0.0,0.0,0.0,0.0,0.0,0.0,0.0,0.0,0.0,0.0,0.0,0.0,0.0,0.0,0.0,0.0,0.0,0.0,0.0,0.0,0.0,0.0,0.0,0.0,0.0,0.0,0.0,0.0,0.0,0.0,0.0,0.0,0.0,0.0,0.0,0.0,0.0,0.0,0.0,0.0,0.0,0.0,0.0,0.0,0.0,0.0,0.0,0.0,0.0,0.0,0.0,0.0,0.0,0.0,0.0,0.0,0.0,0.0,0.0,0.0,0.0,0.0,0.0,0.0,0.0,0.0,0.0,0.0,0.0,0.0,0.0,0.0,0.0,0.0,0.0,0.0,0.0,0.0,0.0,0.0,0.0,0.0,0.0,0.0,0.0,0.0,0.0,0.0,0.0,0.0,0.0,0.0,-1.2462,-1.2611,-1.2657,-1.2547,-1.2565,-1.2716,0.0,0.0,0.0,0.0,0.0,0.0,0.0,0.0,0.0,0.0,0.0,0.0,0.0,0.0,0.0,0.0,0.0,0.0,0.0,0.0,0.0,0.0,0.0,0.0,0.0,0.0,0.0,0.0,0.0,0.0,0.0,0.0,0.0,0.0,0.0,0.0,0.0,0.0,0.0,0.0,0.0,0.0,0.0,0.0,0.0,0.0,0.0,0.0,0.0,0.0,0.0,0.0,0.0,0.0,0.0,0.0,0.0,0.0,0.0,0.0,0.0,0.0,0.0,0.0,0.0,0.0,0.0,0.0,0.0,0.0,0.0,0.0,0.0,0.0,0.0,0.0,0.0,0.0,0.0,0.0,0.0,0.0,0.0,0.0,0.0,0.0,0.0,0.0,0.0,0.0,0.0,0.0,0.0,0.0,0.0,0.0,0.0,0.0,0.0,0.0,0.0,0.0,0.0,0.0,0.0,0.0,0.0,0.0,0.0,-1.3106,-1.3362,-1.3314,-1.2815,-1.2766,-1.286,-1.3076,0.0,0.0,0.0,0.0,0.0,0.0,0.0,0.0,0.0,0.0,0.0,0.0,0.0,0.0,0.0,0.0,0.0,0.0,0.0,0.0,0.0,0.0,0.0,0.0,0.0,0.0,0.0,0.0,0.0,0.0,0.0,0.0,0.0,0.0,0.0,0.0,0.0,0.0,0.0,0.0,0.0,0.0,0.0,0.0,0.0,0.0,0.0,0.0,0.0,0.0,0.0,0.0,0.0,0.0,0.0,0.0,0.0,0.0,0.0,0.0,0.0,0.0,0.0,0.0,0.0,0.0,0.0,0.0,0.0,0.0,0.0,0.0,0.0,0.0,0.0,0.0,0.0,0.0,0.0,0.0,0.0,0.0,0.0,0.0,0.0,0.0,0.0,0.0,0.0,0.0,0.0,0.0,0.0,0.0,0.0,0.0,0.0,0.0,0.0,0.0,0.0,0.0,0.0,0.0,0.0,0.0,0.0,0.0,-1.5333,-1.7025,-1.6329,-1.3115,-1.4006,-1.3731,0.0,0.0,0.0,0.0,0.0,0.0,0.0,0.0,0.0,0.0,0.0,0.0,0.0,0.0,0.0,0.0,0.0,0.0,0.0,0.0,0.0,0.0,0.0,0.0,0.0,0.0,0.0,0.0,0.0,0.0,0.0,0.0,0.0,0.0,0.0,0.0,0.0,0.0,0.0,0.0,0.0,0.0,0.0,0.0,0.0,0.0,0.0,0.0,0.0,0.0,0.0,0.0,0.0,0.0,0.0,0.0,0.0,0.0,0.0,0.0,0.0,0.0,0.0,0.0,0.0,0.0,0.0,0.0,0.0,0.0,0.0,0.0,0.0,0.0,0.0,0.0,0.0,0.0,0.0,0.0,0.0,0.0,0.0,0.0,0.0,0.0,0.0,0.0,0.0,0.0,0.0,0.0,0.0,0.0,0.0,0.0,0.0,0.0,0.0,0.0,0.0,0.0,0.0,0.0,0.0,0.0,0.0,0.0,0.0,-1.6773,-1.8681,-1.8133,-1.4886,-1.4648,-1.4277,0.0,0.0,0.0,0.0,0.0,0.0,0.0,0.0,0.0,0.0,0.0,0.0,0.0,0.0,0.0,0.0,0.0,0.0,0.0,0.0,0.0,0.0,0.0,0.0,0.0,0.0,0.0,0.0,0.0,0.0,0.0,0.0,0.0,0.0,0.0,0.0,0.0,0.0,0.0,0.0,0.0,0.0,0.0,0.0,0.0,0.0,0.0,0.0,0.0,0.0,0.0,0.0,0.0,0.0,0.0,0.0,0.0,0.0,0.0,0.0,0.0,0.0,0.0,0.0,0.0,0.0,0.0,0.0,0.0,0.0,0.0,0.0,0.0,0.0,0.0,0.0,0.0,0.0,0.0,0.0,0.0,0.0,0.0,0.0,0.0,0.0,0.0,0.0,0.0,0.0,0.0,0.0,0.0,0.0,0.0,0.0,0.0,0.0,0.0,0.0,0.0,0.0,0.0,0.0,0.0,0.0,0.0,0.0,-1.8326,-1.793,-1.9842,-1.9416,-1.6417,-1.6434,-1.5824,0.0,0.0,0.0,0.0,0.0,0.0,0.0,0.0,0.0,0.0,0.0,0.0,0.0,0.0,0.0,0.0,0.0,0.0,0.0,0.0,0.0,0.0,0.0,0.0,0.0,0.0,0.0,0.0,0.0,0.0,0.0,0.0,0.0,0.0,0.0,0.0,0.0,0.0,0.0,0.0,0.0,0.0,0.0,0.0,0.0,0.0,0.0,0.0,0.0,0.0,0.0,0.0,0.0,0.0,0.0,0.0,0.0,0.0,0.0,0.0,0.0,0.0,0.0,0.0,0.0,0.0,0.0,0.0,0.0,0.0,0.0,0.0,0.0,0.0,0.0,0.0,0.0,0.0,0.0,0.0,0.0,0.0,0.0,0.0,0.0,0.0,0.0,0.0,0.0,0.0,0.0,0.0,0.0,0.0,0.0,0.0,0.0,0.0,0.0,0.0,0.0,0.0,0.0,0.0,0.0,0.0,0.0,0.0,-1.9268,-1.8964,-2.0671,-2.0328,-1.7799,-1.8431,-1.7547,0.0,0.0,0.0,0.0,0.0,0.0,0.0,0.0,0.0,0.0,0.0,0.0,0.0,0.0,0.0,0.0,0.0,0.0,0.0,0.0,0.0,0.0,0.0,0.0,0.0,0.0,0.0,0.0,0.0,0.0,0.0,0.0,0.0,0.0,0.0,0.0,0.0,0.0,0.0,0.0,0.0,0.0,0.0,0.0,0.0,0.0,0.0,0.0,0.0,0.0,0.0,0.0,0.0,0.0,0.0,0.0,0.0,0.0,0.0,0.0,0.0,0.0,0.0,0.0,0.0,0.0,0.0,0.0,0.0,0.0,0.0,0.0,0.0,0.0,0.0,0.0,0.0,0.0,0.0,0.0,0.0,0.0,0.0,0.0,0.0,0.0,0.0,0.0,0.0,0.0,0.0,0.0,0.0,0.0,0.0,0.0,0.0,0.0,0.0,0.0,0.0,0.0,0.0,0.0,0.0,0.0,0.0,0.0,-2.0035,-1.9418,-2.1095,-2.0699,-1.7996,-1.7383,-1.6528,0.0,0.0,0.0,0.0,0.0,0.0,0.0,0.0,0.0,0.0,0.0,0.0,0.0,0.0,0.0,0.0,0.0,0.0,0.0,0.0,0.0,0.0,0.0,0.0,0.0,0.0,0.0,0.0,0.0,0.0,0.0,0.0,0.0,0.0,0.0,0.0,0.0,0.0,0.0,0.0,0.0,0.0,0.0,0.0,0.0,0.0,0.0,0.0,-1.2553,0.0,0.0,0.0,0.0,0.0,0.0,0.0,0.0,0.0,0.0,0.0,0.0,0.0,0.0,0.0,0.0,0.0,0.0,0.0,0.0,0.0,0.0,0.0,0.0,0.0,0.0,0.0,0.0,0.0,0.0,0.0,0.0,0.0,0.0,0.0,0.0,0.0,0.0,0.0,0.0,0.0,0.0,0.0,0.0,0.0,0.0,0.0,0.0,0.0,0.0,0.0,0.0,0.0,0.0,0.0,0.0,0.0,0.0,0.0,-2.0187,-2.0151,-2.077,-2.0128,-1.8097,-1.7107,-1.6389,0.0,0.0,0.0,0.0,0.0,0.0,0.0,0.0,0.0,0.0,0.0,0.0,0.0,0.0,0.0,0.0,0.0,0.0,0.0,0.0,0.0,0.0,0.0,0.0,0.0,0.0,0.0,0.0,0.0,0.0,0.0,0.0,0.0,0.0,0.0,0.0,0.0,0.0,0.0,0.0,0.0,0.0,0.0,0.0,0.0,0.0,0.0,0.0,0.0,0.0,0.0,0.0,0.0,0.0,0.0,0.0,0.0,0.0,0.0,0.0,0.0,0.0,0.0,0.0,0.0,0.0,0.0,0.0,0.0,0.0,0.0,0.0,0.0,0.0,0.0,0.0,0.0,0.0,0.0,0.0,0.0,0.0,0.0,0.0,0.0,0.0,0.0,0.0,0.0,0.0,0.0,0.0,0.0,0.0,0.0,0.0,0.0,0.0,0.0,0.0,0.0,0.0,0.0,0.0,0.0,0.0,0.0,-1.9244,-1.997,-2.0786,-2.0287,-1.9379,-1.7963,-1.7302,-1.6838,-1.65,0.0,0.0,0.0,0.0,0.0,0.0,0.0,0.0,0.0,0.0,0.0,0.0,0.0,0.0,0.0,0.0,0.0,0.0,0.0,0.0,0.0,0.0,0.0,0.0,0.0,0.0,0.0,0.0,0.0,0.0,0.0,0.0,0.0,0.0,0.0,0.0,0.0,0.0,-1.2549,-1.3359,0.0,0.0,0.0,0.0,0.0,0.0,0.0,0.0,-1.3032,0.0,0.0,0.0,0.0,0.0,0.0,0.0,0.0,0.0,0.0,0.0,0.0,0.0,0.0,0.0,0.0,0.0,0.0,0.0,0.0,0.0,0.0,0.0,0.0,0.0,0.0,0.0,0.0,0.0,0.0,0.0,0.0,0.0,0.0,0.0,0.0,0.0,0.0,0.0,0.0,0.0,0.0,0.0,0.0,0.0,0.0,0.0,0.0,0.0,0.0,0.0,0.0,0.0,0.0,0.0,0.0,-2.0605,-1.9368,-1.9454,-2.0933,-2.0115,-1.9047,-1.7748,-1.8037,-1.7675,-1.65,0.0,0.0,0.0,0.0,0.0,0.0,0.0,0.0,0.0,0.0,0.0,0.0,0.0,0.0,0.0,0.0,0.0,0.0,0.0,0.0,0.0,0.0,0.0,0.0,0.0,0.0,0.0,0.0,0.0,0.0,0.0,0.0,0.0,0.0,0.0,0.0,0.0,0.0,0.0,-1.5107,-1.5694,0.0,0.0,0.0,0.0,0.0,0.0,0.0,0.0,-1.3022,0.0,0.0,0.0,0.0,0.0,0.0,0.0,0.0,0.0,0.0,0.0,0.0,0.0,0.0,0.0,0.0,0.0,0.0,0.0,0.0,0.0,0.0,0.0,0.0,0.0,0.0,0.0,0.0,0.0,0.0,0.0,0.0,0.0,0.0,0.0,0.0,0.0,0.0,0.0,0.0,0.0,0.0,0.0,0.0,0.0,0.0,0.0,0.0,0.0,0.0,0.0,0.0,0.0,0.0,0.0,-2.0041,-2.02,-2.0933,-2.2322,-2.1257,-2.0033,-1.8679,-1.8037,-1.7325,0.0,0.0,0.0,0.0,0.0,0.0,0.0,0.0,0.0,0.0,0.0,0.0,0.0,0.0,0.0,0.0,0.0,0.0,0.0,0.0,0.0,0.0,0.0,0.0,0.0,0.0,0.0,0.0,0.0,0.0,0.0,0.0,0.0,0.0,0.0,0.0,0.0,0.0,0.0,0.0,-1.5469,-1.5889,-1.6348,0.0,0.0,0.0,0.0,0.0,0.0,-1.3685,-1.3217,0.0,0.0,0.0,0.0,0.0,0.0,0.0,0.0,0.0,0.0,0.0,0.0,0.0,0.0,0.0,0.0,0.0,0.0,0.0,0.0,0.0,0.0,0.0,0.0,0.0,0.0,0.0,0.0,0.0,0.0,0.0,0.0,0.0,0.0,0.0,0.0,0.0,0.0,0.0,0.0,0.0,0.0,0.0,0.0,0.0,0.0,0.0,0.0,0.0,0.0,0.0,0.0,0.0,0.0,0.0,-1.928,-2.0673,-2.2164,-2.3561,-2.2408,-2.1009,-1.9552,-1.859,-1.7518,0.0,0.0,0.0,0.0,0.0,0.0,0.0,0.0,0.0,0.0,0.0,0.0,0.0,0.0,0.0,0.0,0.0,0.0,0.0,0.0,0.0,0.0,0.0,0.0,0.0,0.0,0.0,0.0,0.0,0.0,0.0,0.0,0.0,0.0,0.0,0.0,0.0,0.0,0.0,0.0,0.0,-1.6424,-1.6775,-1.5977,0.0,0.0,0.0,0.0,-1.4806,-1.4679,0.0,0.0,0.0,0.0,0.0,0.0,0.0,0.0,0.0,0.0,0.0,0.0,0.0,0.0,0.0,0.0,0.0,0.0,0.0,0.0,0.0,0.0,0.0,0.0,0.0,0.0,0.0,0.0,0.0,0.0,0.0,0.0,0.0,0.0,0.0,0.0,0.0,0.0,0.0,0.0,0.0,0.0,0.0,0.0,0.0,0.0,0.0,0.0,0.0,0.0,0.0,0.0,0.0,0.0,0.0,0.0,-1.9212,-1.9787,-2.1239,-2.3498,-2.2408,-2.0889,-1.9353,-2.0877,-1.9795,0.0,0.0,0.0,0.0,0.0,0.0,0.0,0.0,0.0,0.0,0.0,0.0,0.0,0.0,0.0,0.0,0.0,0.0,0.0,0.0,0.0,0.0,0.0,0.0,0.0,0.0,0.0,0.0,0.0,0.0,0.0,0.0,0.0,0.0,0.0,0.0,0.0,0.0,0.0,0.0,0.0,-1.8887,-1.75,-1.721,-1.6934,0.0,0.0,-1.6609,-1.7408,-1.7798,0.0,0.0,0.0,0.0,0.0,0.0,0.0,0.0,0.0,0.0,0.0,0.0,0.0,0.0,0.0,0.0,0.0,0.0,0.0,0.0,0.0,0.0,0.0,0.0,0.0,0.0,0.0,0.0,0.0,0.0,0.0,0.0,0.0,0.0,0.0,0.0,0.0,0.0,0.0,0.0,0.0,0.0,0.0,0.0,0.0,0.0,0.0,0.0,0.0,0.0,0.0,0.0,0.0,0.0,0.0,-1.7676,-1.9316,-2.1332,-2.3194,-2.4749,-2.4254,-2.3148,-2.1419,-2.1254,-1.9474,0.0,0.0,0.0,0.0,0.0,0.0,0.0,0.0,0.0,0.0,0.0,0.0,0.0,0.0,0.0,0.0,0.0,0.0,0.0,0.0,0.0,0.0,0.0,0.0,0.0,0.0,0.0,0.0,0.0,0.0,0.0,0.0,0.0,0.0,0.0,0.0,0.0,0.0,0.0,0.0,0.0,0.0,-1.8125,-1.8096,0.0,0.0,0.0,-1.7578,-1.7959,0.0,0.0,0.0,0.0,0.0,0.0,0.0,0.0,0.0,0.0,0.0,0.0,0.0,0.0,0.0,0.0,0.0,0.0,0.0,0.0,0.0,0.0,0.0,0.0,0.0,0.0,0.0,0.0,0.0,0.0,0.0,0.0,0.0,0.0,0.0,0.0,0.0,0.0,0.0,0.0,0.0,0.0,0.0,0.0,0.0,0.0,0.0,0.0,0.0,0.0,0.0,0.0,0.0,0.0,0.0,0.0,0.0,-1.9326,-2.2676,-2.4797,-2.5645,-2.5577,-2.4707,-2.2925,-2.1602,0.0,0.0,0.0,0.0,0.0,0.0,0.0,0.0,0.0,0.0,0.0,0.0,0.0,0.0,0.0,0.0,0.0,0.0,0.0,0.0,0.0,0.0,0.0,0.0,0.0,0.0,0.0,-0.8828,0.0,0.0,0.0,0.0,0.0,0.0,0.0,0.0,0.0,0.0,0.0,0.0,0.0,0.0,-1.8047,-1.8529,-1.888,-1.9053,0.0,0.0,-1.8643,-1.8652,-1.8926,-1.8477,0.0,0.0,0.0,0.0,0.0,0.0,0.0,0.0,0.0,0.0,0.0,0.0,0.0,0.0,0.0,0.0,0.0,0.0,0.0,0.0,0.0,0.0,0.0,0.0,0.0,0.0,0.0,0.0,0.0,0.0,0.0,0.0,0.0,0.0,0.0,0.0,0.0,0.0,0.0,0.0,0.0,0.0,0.0,0.0,0.0,0.0,0.0,0.0,0.0,0.0,0.0,0.0,0.0,0.0,0.0,-1.9346,-2.2676,-2.4834,-2.5635,-2.5332,-2.4316,-2.2697,-2.2837,-2.0825,0.0,0.0,0.0,0.0,0.0,0.0,0.0,0.0,0.0,0.0,0.0,0.0,0.0,0.0,0.0,0.0,0.0,0.0,0.0,0.0,0.0,0.0,0.0,0.0,0.0,0.0,0.0,0.0,0.0,0.0,0.0,0.0,0.0,0.0,0.0,0.0,0.0,0.0,0.0,0.0,0.0,-1.9033,-1.8656,-1.9668,-2.0566,0.0,0.0,-2.0429,-2.0429,-2.1396,-2.0967,-1.7252,0.0,0.0,0.0,0.0,0.0,0.0,0.0,0.0,0.0,0.0,0.0,0.0,0.0,0.0,0.0,0.0,0.0,0.0,0.0,0.0,0.0,0.0,0.0,0.0,0.0,0.0,0.0,0.0,0.0,0.0,0.0,0.0,0.0,0.0,0.0,0.0,0.0,0.0,0.0,0.0,0.0,0.0,0.0,0.0,0.0,0.0,0.0,0.0,0.0,0.0,0.0,0.0,0.0,-1.7617,-1.8896,-2.2275,-2.4326,-2.4845,-2.501,-2.4539,-2.3385,-2.2984,-2.0972,0.0,0.0,0.0,0.0,0.0,0.0,0.0,0.0,0.0,0.0,0.0,0.0,0.0,0.0,0.0,0.0,0.0,0.0,0.0,0.0,0.0,0.0,0.0,0.0,0.0,0.0,0.0,0.0,-1.1377,-1.1436,-1.1349,0.0,0.0,0.0,0.0,0.0,0.0,0.0,0.0,0.0,0.0,-1.9111,-1.9736,-2.0713,0.0,0.0,-2.1484,-2.1515,-2.1719,-2.1279,-2.0137,-1.7881,-1.6406,0.0,0.0,0.0,0.0,0.0,0.0,0.0,0.0,0.0,0.0,0.0,0.0,0.0,0.0,0.0,0.0,0.0,0.0,0.0,0.0,0.0,0.0,0.0,0.0,0.0,0.0,0.0,0.0,0.0,0.0,0.0,0.0,0.0,0.0,0.0,0.0,0.0,0.0,0.0,0.0,0.0,0.0,0.0,0.0,0.0,0.0,0.0,0.0,0.0,0.0,0.0,0.0,-1.733,-1.8598,-2.1914,-2.3867,-2.4404,-2.459,-2.445,-2.3799,-2.2959,-2.1105,0.0,0.0,0.0,0.0,0.0,0.0,0.0,0.0,0.0,0.0,0.0,0.0,0.0,0.0,0.0,0.0,0.0,0.0,0.0,0.0,0.0,0.0,0.0,0.0,0.0,0.0,0.0,0.0,-1.2213,-1.1943,-1.1281,0.0,0.0,0.0,0.0,0.0,0.0,0.0,0.0,0.0,0.0,-1.9407,-2.0596,-2.1406,-2.1934,-2.2051,-2.1748,-2.1602,-2.1885,-2.0908,-1.959,-1.8066,0.0,0.0,0.0,0.0,0.0,0.0,0.0,0.0,0.0,0.0,0.0,0.0,0.0,0.0,0.0,0.0,0.0,0.0,0.0,0.0,0.0,0.0,0.0,0.0,0.0,0.0,0.0,-1.3486,0.0,0.0,-1.2915,0.0,0.0,0.0,0.0,0.0,0.0,0.0,0.0,0.0,0.0,0.0,0.0,0.0,0.0,0.0,0.0,0.0,0.0,0.0,0.0,0.0,0.0,-1.733,-1.8617,-2.165,-2.3584,-2.4355,-2.4023,-2.3828,-2.376,-2.2959,-2.1484,-1.927,0.0,0.0,0.0,0.0,0.0,0.0,0.0,0.0,0.0,0.0,0.0,0.0,0.0,0.0,0.0,0.0,0.0,0.0,0.0,0.0,0.0,0.0,0.0,0.0,0.0,0.0,-1.2213,-1.2213,-1.1726,0.0,0.0,0.0,0.0,0.0,0.0,0.0,0.0,0.0,0.0,-1.8271,-2.0167,-2.1054,-2.1611,-2.206,-2.2451,-2.1445,-2.0635,-2.0693,-2.0586,-1.9871,0.0,0.0,0.0,0.0,0.0,0.0,0.0,0.0,0.0,0.0,0.0,0.0,0.0,0.0,0.0,0.0,0.0,0.0,0.0,0.0,0.0,0.0,0.0,0.0,0.0,0.0,0.0,-1.6143,-1.5253,0.0,0.0,0.0,0.0,0.0,0.0,0.0,0.0,0.0,0.0,0.0,-1.9558,-2.0145,0.0,0.0,0.0,0.0,0.0,0.0,0.0,0.0,0.0,0.0,0.0,0.0,-1.7321,-1.8666,-2.1631,-2.3291,-2.352,-2.3711,-2.3652,-2.3359,-2.2803,-2.1327,-1.8926,0.0,0.0,0.0,0.0,0.0,0.0,0.0,0.0,0.0,0.0,0.0,0.0,0.0,0.0,0.0,0.0,0.0,0.0,0.0,0.0,0.0,0.0,0.0,0.0,0.0,-1.2666,0.0,0.0,0.0,0.0,0.0,0.0,0.0,0.0,0.0,0.0,0.0,-1.5644,-1.7529,-1.9258,-2.0674,-2.1543,-2.2275,-2.273,0.0,0.0,0.0,0.0,0.0,0.0,0.0,0.0,0.0,0.0,0.0,0.0,0.0,0.0,-1.6502,-1.3297,-1.2321,-1.1922,-1.1815,0.0,0.0,0.0,0.0,0.0,0.0,0.0,0.0,0.0,0.0,0.0,0.0,0.0,0.0,-1.8281,0.0,-1.7347,0.0,0.0,0.0,0.0,0.0,0.0,0.0,0.0,-2.0478,-2.1476,-2.175,-2.2275,-2.1875,0.0,-2.0488,-1.8919,0.0,0.0,0.0,0.0,0.0,0.0,0.0,0.0,-1.7588,-1.8916,-2.1543,-2.2998,-2.3101,-2.3408,-2.3428,-2.3091,-2.2588,-2.1279,-1.9114,-1.7408,-1.5898,0.0,0.0,0.0,0.0,0.0,0.0,0.0,0.0,0.0,0.0,0.0,0.0,0.0,0.0,0.0,0.0,0.0,0.0,0.0,0.0,0.0,0.0,0.0,-1.3203,0.0,0.0,0.0,0.0,0.0,0.0,0.0,0.0,0.0,-1.4533,-1.5829,-1.7393,-1.9082,-2.043,-2.1455,-2.2021,0.0,0.0,0.0,0.0,0.0,0.0,0.0,-1.6681,-1.662,-1.6083,-1.5515,-1.5004,-1.56,-1.6034,-1.5729,0.0,0.0,-1.4158,-1.3294,-1.2907,-1.2726,-1.2691,-1.2278,-1.0906,-1.0994,-1.0936,0.0,0.0,0.0,0.0,0.0,0.0,0.0,0.0,-2.0312,-2.0312,0.0,-1.9746,0.0,0.0,0.0,0.0,0.0,-1.9346,0.0,0.0,-2.3619,-2.4646,-2.3867,-2.3848,-2.3623,-2.3306,-2.3564,-2.2441,-1.9922,-1.708,0.0,0.0,0.0,0.0,0.0,0.0,-1.8076,-1.9385,-2.1475,-2.2734,-2.3081,-2.3101,-2.3101,-2.3071,-2.2353,-2.1299,-2.001,-1.9065,-1.7652,-1.5566,-1.4611,0.0,0.0,0.0,0.0,0.0,0.0,0.0,0.0,0.0,0.0,0.0,0.0,0.0,0.0,0.0,0.0,0.0,0.0,0.0,0.0,-1.386,0.0,0.0,0.0,0.0,0.0,0.0,0.0,0.0,0.0,0.0,-1.5684,-1.7725,-1.9629,-2.0517,0.0,0.0,0.0,0.0,-2.2069,-2.0962,-1.9943,-1.8931,-1.7868,-1.7574,-1.7345,-1.6941,0.0,0.0,-1.6404,-1.5934,-1.5611,-1.4756,-1.5396,-1.5993,-1.6448,-1.5683,-1.4809,-1.3736,-1.2391,-1.1324,-1.1103,-1.0647,-1.0251,-2.1161,0.0,0.0,0.0,0.0,-2.2344,-2.3174,-2.4668,-2.3906,-2.3188,-2.2425,-2.1826,0.0,0.0,0.0,0.0,0.0,0.0,-2.1221,-2.2389,-2.3623,-2.4512,-2.5128,-2.5128,-2.4951,-2.4568,-2.4336,-2.3535,-2.2227,-2.1055,-1.8574,-1.4951,0.0,0.0,0.0,0.0,-1.9678,-2.0703,-2.2136,-2.2974,-2.3091,-2.3101,-2.3101,-2.3091,-2.2574,-2.1865,-2.0849,-1.9982,-1.8812,-1.7324,-1.584,0.0,0.0,0.0,0.0,0.0,0.0,0.0,0.0,0.0,0.0,0.0,0.0,0.0,0.0,0.0,0.0,0.0,0.0,0.0,-1.3393,-1.386,-1.389,0.0,0.0,0.0,0.0,0.0,0.0,0.0,0.0,0.0,-1.8564,-1.9258,-2.0176,0.0,0.0,-2.251,-2.251,-2.2221,-2.187,-2.1536,-1.9783,0.0,-1.8018,-1.6857,-1.614,-1.644,-1.6906,-1.7064,-1.6615,-1.6474,-1.6373,-1.6106,-1.6286,-1.6424,-1.6313,-1.5669,-1.4683,-1.3454,-1.2862,-1.205,-1.0603,-1.0178,-0.9907,-2.3635,-2.2429,-2.3133,-2.3955,-2.4785,-2.4541,-2.5264,-2.6611,-2.6064,-2.5498,-2.4959,-2.4316,-2.3027,-2.1269,-2.0439,0.0,0.0,0.0,-2.2588,-2.3926,-2.4365,-2.4971,-2.5654,-2.5684,-2.5596,-2.5322,-2.5068,-2.458,-2.3961,-2.3652,-2.1562,-1.7818,0.0,0.0,-1.7455,-1.9219,-2.0615,-2.1463,-2.2535,-2.3101,-2.3101,-2.3101,-2.3101,-2.3091,-2.2857,-2.2399,-2.1717,-2.1074,-2.0185,-1.9053,-1.7373,-1.5967,0.0,0.0,0.0,0.0,0.0,0.0,0.0,0.0,0.0,0.0,0.0,-1.1362,-0.9342,0.0,0.0,0.0,-1.2515,-1.3675,-1.4192,-1.4961,0.0,0.0,0.0,0.0,0.0,0.0,0.0,-1.7236,-1.8676,-1.9753,-2.008,-2.0254,-2.0952,-2.2477,-2.2553,-2.2447,-2.2447,0.0,-2.1067,-2.0548,-1.9216,-1.8074,-1.7588,-1.667,-1.6039,-1.6386,-1.6486,-1.6587,-1.6687,-1.6707,-1.6707,-1.6707,-1.6707,-1.6613,-1.6326,-1.5832,-1.5246,-1.4284,-1.3303,-1.2214,-1.0849,-0.9979,-0.9067,-2.669,-2.649,-2.6164,-2.625,-2.6582,-2.6592,-2.6826,-2.7197,-2.7148,-2.7353,-2.7689,-2.6816,-2.5762,-2.4502,-2.2535,0.0,-2.3422,-2.3857,-2.4463,-2.5225,-2.5615,-2.5742,-2.5732,-2.5703,-2.5684,-2.5684,-2.5684,-2.5527,-2.5174,-2.5078,-2.3857,-2.1473,-2.0635,-1.9941,-1.95,-2.0312,-2.1173,-2.1982,-2.2701,-2.3101,-2.3101,-2.3101,-2.3101,-2.3101,-2.3062,-2.2847,-2.2471,-2.2051,-2.1445,-2.0605,-1.8955,-1.751,-1.632,0.0,0.0,0.0,0.0,0.0,0.0,0.0,0.0,0.0,0.0,0.0,0.0,0.0,0.0,0.0,-1.4157,0.0,-1.5488,-1.6548,0.0,0.0,0.0,-1.6687,-1.6342,-1.7687,-1.8785,-1.9277,0.0,0.0,-2.0498,-2.0811,-2.1699,-2.3319,-2.2797,-2.2209,-2.2238,-2.1055,-1.9789,-1.8728,-1.8437,-1.7973,-1.6966,-1.6697,-1.6633,-1.666,-1.648,-1.6433,-1.6647,-1.6707,-1.6707,-1.6707,-1.6707,-1.6613,-1.6375,-1.6288,-1.6179,-1.5757,-1.3698,-1.1927,-1.1551,-0.9797,-0.8185,-2.8029,-2.8776,-2.8719,-2.8525,-2.832,-2.832,-2.8564,-2.8906,-2.8271,-2.8047,-2.8086,-2.7246,-2.6689,-2.6367,-2.5869,-2.581,-2.6103,-2.6191,-2.6357,-2.6533,-2.6328,-2.623,-2.6221,-2.584,-2.5684,-2.5684,-2.5684,-2.5635,-2.5518,-2.5234,-2.459,-2.3672,-2.3125,-2.2002,-2.041,-2.1455,-2.2314,-2.2842,-2.2994,-2.3101,-2.3101,-2.3101,-2.3101,-2.3091,-2.2789,-2.2461,-2.2051,-2.1611,-2.1133,-2.0605,-1.9238,-1.8315,-1.8008,-1.5342,0.0,0.0,0.0,0.0,0.0,0.0,0.0,0.0,0.0,-1.3165,-1.0361,0.0,-1.3428,0.0,-1.4213,-1.5263,-1.6294,-1.6036,0.0,0.0,-1.719,-1.7795,-1.8063,-1.8443,-1.8943,-1.9602,-1.9729,-1.9777,-1.9858,-2.0551,-2.1086,-2.1337,-2.1094,-2.0766,-2.0506,-1.9598,-1.8754,-1.8227,-1.7591,-1.7043,-1.6807,-1.6707,-1.67,-1.6707,-1.664,-1.6627,-1.6693,-1.6707,-1.6707,-1.6707,-1.6707,-1.6587,-1.6313,-1.6273,-1.6159,-1.5721,-1.3837,-1.1795,-1.0797,-0.9353,-0.8211,-2.9593,-3.0156,-3.0156,-3.0019,-2.9756,-2.9375,-2.9346,-2.9521,-2.9062,-2.875,-2.8516,-2.7676,-2.7197,-2.7012,-2.7012,-2.7012,-2.7012,-2.7012,-2.7012,-2.7002,-2.6768,-2.6562,-2.6377,-2.6133,-2.5869,-2.5693,-2.5684,-2.5684,-2.5674,-2.5488,-2.5039,-2.4378,-2.418,-2.3281,-2.1816,-2.2422,-2.2857,-2.3091,-2.3101,-2.3101,-2.3101,-2.3101,-2.3013,-2.2818,-2.2594,-2.2217,-2.1621,-2.1172,-2.0732,-2.0273,-1.9192,-1.852,-1.8295,-1.6375,-1.5001,0.0,0.0,0.0,0.0,0.0,0.0,0.0,0.0,0.0,0.0,0.0,-1.4521,-1.4894,-1.5844,-1.6603,-1.7024,-1.7546,-1.7852,-1.7694,-1.9061,-1.9859,-1.9519,-1.9838,-2.0068,-2.0071,-1.9912,-1.9626,-1.9263,-1.956,-1.9626,-1.8958,-1.878,-1.8915,-1.919,-1.8439,-1.7662,-1.7471,-1.704,-1.6707,-1.6707,-1.6593,-1.6513,-1.65,-1.64,-1.6313,-1.6264,-1.6313,-1.6319,-1.6319,-1.6313,-1.6266,-1.6112,-1.6079,-1.6012,-1.5619,-1.4286,-1.2599,-1.1227,-0.9453,-0.8167,-3.0898,-3.0898,-3.0898,-3.0898,-3.082,-3.0068,-2.9792,-2.9792,-2.9678,-2.9375,-2.8877,-2.8144,-2.7588,-2.7187,-2.7178,-2.7178,-2.7178,-2.7178,-2.7178,-2.7178,-2.7129,-2.6894,-2.6553,-2.6435,-2.6191,-2.5771,-2.5723,-2.5684,-2.5684,-2.5684,-2.5264,-2.4521,-2.4434,-2.3968,-2.3208,-2.3179,-2.3149,-2.3101,-2.3101,-2.3101,-2.3101,-2.3101,-2.2886,-2.2539,-2.2402,-2.1973,-2.1182,-2.0723,-2.0341,-1.9884,-1.9163,-1.8598,-1.8252,-1.7344,-1.6248,0.0,-1.4552,0.0,0.0,0.0,0.0,0.0,0.0,0.0,0.0,-1.5615,-1.6289,-1.697,-1.8085,-1.855,-1.8084,-1.9967,-2.0645,-1.939,-2.1254,-2.2131,-2.0905,-2.1365,-2.1494,-2.067,-2.032,-1.9652,-1.8682,-1.841,-1.7825,-1.6982,-1.6869,-1.721,-1.7983,-1.7365,-1.6706,-1.6613,-1.6593,-1.652,-1.652,-1.6359,-1.6219,-1.6192,-1.6039,-1.5832,-1.5858,-1.5852,-1.5845,-1.5845,-1.5824,-1.5852,-1.5825,-1.5838,-1.5832,-1.5778,-1.4717,-1.3414,-1.2014,-1.001,-0.8283,-3.0898,-3.0898,-3.0898,-3.0898,-3.0879,-3.0713,-3.0644,-3.0615,-3.0244,-2.9639,-2.8916,-2.875,-2.8447,-2.8057,-2.8057,-2.8047,-2.8047,-2.8047,-2.8047,-2.8037,-2.7695,-2.751,-2.7434,-2.6709,-2.6348,-2.625,-2.5908,-2.5684,-2.5674,-2.5371,-2.5117,-2.4941,-2.459,-2.417,-2.3691,0.0,0.0,0.0,-2.3101,-2.3101,-2.3101,-2.3101,-2.2896,-2.251,-2.1795,0.0,-2.0713,-2.0273,-2.0,-1.9912,-1.9756,0.0,0.0,0.0,0.0,0.0,0.0,0.0,0.0,0.0,0.0,0.0,-1.7857,-1.7174,-1.6473,-1.8018,-1.8994,-1.8822,-1.9269,-1.9996,-2.0984,-2.1085,-2.1176,-2.1445,-2.2669,-2.3079,-2.1889,-2.1843,-2.1831,-2.1552,-1.9779,-1.8558,-1.8547,-1.7676,-1.6948,-1.6632,-1.6409,-1.635,-1.6416,-1.6455,-1.6259,-1.6052,-1.5991,-1.6012,-1.5999,-1.5965,-1.5945,-1.5851,-1.5831,-1.5825,-1.5825,-1.5825,-1.5825,-1.5825,-1.5825,-1.5825,-1.5825,-1.5825,-1.5825,-1.5825,-1.48,-1.3488,-1.2188,-1.0681,-0.9312,-3.0898,0.0,-3.0898,-3.0898,0.0,-3.0898,-3.0898,-3.0869,-3.0644,-3.0166,-2.9541,-2.9326,-2.9004,-2.8594,-2.8603,-2.8486,-2.8301,-2.8301,-2.8301,-2.8281,-2.8066,-2.7861,-2.7708,-2.7278,-2.6904,-2.668,-2.626,-2.6064,-2.6035,-2.5615,-2.5283,-2.5068,-2.4844,-2.4521,-2.4102,-2.3896,-2.3574,-2.3101,-2.3101,-2.3101,-2.3101,-2.3101,-2.2896,-2.2519,-2.1894,0.0,0.0,0.0,0.0,0.0,0.0,0.0,0.0,0.0,0.0,-1.8276,-1.8086,-1.8057,-1.8316,-1.8691,-1.929,-2.0176,-2.0586,-2.0186,-1.874,-2.0019,-2.0889,-2.0898,-2.1432,-2.1821,-2.1926,-2.2416,-2.2597,-2.2399,-2.3396,-2.358,-2.2445,-2.2222,-2.1933,-2.1165,-2.0028,-1.923,-1.9159,-1.8684,-1.8212,-1.7928,-1.7861,-1.7596,-1.6852,-1.6327,-1.5979,-1.5852,-1.5825,-1.5825,-1.5825,-1.5825,-1.5825,-1.5825,-1.5825,-1.5825,-1.5825,-1.5825,-1.5825,-1.5825,-1.5825,-1.5825,-1.5825,-1.5825,-1.5825,-1.5778,-1.5289,-1.4411,-1.3108,-1.1361,-0.985,-3.0898,-3.0898,-3.0898,-3.0898,-3.0898,-3.0898,-3.0898,-3.0898,0.0,0.0,0.0,-2.9834,-2.9443,-2.9043,-2.9033,-2.8799,-2.8408,-2.8398,-2.8369,-2.8301,-2.8301,-2.8105,-2.7836,-2.7757,-2.748,-2.7119,-2.6699,-2.6465,-2.6377,-2.6025,-2.5625,-2.5225,-2.5195,-2.4971,-2.4531,-2.4111,-2.373,-2.3335,-2.3169,-2.3101,-2.3101,-2.3101,-2.2896,-2.2519,-2.2109,-2.1504,-2.0752,-2.0342,-1.999,-1.9658,-1.9707,-1.9707,-1.9648,-2.0029,-2.0234,-2.0176,-2.0625,-2.0977,-2.1065,-2.1435,-2.1648,-2.1648,-2.2613,-2.2646,-2.1271,-2.1875,-2.248,-2.2779,-2.3564,-2.3611,-2.2566,-2.3669,-2.4121,-2.3046,-2.3802,-2.3913,-2.2842,-2.2645,-2.2236,-2.1118,-2.0757,-2.0454,-2.0154,-1.9953,-1.9832,-1.964,-1.9535,-1.9369,-1.8225,-1.6812,-1.5852,-1.5832,-1.5825,-1.5825,-1.5825,-1.5825,-1.5825,-1.5825,-1.5825,-1.5825,-1.5825,-1.5825,-1.5825,-1.5825,-1.5825,-1.5825,-1.5825,-1.5825,-1.5825,-1.5825,-1.5778,-1.5486,-1.4364,-1.2372,-1.0676,-3.0898,-3.0898,-3.0898,-3.0898,-3.0898,-3.0898,-3.0898,-3.0898,-3.0898,-3.0625,-3.0195,-3.0137,-2.9883,-2.9538,-2.9482,-2.9238,-2.8838,-2.8828,-2.8643,-2.8301,-2.8301,-2.8262,-2.8184,-2.7885,-2.7689,-2.7601,-2.7139,-2.6748,-2.6416,-2.6328,-2.6074,-2.5693,-2.5586,-2.542,-2.498,-2.4551,-2.4251,-2.4219,-2.3461,-2.3101,-2.3101,-2.3101,-2.2896,-2.2529,-2.2119,-2.166,-2.1132,-2.1034,-2.0986,-2.0927,-2.1328,-2.1357,-2.0966,-2.1367,-2.1445,-2.1093,-2.1797,-2.2393,-2.2744,-2.3184,-2.3437,-2.3437,-2.3603,-2.3574,-2.3379,-2.3779,-2.4082,-2.416,-2.457,-2.468,-2.4183,-2.4604,-2.4758,-2.4241,-2.4275,-2.4185,-2.3657,-2.358,-2.3329,-2.2709,-2.1778,-2.1238,-2.1174,-2.0663,-2.0322,-2.0195,-2.0525,-2.0376,-1.9327,-1.7465,-1.5981,-1.5825,-1.5825,-1.5825,-1.592,-1.5825,-1.5825,-1.5825,-1.5825,-1.5825,-1.5825,-1.5825,-1.5825,-1.5825,-1.5825,-1.5825,-1.5825,-1.5825,-1.5825,-1.5825,-1.5825,-1.5676,-1.5391,-1.4118,-1.2571,-3.0898,-3.0898,-3.0898,-3.0898,-3.0898,-3.0898,-3.0898,-3.0898,-3.0898,-3.0771,-3.0586,-3.0576,-3.0322,-2.9932,-2.9902,-2.9668,-2.9277,-2.9277,-2.9043,-2.8652,-2.8633,-2.8506,-2.8281,-2.8139,-2.7998,-2.7978,-2.7568,-2.7266,-2.7051,-2.6621,-2.6289,-2.6074,-2.581,-2.5586,-2.542,-2.499,-2.4766,-2.4756,-2.415,-2.3676,-2.3496,-2.3496,-2.3291,-2.2808,-2.2441,-2.2139,-2.1892,-2.1699,-2.1592,-2.1582,-2.2002,-2.2139,-2.1963,-2.2549,-2.2832,-2.2656,-2.3203,-2.3525,-2.3486,-2.3672,-2.3896,-2.4111,-2.4131,-2.4238,-2.4473,-2.4434,-2.4512,-2.4746,-2.4961,-2.4893,-2.4482,-2.4814,-2.498,-2.4795,-2.457,-2.4434,-2.4424,-2.4033,-2.3809,-2.3773,-2.3357,-2.2975,-2.2975,-2.2677,-2.2454,-2.2417,-2.2176,-2.122,-1.959,-1.8249,-1.75,-1.7705,-1.7264,-1.6897,-1.6756,-1.6204,-1.5872,-1.5825,-1.5825,-1.5825,-1.5825,-1.5825,-1.5825,-1.5825,-1.5825,-1.5825,-1.5825,-1.5825,-1.5825,-1.5825,-1.5825,-1.5825,-1.5683,-1.4806,-1.3054,-3.1182,-3.1182,-3.1182,-3.1182,-3.1172,-3.1074,-3.1035,-3.1016,-3.0928,-3.0898,-3.0898,-3.0898,-3.0693,-3.0371,-3.0351,-3.0117,-2.9746,-2.9707,-2.9473,-2.9092,-2.8965,-2.874,-2.8437,-2.834,-2.8301,-2.8262,-2.7959,-2.7764,-2.7598,-2.7043,-2.6572,-2.6367,-2.5957,-2.5684,-2.5684,-2.5391,-2.5225,-2.5195,-2.4883,-2.4463,-2.3955,-2.3935,-2.3769,-2.3393,-2.3027,-2.2793,-2.2773,-2.2393,-2.2168,-2.2178,-2.248,-2.2656,-2.2695,-2.3369,-2.3789,-2.3828,-2.4189,-2.4326,-2.4111,-2.4082,-2.4219,-2.4531,-2.456,-2.4697,-2.5037,-2.4775,-2.4746,-2.5137,-2.5225,-2.5059,-2.4707,-2.4853,-2.4935,-2.4591,-2.419,-2.4,-2.4343,-2.3651,-2.3477,-2.4115,-2.4127,-2.3969,-2.4285,-2.4214,-2.3833,-2.3437,-2.2962,-2.1488,-1.9564,-1.9147,-1.9364,-1.9248,-1.8396,-1.7305,-1.7254,-1.648,-1.5872,-1.5825,-1.5825,-1.5825,-1.5825,-1.5825,-1.5825,-1.5825,-1.5825,-1.5825,-1.5825,-1.5825,-1.5825,-1.5825,-1.5825,-1.5825,-1.5778,-1.514,-1.3536,-3.2031,-3.2051,-3.2082,-3.2111,-3.1973,-3.1621,-3.1465,-3.1406,-3.1064,-3.0898,-3.0918,-3.0898,-3.0869,-3.083,-3.082,-3.0557,-3.0156,-3.0146,-2.9912,-2.9492,-2.9101,-2.8906,-2.8828,-2.8476,-2.8301,-2.8301,-2.8242,-2.8018,-2.7705,-2.762,-2.7148,-2.6416,-2.5947,-2.5703,-2.5684,-2.5645,-2.5615,-2.5625,-2.5596,-2.5215,-2.4414,-2.4355,-2.4336,-2.4297,-2.3887,-2.3672,-2.3633,-2.3252,-2.2984,-2.2974,-2.3033,-2.3052,-2.3101,-2.3555,-2.3809,-2.3838,-2.4209,-2.4551,-2.4893,-2.4998,-2.4922,-2.499,-2.5008,-2.499,-2.5068,-2.5029,-2.5185,-2.544,-2.5606,-2.541,-2.5068,-2.4982,-2.4345,-2.2899,-2.2695,-2.2623,-2.2562,-2.1488,-2.1635,-2.4164,-2.3467,-2.3046,-2.4169,-2.3824,-2.2908,-2.2102,-2.2019,-2.1429,-2.0371,-2.0315,-2.0188,-1.9797,-1.8182,-1.6615,-1.6266,-1.5967,-1.5825,-1.5825,-1.5825,-1.5825,-1.5825,-1.5825,-1.5825,-1.5825,-1.5825,-1.5825,-1.5825,-1.5825,-1.5825,-1.5825,-1.5825,-1.5825,-1.5778,-1.5629,-1.4465,-3.2229,-3.2229,-3.2229,-3.2229,-3.2199,-3.1973,-3.1904,-3.1855,-3.1445,-3.126,-3.123,-3.0996,-3.0898,-3.0898,-3.0898,-3.0781,-3.0605,-3.0615,-3.0361,-2.9951,-2.9746,-2.9541,-2.9277,-2.8867,-2.8662,-2.8623,-2.8418,-2.8256,-2.8027,-2.7793,-2.7405,-2.6777,-2.6338,-2.6123,-2.6103,-2.5869,-2.5684,-2.5684,-2.5684,-2.5508,-2.5167,-2.4941,-2.4678,-2.4434,-2.4248,-2.416,-2.415,-2.3984,-2.3851,-2.3861,-2.4131,-2.4277,-2.4277,-2.4697,-2.4941,-2.4932,-2.4844,-2.4883,-2.5049,-2.4834,-2.4678,-2.4687,-2.4687,-2.4785,-2.5029,-2.4374,-2.4054,-2.4496,-2.4996,-2.487,-2.3786,-2.3689,-2.3217,-2.1898,-2.1573,-2.1658,-2.1938,-2.1261,-2.1641,-2.3586,-2.3505,-2.3641,-2.467,-2.4147,-2.2603,-2.1178,-2.1041,-2.1004,-1.9477,-1.9666,-1.9631,-1.8663,-1.7445,-1.7083,-1.6959,-1.63,-1.5953,-1.5832,-1.5825,-1.5825,-1.5832,-1.5825,-1.5825,-1.5825,-1.5825,-1.5825,-1.5825,-1.5825,-1.5825,-1.5825,-1.5825,-1.5825,-1.5825,-1.5825,-1.5194,-3.2519,-3.251,-3.251,-3.2519,-3.25,-3.2393,-3.2344,-3.2275,-3.1885,-3.1689,-3.165,-3.125,-3.1064,-3.1045,-3.0947,-3.0898,-3.0898,-3.0898,-3.0713,-3.0381,-3.0264,-3.0029,-2.9717,-2.9307,-2.9033,-2.8887,-2.8623,-2.8408,-2.8262,-2.7924,-2.7552,-2.7168,-2.6768,-2.6562,-2.6533,-2.623,-2.6025,-2.5928,-2.5918,-2.5859,-2.5664,-2.543,-2.5098,-2.4805,-2.4612,-2.46,-2.458,-2.4473,-2.4424,-2.4424,-2.4727,-2.4893,-2.4902,-2.5205,-2.5323,-2.5304,-2.5078,-2.4941,-2.5049,-2.4428,-2.4209,-2.4606,-2.4183,-2.3975,-2.4316,-2.3453,-2.2827,-2.3105,-2.3773,-2.3489,-2.254,-2.2496,-2.2038,-2.0856,-2.0606,-2.0777,-2.1028,-2.0541,-2.0803,-2.2724,-2.2997,-2.3484,-2.4137,-2.3258,-2.1491,-1.9672,-1.9878,-2.0076,-1.8251,-1.844,-1.8615,-1.7502,-1.7253,-1.7332,-1.7589,-1.6836,-1.612,-1.5959,-1.5965,-1.5945,-1.5865,-1.5832,-1.5825,-1.5825,-1.5825,-1.5825,-1.5825,-1.5825,-1.5825,-1.5825,-1.5825,-1.5825,-1.5825,-1.5825,-1.5825,-3.3369,-3.335,-3.335,-3.332,-3.332,-3.293,-3.2773,-3.2744,-3.2324,-3.2148,-3.209,-3.168,-3.1494,-3.1435,-3.1084,-3.0908,-3.0898,-3.0898,-3.0869,-3.0781,-3.041,-3.0195,-3.0137,-2.9736,-2.9336,-2.9043,-2.8887,-2.8662,-2.8291,-2.7943,-2.7708,-2.7617,-2.7197,-2.6992,-2.6982,-2.6914,-2.6748,-2.6396,-2.6357,-2.6172,-2.5781,-2.5693,-2.5645,-2.5567,-2.5264,-2.5096,-2.5,-2.4639,-2.4443,-2.4434,-2.4512,-2.4502,-2.4492,-2.4531,-2.459,-2.456,-2.4521,-2.4621,-2.483,-2.3877,-2.3756,-2.484,-2.3224,-2.2389,-2.3485,-2.2431,-2.1753,-2.1794,-2.1761,-2.1661,-2.1527,-2.1519,-2.1079,-1.9825,-1.9634,-1.9649,-1.9672,-1.8724,-1.9139,-2.1143,-2.1904,-2.2005,-2.1946,-2.0633,-1.9524,-1.8304,-1.7891,-1.7838,-1.7838,-1.774,-1.7713,-1.76,-1.7373,-1.7099,-1.6861,-1.6659,-1.6509,-1.6353,-1.6233,-1.6186,-1.5972,-1.5825,-1.5852,-1.5858,-1.5899,-1.5899,-1.5852,-1.5825,-1.5825,-1.5825,-1.5825,-1.5825,-1.5825,-1.5825,-1.5825,-3.3418,-3.3418,-3.3418,-3.3418,-3.3398,-3.3262,-3.3193,-3.3154,-3.2754,-3.2568,-3.249,-3.2119,-3.1777,-3.1514,-3.1357,-3.1143,-3.0908,-3.0898,-3.0898,-3.0879,-3.0713,-3.0635,-3.0596,-3.0185,-2.9902,-2.9687,-2.918,-2.8701,-2.833,-2.8135,-2.8066,-2.7998,-2.7646,-2.7432,-2.7393,-2.7148,-2.6934,-2.6807,-2.6787,-2.6699,-2.6523,-2.6289,-2.6152,-2.6133,-2.5723,-2.5508,-2.5498,-2.5342,-2.5216,-2.5206,-2.5216,-2.5216,-2.5206,-2.5216,-2.5216,-2.5216,-2.5216,-2.4929,-2.4249,-2.373,-2.3323,-2.305,-2.2307,-2.1794,-2.2064,-2.1194,-2.0333,-2.0231,-1.9517,-1.9109,-1.9265,-1.9826,-1.9826,-1.8603,-1.8356,-1.8408,-1.8251,-1.7884,-1.8349,-2.0033,-2.1041,-2.1397,-2.0538,-1.9886,-1.9072,-1.7891,-1.7589,-1.7589,-1.7589,-1.7589,-1.7589,-1.7575,-1.7495,-1.7395,-1.7308,-1.6901,-1.666,-1.6607,-1.654,-1.652,-1.6386,-1.6319,-1.6346,-1.6286,-1.6226,-1.6092,-1.6079,-1.5932,-1.5912,-1.5825,-1.5825,-1.5825,-1.5825,-1.5825,-1.5825,-3.3418,-3.3418,-3.3418,-3.3418,-3.3418,-3.3418,-3.3418,-3.3389,-3.3125,-3.2998,-3.292,-3.2559,-3.2197,-3.1934,-3.1797,-3.1494,-3.1094,-3.0967,-3.0898,-3.0898,-3.0898,-3.0898,-3.084,-3.0566,-3.0332,-3.0107,-2.9482,-2.8916,-2.8535,-2.8496,-2.8428,-2.8271,-2.7998,-2.7924,-2.7865,-2.7568,-2.7373,-2.7266,-2.7226,-2.7168,-2.7012,-2.6738,-2.6582,-2.6543,-2.6299,-2.5947,-2.5713,-2.5684,-2.5684,-2.5684,-2.5684,-2.5684,-2.5684,-2.5684,-2.5479,-2.5128,-2.506,-2.4461,-2.3226,-2.2667,-2.2156,-2.1693,-2.0837,-2.0479,-2.0845,-1.9782,-1.9065,-1.876,-1.8251,-1.7589,-1.7733,-1.8454,-1.8558,-1.7793,-1.7589,-1.7589,-1.7589,-1.7641,-1.8251,-1.9369,-1.993,-1.9981,-1.9672,-1.922,-1.8558,-1.7687,-1.7589,-1.7589,-1.7589,-1.7589,-1.7589,-1.7589,-1.7582,-1.7555,-1.7502,-1.7235,-1.6981,-1.6907,-1.6847,-1.684,-1.678,-1.676,-1.674,-1.6693,-1.658,-1.642,-1.6259,-1.6099,-1.5979,-1.5885,-1.5825,-1.5825,-1.5825,-1.5825,-1.5872,-3.3418,-3.3418,-3.3418,-3.3418,-3.3418,-3.3418,-3.3418,-3.3408,-3.3389,-3.335,-3.3281,-3.2969,-3.2754,-3.2656,-3.2314,-3.1934,-3.1514,-3.1143,-3.0937,-3.0898,-3.0898,-3.0898,-3.0889,-3.084,-3.0586,-3.0195,-2.9775,-2.9346,-2.8945,-2.8916,-2.873,-2.8379,-2.833,-2.8271,-2.8271,-2.8174,-2.8027,-2.7754,-2.7718,-2.748,-2.709,-2.7051,-2.7021,-2.7012,-2.6953,-2.6572,-2.5791,-2.5762,-2.5801,-2.5781,-2.5742,-2.5703,-2.5742,-2.5703,-2.5128,-2.4143,-2.3809,-2.3076,-2.1777,-2.0629,-2.0652,-2.081,-1.922,-1.8611,-1.936,-1.8611,-1.7887,-1.7901,-1.7781,-1.7642,-1.7662,-1.7794,-1.7767,-1.7589,-1.7589,-1.7589,-1.7589,-1.7635,-1.8094,-1.902,-1.8708,-1.8297,-1.8916,-1.8558,-1.7786,-1.7687,-1.7589,-1.7589,-1.7589,-1.7589,-1.7589,-1.7589,-1.7589,-1.7589,-1.7589,-1.7555,-1.7434,-1.728,-1.7226,-1.7128,-1.7007,-1.6954,-1.6981,-1.6941,-1.684,-1.668,-1.6446,-1.6293,-1.6206,-1.6106,-1.5999,-1.5965,-1.6032,-1.6086,-1.6005,-3.3418,-3.3418,-3.3418,-3.3418,-3.3418,-3.3418,-3.3418,-3.3418,-3.3418,-3.3418,-3.3389,-3.3281,-3.3066,-3.2822,-3.2646,-3.2373,-3.1943,-3.1514,-3.1172,-3.0957,-3.0898,-3.0898,-3.0898,-3.0898,-3.0644,-3.0254,-3.0068,-2.9775,-2.9434,-2.9375,-2.915,-2.8809,-2.8721,-2.8564,-2.833,-2.8291,-2.8203,-2.8125,-2.8149,-2.8008,-2.7871,-2.7607,-2.7471,-2.7432,-2.7178,-2.6865,-2.659,-2.6621,-2.6621,-2.6551,-2.6338,-2.6182,-2.6143,-2.5849,-2.5222,-2.4286,-2.3827,-2.2713,-2.0919,-2.0234,-1.9705,-1.9513,-1.8618,-1.8414,-1.8741,-1.8503,-1.819,-1.819,-1.821,-1.821,-1.8176,-1.8009,-1.7836,-1.7609,-1.7589,-1.7589,-1.7589,-1.7589,-1.7793,-1.8042,-1.7838,-1.7838,-1.8042,-1.7687,-1.7635,-1.7589,-1.7589,-1.7589,-1.7589,-1.7589,-1.7589,-1.7589,-1.7589,-1.7589,-1.7589,-1.7589,-1.7554,-1.746,-1.7427,-1.74,-1.7235,-1.7181,-1.7201,-1.7181,-1.7081,-1.6914,-1.668,-1.654,-1.6473,-1.644,-1.6413,-1.6413,-1.6426,-1.638,-1.6286,-3.3418,-3.3418,-3.3418,-3.3418,-3.3418,-3.3418,-3.3418,-3.3418,-3.3418,-3.3418,-3.3418,-3.3418,-3.3281,-3.3066,-3.3027,-3.2793,-3.2393,-3.21,-3.1768,-3.1338,-3.0986,-3.0898,-3.0898,-3.0898,-3.0762,-3.0508,-3.0449,-3.0225,-2.988,-2.9785,-2.958,-2.9219,-2.916,-2.8945,-2.8564,-2.8516,-2.8467,-2.833,-2.8291,-2.8291,-2.8242,-2.8037,-2.7953,-2.7851,-2.7637,-2.75,-2.749,-2.749,-2.7334,-2.7051,-2.6748,-2.6621,-2.6592,-2.6327,-2.571,-2.4692,-2.3683,-2.2438,-2.0598,-1.9786,-1.9278,-1.8616,-1.8497,-1.849,-1.849,-1.8497,-1.8497,-1.8497,-1.8477,-1.8497,-1.8457,-1.8337,-1.8123,-1.7949,-1.7762,-1.7609,-1.7589,-1.7589,-1.7641,-1.7687,-1.7641,-1.7589,-1.7589,-1.7589,-1.7589,-1.7589,-1.7589,-1.7589,-1.7589,-1.7589,-1.7589,-1.7589,-1.7589,-1.7589,-1.7589,-1.7589,-1.7589,-1.7562,-1.7542,-1.7515,-1.7455,-1.7442,-1.7455,-1.7422,-1.7348,-1.7239,-1.7018,-1.6945,-1.6827,-1.6827,-1.676,-1.6653,-1.658,-1.6613,-1.6504,-3.3418,-3.3418,-3.3418,-3.3418,-3.3418,-3.3418,-3.3418,-3.3418,-3.3418,-3.3418,-3.3418,-3.3418,-3.3408,-3.3398,-3.335,-3.3154,-3.2871,-3.2715,-3.248,-3.2012,-3.1455,-3.1045,-3.0918,-3.0898,-3.0859,-3.084,-3.083,-3.0635,-3.0264,-3.0234,-3.0019,-2.9648,-2.959,-2.9394,-2.9023,-2.8935,-2.8711,-2.8437,-2.833,-2.8301,-2.8301,-2.8271,-2.8262,-2.8252,-2.8213,-2.8193,-2.8164,-2.8144,-2.7842,-2.7187,-2.707,-2.7051,-2.7051,-2.7031,-2.6302,-2.5081,-2.3605,-2.2183,-2.0777,-1.947,-1.871,-1.868,-1.8637,-1.8544,-1.8624,-1.8664,-1.8657,-1.8644,-1.8624,-1.8604,-1.8604,-1.8531,-1.849,-1.841,-1.8023,-1.7756,-1.7662,-1.7689,-1.7722,-1.7669,-1.7622,-1.7602,-1.7609,-1.7589,-1.7589,-1.7589,-1.7589,-1.7589,-1.7589,-1.7589,-1.7589,-1.7589,-1.7589,-1.7589,-1.7589,-1.7589,-1.7589,-1.7589,-1.7589,-1.7589,-1.7589,-1.7589,-1.7589,-1.7569,-1.7542,-1.744,-1.7347,-1.7259,-1.7108,-1.7027,-1.6921,-1.6774,-1.68,-1.6901,-1.6813,-3.3418,-3.3418,-3.3418,-3.3418,-3.3418,-3.3418,-3.3418,-3.3418,-3.3418,-3.3418,-3.3418,-3.3418,-3.3418,-3.3418,-3.3418,-3.335,-3.3193,-3.2939,-3.2764,-3.2568,-3.21,-3.1455,-3.1006,-3.0898,-3.0898,-3.0898,-3.0889,-3.083,-3.0713,-3.0674,-3.0459,-3.0049,-3.0029,-2.9824,-2.9434,-2.9111,-2.8877,-2.8721,-2.8437,-2.831,-2.831,-2.8301,-2.8301,-2.8301,-2.8301,-2.8301,-2.8301,-2.8301,-2.8066,-2.7568,-2.749,-2.7552,-2.7471,-2.7236,-2.6611,-2.5383,-2.3715,-2.2237,-2.1031,-1.9619,-1.8961,-1.9118,-1.9072,-1.9138,-1.9138,-1.9189,-1.9132,-1.9196,-1.9138,-1.9176,-1.9085,-1.8931,-1.8744,-1.851,-1.835,-1.8237,-1.821,-1.825,-1.8176,-1.7976,-1.7869,-1.7829,-1.7702,-1.7642,-1.7642,-1.7642,-1.7649,-1.7649,-1.7709,-1.7689,-1.7736,-1.7622,-1.7595,-1.7589,-1.7589,-1.7589,-1.7589,-1.7589,-1.7589,-1.7589,-1.7589,-1.7589,-1.7589,-1.7582,-1.7575,-1.7521,-1.7541,-1.7468,-1.7361,-1.7228,-1.7255,-1.7208,-1.7301,-1.7388,-1.7244,-3.3418,-3.3418,-3.3418,-3.3418,-3.3418,-3.3418,-3.3418,-3.3418,-3.3418,-3.3418,-3.3418,-3.3418,-3.3418,-3.3418,-3.3418,-3.3418,-3.3379,-3.3174,-3.3076,-3.2988,-3.2607,-3.1963,-3.1348,-3.1152,-3.1064,-3.0898,-3.0898,-3.0889,-3.0879,-3.0898,-3.0732,-3.0537,-3.0488,-3.0254,-2.9844,-2.9609,-2.9346,-2.915,-2.8789,-2.8564,-2.8555,-2.8379,-2.8301,-2.8301,-2.8301,-2.8301,-2.8237,-2.7736,-2.7494,-2.781,-2.793,-2.793,-2.791,-2.7705,-2.7008,-2.59,-2.4116,-2.2654,-2.1361,-1.9933,-1.9243,-1.9383,-1.9424,-1.9424,-1.941,-1.9424,-1.9424,-1.9403,-1.9424,-1.9424,-1.9339,-1.9205,-1.9045,-1.8918,-1.8858,-1.8807,-1.8537,-1.847,-1.8417,-1.829,-1.8223,-1.8183,-1.7976,-1.7956,-1.7956,-1.7976,-1.8023,-1.8016,-1.8009,-1.7956,-1.7923,-1.7876,-1.7796,-1.7809,-1.7762,-1.7736,-1.7702,-1.7689,-1.7716,-1.7689,-1.7662,-1.7649,-1.7589,-1.7589,-1.7589,-1.7589,-1.7589,-1.7589,-1.7528,-1.7475,-1.7575,-1.7589,-1.7589,-1.7312,-1.7252,-3.3418,-3.3418,-3.3418,-3.3418,-3.3418,-3.3418,-3.3418,-3.3418,-3.3418,-3.3418,-3.3418,-3.3418,-3.3418,-3.3418,-3.3418,-3.3418,-3.3418,-3.3369,-3.3379,-3.3262,-3.2978,-3.2441,-3.1787,-3.1504,-3.1299,-3.1045,-3.0937,-3.0898,-3.0898,-3.0898,-3.0898,-3.082,-3.084,-3.0664,-3.0303,-3.0176,-2.998,-2.9619,-2.9209,-2.9004,-2.8945,-2.874,-2.8613,-2.852,-2.8007,-2.8154,-2.7872,-2.7168,-2.6806,-2.8228,-2.8174,-2.8028,-2.8092,-2.8208,-2.741,-2.5946,-2.434,-2.2743,-2.162,-2.0207,-1.9345,-1.9424,-1.9424,-1.9424,-1.9424,-1.9424,-1.9424,-1.9424,-1.9424,-1.9424,-1.9424,-1.941,-1.9377,-1.9316,-1.9305,-1.9092,-1.8744,-1.8584,-1.8571,-1.8537,-1.8537,-1.8531,-1.8497,-1.8497,-1.847,-1.8243,-1.8283,-1.827,-1.827,-1.8257,-1.8277,-1.8317,-1.8217,-1.8035,-1.8003,-1.7903,-1.7862,-1.7836,-1.7889,-1.7889,-1.7836,-1.7782,-1.7649,-1.7589,-1.7589,-1.7589,-1.7589,-1.7589,-1.7589,-1.7589,-1.7589,-1.7589,-1.7529,-1.6988,-1.6711,-3.3418,-3.3418,-3.3418,-3.3418,-3.3418,-3.3418,-3.3418,-3.3418,-3.3418,-3.3418,-3.3418,-3.3418,-3.3418,-3.3418,-3.3418,-3.3418,-3.3418,-3.3418,-3.3418,-3.3398,-3.3359,-3.3018,-3.2432,-3.1924,-3.1494,-3.1309,-3.1025,-3.0908,-3.0898,-3.0898,-3.0898,-3.0898,-3.0889,-3.085,-3.0713,-3.0381,-3.0176,-3.0,-2.9648,-2.9443,-2.9424,-2.9316,-2.9219,-2.9134,-2.7872,-2.7606,-2.7847,-2.6879,-2.6879,-2.7618,-2.726,-2.6863,-2.7691,-2.7222,-2.6436,-2.5426,-2.3479,-2.1975,-2.1422,-2.0256,-1.9424,-1.9424,-1.9424,-1.9424,-1.9424,-1.9424,-1.9424,-1.9424,-1.9424,-1.9424,-1.9424,-1.9424,-1.9424,-1.9424,-1.9424,-1.9319,-1.9205,-1.9158,-1.9038,-1.8898,-1.8831,-1.8758,-1.8551,-1.8557,-1.8544,-1.851,-1.8517,-1.851,-1.8537,-1.8577,-1.8617,-1.8684,-1.8524,-1.8342,-1.833,-1.8217,-1.8116,-1.807,-1.8096,-1.8116,-1.8063,-1.7943,-1.7822,-1.7695,-1.7589,-1.7589,-1.7589,-1.7589,-1.7589,-1.7589,-1.7589,-1.7424,-1.7206,-1.6605,-1.5524,-3.3418,-3.3418,-3.3418,-3.3418,-3.3418,-3.3418,-3.3418,-3.3418,-3.3418,-3.3418,-3.3418,-3.3418,-3.3418,-3.3418,-3.3418,-3.3418,-3.3418,-3.3418,-3.3418,-3.3418,-3.3408,-3.3291,-3.3047,-3.2432,-3.1963,-3.1582,-3.1309,-3.1113,-3.0947,-3.0898,-3.0898,-3.0898,-3.0898,-3.0889,-3.0889,-3.0625,-3.0557,-3.0439,-3.0098,-2.9863,-2.9853,-2.9668,-2.958,-2.9271,-2.7968,-2.7502,-2.8652,-2.5821,-2.5877,-2.6614,-2.5747,-2.5341,-2.6836,-2.649,-2.5544,-2.3813,-2.275,-2.1194,-2.0529,-1.9924,-1.9424,-1.9424,-1.9424,-1.9424,-1.9424,-1.9424,-1.9424,-1.9424,-1.9424,-1.9424,-1.9424,-1.9424,-1.9424,-1.9424,-1.9424,-1.9424,-1.9424,-1.9424,-1.9383,-1.9165,-1.9132,-1.9072,-1.8958,-1.8831,-1.8871,-1.8951,-1.8965,-1.8958,-1.8991,-1.9018,-1.8991,-1.8971,-1.8804,-1.8691,-1.8657,-1.8557,-1.8417,-1.8364,-1.835,-1.8357,-1.8337,-1.8183,-1.8016,-1.7896,-1.7782,-1.7602,-1.7589,-1.7589,-1.7549,-1.7529,-1.7424,-1.7206,-1.667,-1.5873,-1.4465,-3.3418,-3.3418,-3.3418,-3.3418,-3.3418,-3.3418,-3.3418,-3.3418,-3.3418,-3.3418,-3.3418,-3.3418,-3.3418,-3.3418,-3.3418,-3.3418,-3.3418,-3.3418,-3.3418,-3.3418,-3.3418,-3.3389,-3.3252,-3.2949,-3.248,-3.1768,-3.1533,-3.1299,-3.1084,-3.0928,-3.0898,-3.0898,-3.0898,-3.0898,-3.0889,-3.0889,-3.084,-3.0762,-3.0488,-3.0303,-3.0283,-3.0019,-2.9873,-2.9472,-2.8237,-2.7719,-2.791,-2.5746,-2.4228,-2.6367,-2.4218,-2.4062,-2.4926,-2.5381,-2.4658,-2.1937,-2.1587,-2.0779,-2.0004,-1.9576,-1.9504,-1.945,-1.9424,-1.9424,-1.9424,-1.9424,-1.9424,-1.9424,-1.9424,-1.9424,-1.9424,-1.9424,-1.9424,-1.9424,-1.9424,-1.9424,-1.9424,-1.9424,-1.9403,-1.9403,-1.935,-1.929,-1.9316,-1.9276,-1.9363,-1.9424,-1.9424,-1.9424,-1.9424,-1.941,-1.9316,-1.9225,-1.9065,-1.9005,-1.8971,-1.8931,-1.8784,-1.8724,-1.8677,-1.8677,-1.8657,-1.8531,-1.8384,-1.815,-1.7996,-1.7836,-1.7503,-1.719,-1.723,-1.7364,-1.6687,-1.5839,-1.5325,-1.4945,-1.3601,-3.3418,-3.3418,-3.3418,-3.3418,-3.3418,-3.3418,-3.3418,-3.3418,-3.3418,-3.3418,-3.3418,-3.3418,-3.3418,-3.3418,-3.3418,-3.3418,-3.3418,-3.3418,-3.3418,-3.3418,-3.3418,-3.3418,-3.3379,-3.3301,-3.2988,-3.251,-3.1982,-3.1553,-3.1318,-3.1094,-3.0908,-3.0898,-3.0898,-3.0898,-3.0898,-3.0898,-3.0898,-3.0898,-3.0762,-3.0703,-3.0664,-3.0596,-3.04,-2.9966,-2.8618,-2.7894,-2.7229,-2.5808,-2.4728,-2.502,-2.4561,-2.3927,-2.3614,-2.3415,-2.2981,-2.2105,-2.1099,-2.0303,-1.9819,-1.9726,-1.9599,-1.9504,-1.9484,-1.947,-1.9464,-1.9464,-1.9531,-1.9446,-1.9432,-1.9457,-1.943,-1.9497,-1.9386,-1.9437,-1.945,-1.9437,-1.943,-1.9424,-1.9424,-1.9424,-1.9424,-1.9424,-1.9424,-1.9424,-1.9424,-1.9424,-1.9424,-1.9424,-1.9424,-1.9424,-1.9397,-1.939,-1.9319,-1.9299,-1.935,-1.9316,-1.9249,-1.9196,-1.9162,-1.9156,-1.9058,-1.8945,-1.8771,-1.8564,-1.8295,-1.8081,-1.7636,-1.6923,-1.6289,-1.6072,-1.5192,-1.4263,-1.3873,-1.3537,-1.3151,-3.3418,-3.3418,-3.3418,-3.3418,-3.3418,-3.3418,-3.3418,-3.3418,-3.3418,-3.3418,-3.3418,-3.3418,-3.3418,-3.3418,-3.3418,-3.3418,-3.3418,-3.3418,-3.3418,-3.3418,-3.3418,-3.3418,-3.3418,-3.3418,-3.331,-3.2988,-3.248,-3.1894,-3.1523,-3.1094,-3.0928,-3.0898,-3.0898,-3.0898,-3.0898,-3.0898,-3.0898,-3.0898,-3.0898,-3.0898,-3.0898,-3.0898,-3.0732,-3.0267,-2.9154,-2.8147,-2.7443,-2.5294,-2.423,-2.4178,-2.411,-2.3687,-2.3323,-2.2929,-2.2515,-2.1566,-2.0671,-2.0194,-2.0054,-2.002,-1.9953,-1.986,-1.9806,-1.982,-1.9813,-1.984,-1.978,-1.98,-1.98,-1.9746,-1.9626,-1.9713,-1.9666,-1.9459,-1.9486,-1.9506,-1.9412,-1.9437,-1.9437,-1.9437,-1.9424,-1.9424,-1.9424,-1.9424,-1.9424,-1.9424,-1.9424,-1.9424,-1.9424,-1.9424,-1.9424,-1.9424,-1.9366,-1.9424,-1.9424,-1.9424,-1.9424,-1.9424,-1.9424,-1.9424,-1.9397,-1.9172,-1.9118,-1.9018,-1.8748,-1.8413,-1.7246,-1.6342,-1.5574,-1.4729,-1.4089,-1.3423,-1.2641,-1.2081,-1.2029,-3.3418,-3.3418,-3.3418,-3.3418,-3.3418,-3.3418,-3.3418,-3.3418,-3.3418,-3.3418,-3.3418,-3.3418,-3.3418,-3.3418,-3.3418,-3.3418,-3.3418,-3.3418,-3.3418,-3.3418,-3.3418,-3.3418,-3.3418,-3.3418,-3.3389,-3.3291,-3.29,-3.2402,-3.1758,-3.1279,-3.1016,-3.0918,-3.0898,-3.0898,-3.0898,-3.0898,-3.0898,-3.0898,-3.0898,-3.0898,-3.0898,-3.0898,-3.0898,-3.0889,-2.9589,-2.8815,-2.808,-2.6386,-2.4875,-2.4462,-2.4247,-2.4147,-2.4039,-2.3745,-2.2773,-2.1223,-2.0659,-2.0388,-2.0327,-2.0321,-2.0274,-2.0147,-2.0207,-2.0221,-2.0201,-2.014,-2.0187,-2.0173,-2.0201,-2.0107,-1.994,-2.008,-1.998,-1.978,-1.9753,-1.9793,-1.9586,-1.9544,-1.9497,-1.9484,-1.9444,-1.9437,-1.9444,-1.9424,-1.9424,-1.9424,-1.9424,-1.9424,-1.9424,-1.9424,-1.9424,-1.9424,-1.9424,-1.9424,-1.9424,-1.9424,-1.9424,-1.9424,-1.9424,-1.9424,-1.9424,-1.9383,-1.935,-1.929,-1.9078,-1.8579,-1.7178,-1.5682,-1.4692,-1.382,-1.3264,-1.2731,-1.2166,-1.2166,-1.2281,-3.3418,-3.3408,-3.3418,-3.3418,-3.3418,-3.3418,-3.3418,-3.3418,-3.3418,-3.3418,-3.3418,-3.3418,-3.3418,-3.3418,-3.3418,-3.3418,-3.3418,-3.3418,-3.3418,-3.3418,-3.3418,-3.3418,-3.3418,-3.3418,-3.3418,-3.3369,-3.3027,-3.2559,-3.209,-3.166,-3.125,-3.1016,-3.0967,-3.0898,-3.0898,-3.0898,-3.0898,-3.0898,-3.0898,-3.0898,-3.0898,-3.0898,-3.0898,-3.083,-3.0518,-2.9717,-2.8664,-2.7452,-2.6841,-2.5619,-2.5619,-2.568,-2.5497,-2.4294,-2.3683,-2.2809,-2.1964,-2.0895,-2.0675,-2.0621,-2.0541,-2.0401,-2.0314,-2.0254,-2.0267,-2.0334,-2.0327,-2.0173,-2.0267,-2.0267,-2.0214,-2.0241,-2.0127,-2.014,-2.01,-2.002,-1.9833,-1.9746,-1.9679,-1.9559,-1.9553,-1.9524,-1.9477,-1.945,-1.9424,-1.9424,-1.9424,-1.9424,-1.9424,-1.9424,-1.9424,-1.9424,-1.9424,-1.9424,-1.9424,-1.9424,-1.9424,-1.9424,-1.9424,-1.9424,-1.9424,-1.9424,-1.9424,-1.9343,-1.9223,-1.855,-1.7068,-1.5571,-1.3999,-1.2797,-1.2033,-1.1941,-1.1958,-1.2134,-1.2476,-3.2851,-3.3086,-3.332,-3.3418,-3.3418,-3.3418,-3.3418,-3.3418,-3.3418,-3.3418,-3.3418,-3.3418,-3.3418,-3.3418,-3.3418,-3.3418,-3.3418,-3.3418,-3.3418,-3.3418,-3.3418,-3.3418,-3.3418,-3.3418,-3.3418,-3.3369,-3.3223,-3.2959,-3.2519,-3.21,-3.166,-3.1299,-3.1211,-3.1113,-3.0957,-3.0898,-3.0898,-3.0898,-3.0898,-3.0898,-3.0898,-3.0898,-3.0898,-3.0898,-3.0898,-2.9962,-2.8911,-2.8358,-2.7632,-2.634,-2.5976,-2.5976,-2.5619,-2.4594,-2.3566,-2.3442,-2.202,-2.1099,-2.0942,-2.0915,-2.0815,-2.0775,-2.0708,-2.0755,-2.0666,-2.0702,-2.0702,-2.0735,-2.0735,-2.0655,-2.0561,-2.0648,-2.0481,-2.0408,-2.0421,-2.0281,-2.014,-2.008,-1.9987,-1.9846,-1.9713,-1.9659,-1.9579,-1.9519,-1.9459,-1.9424,-1.9424,-1.9424,-1.9424,-1.9424,-1.9424,-1.9424,-1.9424,-1.9424,-1.9424,-1.9424,-1.9424,-1.9424,-1.9424,-1.9424,-1.9424,-1.9424,-1.9424,-1.9424,-1.935,-1.8384,-1.7024,-1.564,-1.4293,-1.255,-1.0748,-1.1573,-1.2403,-1.2315,-1.2785,-3.2197,-3.2519,-3.3047,-3.3271,-3.3281,-3.3359,-3.3418,-3.3418,-3.3418,-3.3418,-3.3418,-3.3418,-3.3418,-3.3418,-3.3418,-3.3418,-3.3418,-3.3418,-3.3418,-3.3418,-3.3418,-3.3418,-3.3418,-3.3418,-3.3418,-3.3418,-3.3379,-3.3213,-3.2969,-3.2627,-3.2246,-3.1699,-3.1504,-3.1357,-3.1113,-3.0957,-3.0898,-3.0898,-3.0898,-3.0898,-3.0898,-3.0898,-3.0898,-3.0898,-3.0772,-3.0333,-2.9226,-2.9098,-2.8367,-2.7082,-2.6772,-2.6651,-2.5924,-2.4532,-2.369,-2.3263,-2.2034,-2.1096,-2.1069,-2.1062,-2.1102,-2.1102,-2.1102,-2.1022,-2.1049,-2.1102,-2.1096,-2.1036,-2.1042,-2.0942,-2.0889,-2.0975,-2.0848,-2.0715,-2.0675,-2.0541,-2.0428,-2.0368,-2.0247,-2.0067,-1.9967,-1.994,-1.9853,-1.972,-1.9586,-1.947,-1.9424,-1.943,-1.9424,-1.9424,-1.9424,-1.9424,-1.9424,-1.9424,-1.9424,-1.9424,-1.9424,-1.9424,-1.9424,-1.9424,-1.9424,-1.9424,-1.9424,-1.9424,-1.9424,-1.8978,-1.8068,-1.6399,-1.4772,-1.353,-1.255,-1.2704,-1.3025,-1.2928,-1.3044,-3.1572,-3.167,-3.249,-3.2822,-3.2861,-3.3262,-3.3398,-3.3369,-3.3398,-3.3418,-3.3418,-3.3418,-3.3418,-3.3418,-3.3418,-3.3418,-3.3418,-3.3418,-3.3418,-3.3418,-3.3418,-3.3418,-3.3418,-3.3418,-3.3418,-3.3418,-3.3418,-3.3398,-3.335,-3.3193,-3.2734,-3.2197,-3.1924,-3.1631,-3.1328,-3.1055,-3.0908,-3.0898,-3.0898,-3.0898,-3.0898,-3.0898,-3.0898,-3.0898,-3.0898,-3.083,-3.0704,-3.0333,-2.9589,-2.7931,-2.7323,-2.672,-2.5444,-2.4047,-2.3263,-2.2834,-2.1908,-2.1166,-2.1102,-2.1102,-2.1102,-2.1102,-2.1102,-2.1102,-2.1102,-2.1102,-2.1102,-2.1102,-2.1102,-2.1089,-2.1056,-2.1076,-2.1009,-2.0975,-2.0889,-2.0815,-2.0722,-2.0668,-2.0535,-2.0307,-2.0221,-2.0214,-2.014,-2.0013,-1.9846,-1.9679,-1.9544,-1.9544,-1.9444,-1.9424,-1.9424,-1.9424,-1.9424,-1.9424,-1.9424,-1.9424,-1.9424,-1.9424,-1.9424,-1.9424,-1.9424,-1.9424,-1.9424,-1.9424,-1.9424,-1.9243,-1.9062,-1.7689,-1.6321,-1.5074,-1.4302,-1.3944,-1.3999,-1.4118,-1.4004,-3.1133,-3.1191,-3.1768,-3.2168,-3.2441,-3.2861,-3.3037,-3.3086,-3.3301,-3.3418,-3.3418,-3.3418,-3.3418,-3.3418,-3.3418,-3.3418,-3.3418,-3.3418,-3.3418,-3.3418,-3.3418,-3.3418,-3.3418,-3.3418,-3.3418,-3.3418,-3.3418,-3.3418,-3.3408,-3.3418,-3.331,-3.2871,-3.2451,-3.1963,-3.1592,-3.1172,-3.0967,-3.0908,-3.0898,-3.0898,-3.0898,-3.0898,-3.0898,-3.0898,-3.0898,-3.0898,-3.0704,-2.9776,-2.9098,-2.8051,-2.6539,-2.5452,-2.454,-2.3014,-2.2341,-2.2215,-2.1411,-2.1166,-2.1102,-2.1102,-2.1102,-2.1102,-2.1102,-2.1102,-2.1102,-2.1102,-2.1102,-2.1102,-2.1102,-2.1102,-2.1102,-2.1102,-2.1082,-2.1102,-2.1076,-2.1015,-2.0969,-2.0889,-2.0848,-2.0641,-2.0548,-2.0508,-2.0421,-2.0321,-2.014,-1.996,-1.976,-1.9593,-1.9578,-1.9484,-1.9497,-1.9464,-1.9457,-1.943,-1.9424,-1.9424,-1.9424,-1.9424,-1.9424,-1.9424,-1.9424,-1.9424,-1.9424,-1.9424,-1.9424,-1.9366,-1.9127,-1.8823,-1.787,-1.6562,-1.5435,-1.4604,-1.4837,-1.4891,-1.4118,-3.0898,-3.0928,-3.1201,-3.1582,-3.2002,-3.2432,-3.2607,-3.2685,-3.3047,-3.332,-3.3408,-3.3418,-3.3418,-3.3418,-3.3418,-3.3418,-3.3418,-3.3418,-3.3418,-3.3418,-3.3418,-3.3418,-3.3418,-3.3418,-3.3418,-3.3418,-3.3418,-3.3418,-3.3418,-3.3418,-3.3369,-3.3271,-3.3115,-3.2559,-3.1992,-3.1357,-3.1084,-3.1074,-3.0937,-3.0898,-3.0898,-3.0898,-3.0898,-3.0898,-3.0898,-3.046,-2.9962,-2.9039,-2.7871,-2.6539,-2.5024,-2.3566,-2.2647,-2.1908,-2.1229,-2.1102,-2.1102,-2.1102,-2.1102,-2.1102,-2.1102,-2.1102,-2.1102,-2.1102,-2.1102,-2.1102,-2.1102,-2.1102,-2.1102,-2.1102,-2.1102,-2.1102,-2.1102,-2.1102,-2.1102,-2.1062,-2.1062,-2.1022,-2.1042,-2.0989,-2.0902,-2.0795,-2.0762,-2.0655,-2.0414,-2.0227,-2.0034,-1.9887,-1.9813,-1.97,-1.9566,-1.9578,-1.9504,-1.9464,-1.9424,-1.9437,-1.9444,-1.9424,-1.9424,-1.9424,-1.9424,-1.9424,-1.9424,-1.9424,-1.9424,-1.9424,-1.9243,-1.9004,-1.8583,-1.7981,-1.668,-1.5316,-1.3646,-1.3402,-1.2509,-3.0898,-3.0898,-3.0918,-3.1162,-3.1572,-3.2002,-3.2187,-3.2236,-3.2617,-3.2988,-3.3262,-3.3301,-3.334,-3.334,-3.331,-3.335,-3.3418,-3.3418,-3.3418,-3.3418,-3.3418,-3.3418,-3.3418,-3.3418,-3.3418,-3.3418,-3.3418,-3.3418,-3.3418,-3.3418,-3.3418,-3.3418,-3.3301,-3.3076,-3.2685,-3.1914,-3.1533,-3.1455,-3.1133,-3.0996,-3.0967,-3.0947,-3.0889,-3.046,-3.046,-2.9903,-2.8605,-2.782,-2.6478,-2.4725,-2.3807,-2.2654,-2.1607,-2.1355,-2.1102,-2.1102,-2.1102,-2.1102,-2.1102,-2.1102,-2.1102,-2.1102,-2.1102,-2.1102,-2.1102,-2.1102,-2.1102,-2.1102,-2.1102,-2.1102,-2.1102,-2.1102,-2.1102,-2.1102,-2.1102,-2.1102,-2.1102,-2.1102,-2.1102,-2.1102,-2.1102,-2.1082,-2.1076,-2.0995,-2.0722,-2.0501,-2.0301,-2.0174,-2.0087,-1.9973,-1.9813,-1.9766,-1.9693,-1.9659,-1.9626,-1.9459,-1.9406,-1.9444,-1.9424,-1.9424,-1.9424,-1.9424,-1.9424,-1.943,-1.9424,-1.9424,-1.9366,-1.9307,-1.8286,-1.7267,-1.7032,-1.5725,-1.3701,-1.2037,-1.1257,-3.0898,-3.0898,-3.0898,-3.0976,-3.1162,-3.1553,-3.1738,-3.1816,-3.2168,-3.2461,-3.2568,-3.2588,-3.2773,-3.292,-3.3037,-3.3144,-3.3379,-3.3418,-3.3418,-3.3418,-3.3418,-3.3418,-3.3418,-3.3418,-3.3418,-3.3418,-3.3418,-3.3418,-3.3418,-3.3418,-3.3418,-3.3418,-3.3389,-3.3184,-3.2764,-3.2226,-3.1953,-3.1875,-3.1572,-3.1309,-3.1269,-3.0927,-3.0343,-2.9353,-2.9226,-2.8426,-2.6893,-2.6114,-2.4786,-2.345,-2.2779,-2.179,-2.1172,-2.1102,-2.1102,-2.1102,-2.1102,-2.1102,-2.1102,-2.1102,-2.1102,-2.1102,-2.1102,-2.1102,-2.1102,-2.1102,-2.1102,-2.1102,-2.1102,-2.1102,-2.1102,-2.1102,-2.1102,-2.1102,-2.1102,-2.1102,-2.1102,-2.1102,-2.1102,-2.1102,-2.1102,-2.1102,-2.1102,-2.1102,-2.0895,-2.0788,-2.0615,-2.0408,-2.0287,-2.0207,-2.0087,-2.0087,-2.0047,-1.9993,-1.9913,-1.9746,-1.9659,-1.9666,-1.9519,-1.9424,-1.9424,-1.9504,-1.9464,-1.9432,-1.9457,-1.9366,-1.8946,-1.8402,-1.7214,-1.638,-1.5784,-1.4831,-1.2868,-1.1318,-1.0358,-3.0898,-3.0898,-3.0898,-3.0898,-3.0928,-3.1182,-3.1367,-3.1543,-3.1826,-3.2021,-3.2219,-3.2187,-3.2314,-3.2529,-3.2617,-3.2812,-3.3174,-3.3203,-3.3369,-3.3379,-3.3418,-3.3418,-3.3418,-3.3389,-3.3418,-3.3408,-3.3408,-3.3418,-3.3418,-3.3418,-3.3418,-3.3418,-3.3408,-3.3281,-3.2959,-3.2656,-3.2383,-3.2266,-3.1992,-3.1262,-3.0789,-3.0084,-2.9314,-2.8104,-2.7383,-2.6832,-2.5383,-2.424,-2.3325,-2.2654,-2.1853,-2.1102,-2.1102,-2.1102,-2.1102,-2.1102,-2.1102,-2.1102,-2.1102,-2.1102,-2.1102,-2.1102,-2.1102,-2.1102,-2.1102,-2.1102,-2.1102,-2.1102,-2.1102,-2.1102,-2.1102,-2.1102,-2.1102,-2.1102,-2.1102,-2.1102,-2.1102,-2.1102,-2.1102,-2.1102,-2.1102,-2.1102,-2.1102,-2.1102,-2.1042,-2.0989,-2.0935,-2.0715,-2.0514,-2.0441,-2.0388,-2.0374,-2.024,-2.014,-2.0127,-2.004,-1.9967,-1.9947,-1.9786,-1.9593,-1.9619,-1.9733,-1.9613,-1.9486,-1.9511,-1.9173,-1.8233,-1.7331,-1.6005,-1.4862,-1.3999,-1.2928,-1.1619,-1.0721,-0.9879,-3.0898,-3.0898,-3.0898,-3.0898,-3.0898,-3.0928,-3.1143,-3.1475,-3.1494,-3.1728,-3.208,-3.2021,-3.206,-3.2129,-3.2209,-3.2393,-3.2705,-3.2773,-3.2959,-3.3174,-3.3154,-3.3223,-3.3232,-3.3232,-3.3144,-3.3252,-3.3271,-3.3144,-3.335,-3.3418,-3.3418,-3.3418,-3.3418,-3.3359,-3.3203,-3.3027,-3.2822,-3.2705,-3.2351,-3.1373,-3.0265,-2.9413,-2.8113,-2.6776,-2.5859,-2.5024,-2.3923,-2.3201,-2.2466,-2.179,-2.1102,-2.1102,-2.1102,-2.1102,-2.1102,-2.1102,-2.1102,-2.1102,-2.1102,-2.1102,-2.1102,-2.1102,-2.1102,-2.1102,-2.1102,-2.1102,-2.1102,-2.1102,-2.1102,-2.1102,-2.1102,-2.1102,-2.1102,-2.1102,-2.1102,-2.1102,-2.1102,-2.1102,-2.1102,-2.1102,-2.1102,-2.1102,-2.1102,-2.1102,-2.1102,-2.1076,-2.1029,-2.1002,-2.0828,-2.0742,-2.0688,-2.0661,-2.0555,-2.0306,-2.0307,-2.0327,-2.0274,-2.0247,-2.0147,-2.0,-2.0034,-1.9987,-1.988,-1.9746,-1.9559,-1.9031,-1.8046,-1.6453,-1.4595,-1.3569,-1.2786,-1.178,-1.0773,-1.0429,-0.9819,-3.0898,-3.0898,-3.0898,-3.0898,-3.0898,-3.0898,-3.0967,-3.1064,-3.1074,-3.1172,-3.126,-3.126,-3.1475,-3.1689,-3.1709,-3.1973,-3.2207,-3.2363,-3.2402,-3.2539,-3.2666,-3.2578,-3.2568,-3.2607,-3.2559,-3.2568,-3.2607,-3.2764,-3.2998,-3.3193,-3.3359,-3.3418,-3.3092,-3.3131,-3.3102,-3.3209,-3.2976,-3.2797,-3.2396,-3.1084,-2.9741,-2.8923,-2.7095,-2.5318,-2.4371,-2.3402,-2.2459,-2.2027,-2.1475,-2.1292,-2.1102,-2.1102,-2.1102,-2.1102,-2.1102,-2.1102,-2.1102,-2.1102,-2.1102,-2.1102,-2.1102,-2.1102,-2.1102,-2.1102,-2.1102,-2.1102,-2.1102,-2.1102,-2.1102,-2.1102,-2.1102,-2.1102,-2.1102,-2.1102,-2.1102,-2.1102,-2.1102,-2.1102,-2.1102,-2.1102,-2.1102,-2.1102,-2.1102,-2.1102,-2.1102,-2.1102,-2.1102,-2.1102,-2.1082,-2.0975,-2.0922,-2.0882,-2.0848,-2.0675,-2.0681,-2.0702,-2.0615,-2.0535,-2.0448,-2.0354,-2.0281,-2.0221,-2.014,-1.9713,-1.9131,-1.8485,-1.7792,-1.5822,-1.3407,-1.2642,-1.1888,-1.087,-1.0029,-0.9965,-0.9886,-3.0723,-3.0889,-3.0898,-3.0898,-3.0898,-3.0898,-3.0898,-3.0898,-3.0898,-3.0898,-3.0898,-3.0918,-3.1035,-3.123,-3.1289,-3.1494,-3.1885,-3.1924,-3.2021,-3.2236,-3.218,-3.2217,-3.2187,-3.2199,-3.2226,-3.2158,-3.2238,-3.2373,-3.2588,-3.2744,-3.29,-3.2809,-3.2464,-3.2017,-3.1816,-3.1562,-3.1286,-3.1269,-3.1008,-3.0212,-2.8909,-2.7579,-2.5447,-2.3629,-2.2796,-2.1992,-2.1292,-2.1102,-2.1102,-2.1102,-2.1102,-2.1102,-2.1102,-2.1102,-2.1102,-2.1102,-2.1102,-2.1102,-2.1102,-2.1102,-2.1102,-2.1102,-2.1102,-2.1102,-2.1102,-2.1102,-2.1102,-2.1102,-2.1102,-2.1102,-2.1102,-2.1102,-2.1102,-2.1102,-2.1102,-2.1102,-2.1102,-2.1102,-2.1102,-2.1102,-2.1102,-2.1102,-2.1102,-2.1102,-2.1102,-2.1102,-2.1102,-2.1102,-2.1102,-2.1069,-2.1036,-2.1015,-2.1036,-2.1002,-2.1009,-2.0955,-2.0882,-2.0808,-2.0795,-2.0688,-2.0568,-2.0196,-1.9994,-1.9225,-1.8325,-1.7424,-1.6145,-1.4308,-1.2282,-1.1735,-1.1318,-1.0696,-1.0169,-1.0149,-1.0066,-3.0449,-3.082,-3.0869,-3.0898,-3.0898,-3.0898,-3.0898,-3.0898,-3.0898,-3.0898,-3.0898,-3.0898,-3.0908,-3.0986,-3.0996,-3.1152,-3.1396,-3.1484,-3.1611,-3.2041,-3.1945,-3.1925,-3.1894,-3.2092,-3.1836,-3.1973,-3.2031,-3.1904,-3.208,-3.2285,-3.2383,-3.2107,-3.0779,-3.0277,-3.0314,-2.986,-2.9206,-2.8103,-2.8571,-2.831,-2.6015,-2.449,-2.3535,-2.1778,-2.1326,-2.1102,-2.1102,-2.1102,-2.1102,-2.1102,-2.1102,-2.1102,-2.1102,-2.1102,-2.1102,-2.1102,-2.1102,-2.1102,-2.1102,-2.1102,-2.1102,-2.1102,-2.1102,-2.1102,-2.1102,-2.1102,-2.1102,-2.1102,-2.1102,-2.1102,-2.1102,-2.1102,-2.1102,-2.1102,-2.1102,-2.1102,-2.1102,-2.1102,-2.1102,-2.1102,-2.1102,-2.1102,-2.1102,-2.1102,-2.1102,-2.1102,-2.1102,-2.1102,-2.1102,-2.1102,-2.1102,-2.1102,-2.1102,-2.1102,-2.1089,-2.1049,-2.1069,-2.1049,-2.1022,-2.1002,-2.0855,-2.0342,-1.9722,-1.8802,-1.7769,-1.5543,-1.3893,-1.2783,-1.2051,-1.1102,-1.0724,-1.0479,-1.031,-1.0297,-1.0226,-3.0264,-3.04,-3.0752,-3.0898,-3.0898,-3.0898,-3.0898,-3.0898,-3.0898,-3.0898,-3.0898,-3.0898,-3.0898,-3.0898,-3.0898,-3.1006,-3.1045,-3.1143,-3.1123,-3.125,-3.1299,-3.1387,-3.126,-3.1357,-3.1289,-3.1201,-3.124,-3.1445,-3.166,-3.1914,-3.2068,-3.1866,-3.0294,-2.9278,-2.8968,-2.8364,-2.6983,-2.538,-2.5832,-2.6103,-2.4615,-2.4077,-2.341,-2.1974,-2.1276,-2.1122,-2.1102,-2.1102,-2.1102,-2.1102,-2.1102,-2.1102,-2.1102,-2.1102,-2.1102,-2.1102,-2.1102,-2.1102,-2.1102,-2.1102,-2.1102,-2.1102,-2.1102,-2.1102,-2.1102,-2.1102,-2.1102,-2.1102,-2.1102,-2.1102,-2.1102,-2.1102,-2.1102,-2.1102,-2.1102,-2.1102,-2.1102,-2.1102,-2.1102,-2.1102,-2.1102,-2.1102,-2.1102,-2.1102,-2.1102,-2.1102,-2.1102,-2.1102,-2.1102,-2.1102,-2.1102,-2.1102,-2.1102,-2.1102,-2.1102,-2.1102,-2.1102,-2.1102,-2.1069,-2.1082,-2.1102,-2.0074,-1.9047,-1.829,-1.7068,-1.478,-1.3354,-1.3185,-1.2295,-1.1011,-1.0544,-1.0514,-1.0541,-1.0544,-1.0429,-2.9746,-2.9961,-3.0391,-3.0703,-3.0869,-3.0898,-3.0898,-3.0898,-3.0898,-3.0898,-3.0898,-3.0898,-3.0898,-3.0898,-3.0898,-3.0898,-3.0898,-3.0898,-3.0957,-3.0918,-3.0898,-3.0937,-3.0898,-3.083,-3.0957,-3.0898,-3.0908,-3.1084,-3.1171,-3.1327,-3.1364,-3.0492,-2.8981,-2.7744,-2.725,-2.5996,-2.4824,-2.3142,-2.376,-2.3767,-2.3356,-2.2929,-2.2624,-2.1471,-2.1216,-2.1102,-2.1102,-2.1102,-2.1102,-2.1102,-2.1102,-2.1102,-2.1102,-2.1102,-2.1102,-2.1102,-2.1102,-2.1102,-2.1102,-2.1102,-2.1102,-2.1102,-2.1102,-2.1102,-2.1102,-2.1102,-2.1102,-2.1102,-2.1102,-2.1102,-2.1102,-2.1102,-2.1102,-2.1102,-2.1102,-2.1102,-2.1102,-2.1102,-2.1102,-2.1102,-2.1102,-2.1102,-2.1102,-2.1102,-2.1102,-2.1102,-2.1102,-2.1102,-2.1102,-2.1102,-2.1102,-2.1102,-2.1102,-2.1102,-2.1102,-2.1102,-2.1102,-2.1102,-2.1102,-2.1039,-2.0843,-1.9483,-1.8372,-1.7194,-1.5828,-1.4005,-1.298,-1.261,-1.2088,-1.0854,-1.067,-1.0687,-1.0721,-1.0721,-1.0609,-2.9199,-2.9609,-3.0029,-3.042,-3.0781,-3.0869,-3.0898,-3.0898,-3.0898,-3.0898,-3.0898,-3.0898,-3.0898,-3.0898,-3.0898,-3.0898,-3.0898,-3.0898,-3.0898,-3.0898,-3.0898,-3.0898,-3.0772,-3.0577,-3.0333,-3.0274,-3.0284,-3.0333,-3.0351,-3.031,-2.963,-2.8077,-2.6539,-2.504,-2.3938,-2.3223,-2.2677,-2.2153,-2.223,-2.2286,-2.1857,-2.1407,-2.1353,-2.1253,-2.1102,-2.1102,-2.1102,-2.1102,-2.1102,-2.1102,-2.1102,-2.1102,-2.1102,-2.1102,-2.1102,-2.1102,-2.1102,-2.1102,-2.1102,-2.1102,-2.1102,-2.1102,-2.1102,-2.1102,-2.1102,-2.1102,-2.1102,-2.1102,-2.1102,-2.1102,-2.1102,-2.1102,-2.1102,-2.1102,-2.1102,-2.1102,-2.1102,-2.1102,-2.1102,-2.1102,-2.1102,-2.1102,-2.1102,-2.1102,-2.1102,-2.1102,-2.1102,-2.1102,-2.1102,-2.1102,-2.1102,-2.1102,-2.1102,-2.1102,-2.1102,-2.1102,-2.1102,-2.1102,-2.1102,-2.0976,-2.0386,-1.8634,-1.7017,-1.5589,-1.4166,-1.2676,-1.1828,-1.1372,-1.085,-1.0721,-1.0721,-1.0721,-1.0721,-1.0721,-1.0721,-2.918,-2.9665,-3.0029,-3.0244,-3.0381,-3.0723,-3.0898,-3.0889,-3.0889,-3.0898,-3.0898,-3.0898,-3.0898,-3.0898,-3.0898,-3.0898,-3.0898,-3.0889,-3.0889,-3.0898,-3.083,-3.0889,-3.0333,-2.9216,-2.8911,-2.8852,-2.8911,-2.8911,-2.8911,-2.8792,-2.8059,-2.647,-2.4962,-2.3931,-2.3512,-2.2654,-2.1664,-2.1355,-2.1355,-2.1475,-2.1411,-2.1169,-2.1162,-2.1116,-2.1102,-2.1102,-2.1102,-2.1102,-2.1102,-2.1102,-2.1102,-2.1102,-2.1102,-2.1102,-2.1102,-2.1102,-2.1102,-2.1102,-2.1102,-2.1102,-2.1102,-2.1102,-2.1102,-2.1102,-2.1102,-2.1102,-2.1102,-2.1102,-2.1102,-2.1102,-2.1102,-2.1102,-2.1102,-2.1102,-2.1102,-2.1102,-2.1102,-2.1102,-2.1102,-2.1102,-2.1102,-2.1102,-2.1102,-2.1102,-2.1102,-2.1102,-2.1102,-2.1102,-2.1102,-2.1102,-2.1102,-2.1102,-2.1102,-2.1102,-2.1102,-2.1102,-2.1102,-2.1102,-2.0906,-2.0583,-1.9477,-1.7468,-1.5848,-1.4619,-1.2997,-1.1439,-1.0717,-1.0721,-1.0721,-1.0721,-1.0721,-1.0721,-1.0721,-1.0721,-1.0721]}]]